[[{"header":{"parameterUnit":"m.s-1","parameterCategory":1,"la1":30.6,"la2":28.766,"lo1":-90.7593,"lo2":-88.6598,"dy":0.0162,"dx":0.0183,"nx":116,"ny":114,"refTime":"2023-07-20T00:00:00:Z","depth":0,"parameterNumber":2,"parameterNumberName":"U-component_of_WINDS"},"data":[0.0,0.0,0.0,0.0,0.0,0.0,0.0,0.0,0.0,0.0,0.0,0.0,0.0,0.0,0.0,0.0,0.0,0.0,0.0,0.0,0.0,0.0,0.0,0.0,0.0,0.0,0.0,0.0,0.0,0.0,0.0,0.0,0.0,0.0,0.0,0.0,0.0,0.0,0.0,0.0,0.0,0.0,0.0,0.0,0.0,0.0,0.0,0.0,0.0,0.0,0.0,0.0,0.0,0.0,0.0,0.0,0.0,0.0,0.0,0.0,0.0,0.0,0.0,0.0,0.0,0.0,0.0,0.0,0.0,0.0,0.0,0.0,0.0,0.0,0.0,0.0,0.0,0.0,0.0,0.0,0.0,0.0,0.0,0.0,0.0,0.0,0.0,0.0,0.0,0.0,0.0,0.0,0.0,0.0,0.0,0.0,0.0,0.0,0.0,0.0,0.0,0.0,0.0,0.0,0.0,0.0,0.0,0.0,0.0,0.0,0.0,0.0,0.0,0.0,0.0,0.0,0.0,0.0,0.0,0.0,0.0,0.0,0.0,0.0,0.0,0.0,0.0,0.0,0.0,0.0,0.0,0.0,0.0,0.0,0.0,0.0,0.0,0.0,0.0,0.0,0.0,0.0,0.0,0.0,0.0,0.0,0.0,0.0,0.0,0.0,0.0,0.0,0.0,0.0,0.0,0.0,0.0,0.0,0.0,0.0,0.0,0.0,0.0,0.0,0.0,0.0,0.0,0.0,0.0,0.0,0.0,0.0,0.0,0.0,0.0,0.0,0.0,0.0,0.0,0.0,0.0,0.0,0.0,0.0,0.0,0.0,0.0,0.0,0.0,0.0,0.0,0.0,0.0,0.0,0.0,0.0,0.0,0.0,0.0,0.0,0.0,0.0,0.0,0.0,0.0,0.0,0.0,0.0,0.0,0.0,0.0,0.0,0.0,0.0,0.0,0.0,0.0,0.0,0.0,0.0,0.0,0.0,0.0,0.0,0.0,0.0,0.0,0.0,0.0,0.0,0.0,0.0,0.0,0.0,0.0,0.0,0.0,0.0,0.0,0.0,0.0,0.0,0.0,0.0,0.0,0.0,0.0,0.0,0.0,0.0,0.0,0.0,0.0,0.0,0.0,0.0,0.0,0.0,0.0,0.0,0.0,0.0,0.0,0.0,0.0,0.0,0.0,0.0,0.0,0.0,0.0,0.0,0.0,0.0,0.0,0.0,0.0,0.0,0.0,0.0,0.0,0.0,0.0,0.0,0.0,0.0,0.0,0.0,0.0,0.0,0.0,0.0,0.0,0.0,0.0,0.0,0.0,0.0,0.0,0.0,0.0,0.0,0.0,0.0,0.0,0.0,0.0,0.0,0.0,0.0,0.0,0.0,0.0,0.0,0.0,0.0,0.0,0.0,0.0,0.0,0.0,0.0,0.0,0.0,0.0,0.0,0.0,0.0,0.0,0.0,0.0,0.0,0.0,0.0,0.0,0.0,0.0,0.0,0.0,0.0,0.0,0.0,0.0,0.0,0.0,0.0,0.0,0.0,0.0,0.0,0.0,0.0,0.0,0.0,0.0,0.0,0.0,0.0,0.0,0.0,0.0,0.0,0.0,0.0,0.0,0.0,0.0,0.0,0.0,0.0,0.0,0.0,0.0,0.0,0.0,0.0,0.0,0.0,0.0,0.0,0.0,0.0,0.0,0.0,0.0,0.0,0.0,0.0,0.0,0.0,0.0,0.0,0.0,0.0,0.0,0.0,0.0,0.0,0.0,0.0,0.0,0.0,0.0,0.0,0.0,0.0,0.0,0.0,0.0,0.0,0.0,0.0,0.0,0.0,0.0,0.0,0.0,0.0,0.0,0.0,0.0,0.0,0.0,0.0,0.0,0.0,0.0,0.0,0.0,0.0,0.0,0.0,0.0,0.0,0.0,0.0,0.0,0.0,0.0,0.0,0.0,0.0,0.0,0.0,0.0,0.0,0.0,0.0,0.0,0.0,0.0,0.0,0.0,0.0,0.0,0.0,0.0,0.0,0.0,0.0,0.0,0.0,0.0,0.0,0.0,0.0,0.0,0.0,0.0,0.0,0.0,0.0,0.0,0.0,0.0,0.0,0.0,0.0,0.0,0.0,0.0,0.0,0.0,0.0,0.0,0.0,0.0,0.0,0.0,0.0,0.0,0.0,0.0,0.0,0.0,0.0,0.0,0.0,0.0,0.0,0.0,0.0,0.0,0.0,0.0,0.0,0.0,0.0,0.0,0.0,0.0,0.0,0.0,0.0,0.0,0.0,0.0,0.0,0.0,0.0,0.0,0.0,0.0,0.0,0.0,0.0,0.0,0.0,0.0,0.0,0.0,0.0,0.0,0.0,0.0,0.0,0.0,0.0,0.0,0.0,0.0,0.0,0.0,0.0,0.0,0.0,0.0,0.0,0.0,0.0,0.0,0.0,0.0,0.0,0.0,0.0,0.0,0.0,0.0,0.0,0.0,0.0,0.0,0.0,0.0,0.0,0.0,0.0,0.0,0.0,0.0,0.0,0.0,0.0,0.0,0.0,0.0,0.0,0.0,0.0,0.0,0.0,0.0,0.0,0.0,0.0,0.0,0.0,0.0,0.0,0.0,0.0,0.0,0.0,0.0,0.0,0.0,0.0,0.0,0.0,0.0,0.0,0.0,0.0,0.0,0.0,0.0,0.0,0.0,0.0,0.0,0.0,0.0,0.0,0.0,0.0,0.0,0.0,0.0,0.0,0.0,0.0,0.0,0.0,0.0,0.0,0.0,0.0,0.0,0.0,0.0,0.0,0.0,0.0,0.0,0.0,0.0,0.0,0.0,0.0,0.0,0.0,0.0,0.0,0.0,0.0,0.0,0.0,0.0,0.0,0.0,0.0,0.0,0.0,0.0,0.0,0.0,0.0,0.0,0.0,0.0,0.0,0.0,0.0,0.0,0.0,0.0,0.0,0.0,0.0,0.0,0.0,0.0,0.0,0.0,0.0,0.0,0.0,0.0,0.0,0.0,0.0,0.0,0.0,0.0,0.0,0.0,0.0,0.0,0.0,0.0,0.0,0.0,0.0,0.0,0.0,0.0,0.0,0.0,0.0,0.0,0.0,0.0,0.0,0.0,0.0,0.0,0.0,0.0,0.0,0.0,0.0,0.0,0.0,0.0,0.0,0.0,0.0,0.0,0.0,0.0,0.0,0.0,0.0,0.0,0.0,0.0,0.0,0.0,0.0,0.0,0.0,0.0,0.0,0.0,0.0,0.0,0.0,0.0,0.0,0.0,0.0,0.0,0.0,0.0,0.0,0.0,0.0,0.0,0.0,0.0,0.0,0.0,0.0,0.0,0.0,0.0,0.0,0.0,0.0,0.0,0.0,0.0,0.0,0.0,0.0,0.0,0.0,0.0,0.0,0.0,0.0,0.0,0.0,0.0,0.0,0.0,0.0,0.0,0.0,0.0,0.0,0.0,0.0,0.0,0.0,0.0,0.0,0.0,0.0,0.0,0.0,0.0,0.0,0.0,0.0,0.0,0.0,0.0,0.0,0.0,0.0,0.0,0.0,0.0,0.0,0.0,0.0,0.0,0.0,0.0,0.0,0.0,0.0,0.0,0.0,0.0,0.0,0.0,0.0,0.0,0.0,0.0,0.0,0.0,0.0,0.0,0.0,0.0,0.0,0.0,0.0,0.0,0.0,0.0,0.0,0.0,0.0,0.0,0.0,0.0,0.0,0.0,0.0,0.0,0.0,0.0,0.0,0.0,0.0,0.0,0.0,0.0,0.0,0.0,0.0,0.0,0.0,0.0,0.0,0.0,0.0,0.0,0.0,0.0,0.0,0.0,0.0,0.0,0.0,0.0,0.0,0.0,0.0,0.0,0.0,0.0,0.0,0.0,0.0,0.0,0.0,0.0,0.0,0.0,0.0,0.0,0.0,0.0,0.0,0.0,0.0,0.0,0.0,0.0,0.0,0.0,0.0,0.0,0.0,0.0,0.0,0.0,0.0,0.0,0.0,0.0,0.0,0.0,0.0,0.0,0.0,0.0,0.0,0.0,0.0,0.0,0.0,0.0,0.0,0.0,0.0,0.0,0.0,0.0,0.0,0.0,0.0,0.0,0.0,0.0,0.0,0.0,0.0,0.0,0.0,0.0,0.0,0.0,0.0,0.0,0.0,0.0,0.0,0.0,0.0,0.0,0.0,0.0,0.0,0.0,0.0,0.0,0.0,0.0,0.0,0.0,0.0,0.0,0.0,0.0,0.0,0.0,0.0,0.0,0.0,0.0,0.0,0.0,0.0,0.0,0.0,0.0,0.0,0.0,0.0,0.0,0.0,0.0,0.0,0.0,0.0,0.0,0.0,0.0,0.0,0.0,0.0,0.0,0.0,0.0,0.0,0.0,0.0,0.0,0.0,0.0,0.0,0.0,0.0,0.0,0.0,0.0,0.0,0.0,0.0,0.0,0.0,0.0,0.0,0.0,0.0,0.0,0.0,0.0,0.0,0.0,0.0,0.0,0.0,0.0,0.0,0.0,0.0,0.0,0.0,0.0,0.0,0.0,0.0,0.0,0.0,0.0,0.0,0.0,0.0,0.0,0.0,0.0,0.0,0.0,0.0,0.0,0.0,0.0,0.0,0.0,0.0,0.0,0.0,0.0,0.0,0.0,0.0,0.0,0.0,0.0,0.0,0.0,0.0,0.0,0.0,0.0,0.0,0.0,0.0,0.0,0.0,0.0,0.0,0.0,0.0,0.0,0.0,0.0,0.0,0.0,0.0,0.0,0.0,0.0,0.0,0.0,0.0,0.0,0.0,0.0,0.0,0.0,0.0,0.0,0.0,0.0,0.0,0.0,0.0,0.0,0.0,0.0,0.0,0.0,0.0,0.0,0.0,0.0,0.0,0.0,0.0,0.0,0.0,0.0,0.0,0.0,0.0,0.0,0.0,0.0,0.0,0.0,0.0,0.0,0.0,0.0,0.0,0.0,0.0,0.0,0.0,0.0,0.0,0.0,0.0,0.0,0.0,0.0,0.0,0.0,0.0,0.0,0.0,0.0,0.0,0.0,0.0,0.0,0.0,0.0,0.0,0.0,0.0,0.0,0.0,0.0,0.0,0.0,0.0,0.0,0.0,0.0,0.0,0.0,0.0,0.0,0.0,0.0,0.0,0.0,0.0,0.0,0.0,0.0,0.0,0.0,0.0,0.0,0.0,0.0,0.0,0.0,0.0,0.0,0.0,0.0,0.0,0.0,0.0,0.0,0.0,0.0,0.0,0.0,0.0,0.0,0.0,0.0,0.0,0.0,0.0,0.0,0.0,0.0,0.0,0.0,0.0,0.0,0.0,0.0,0.0,0.0,0.0,0.0,0.0,0.0,0.0,0.0,0.0,0.0,0.0,0.0,0.0,0.0,0.0,0.0,0.0,0.0,0.0,0.0,0.0,0.0,0.0,0.0,0.0,0.0,0.0,0.0,0.0,0.0,0.0,0.0,0.0,0.0,0.0,0.0,0.0,0.0,0.0,0.0,0.0,0.0,0.0,0.0,0.0,0.0,0.0,0.0,0.0,0.0,0.0,0.0,0.0,0.0,0.0,0.0,0.0,0.0,0.0,0.0,0.0,0.0,0.0,0.0,0.0,0.0,0.0,0.0,0.0,0.0,0.0,0.0,0.0,0.0,0.0,0.0,0.0,0.0,0.0,0.0,0.0,0.0,0.0,0.0,0.0,0.0,0.0,0.0,0.0,0.0,0.0,0.0,0.0,0.0,0.0,0.0,0.0,0.0,0.0,0.0,0.0,0.0,0.0,0.0,0.0,0.0,0.0,0.0,0.0,0.0,0.0,0.0,0.0,0.0,0.0,0.0,0.0,0.0,0.0,0.0,0.0,0.0,0.0,0.0,0.0,0.0,0.0,0.0,0.0,0.0,0.0,0.0,0.0,0.0,0.0,0.0,0.0,0.0,0.0,0.0,0.0,0.0,0.0,0.0,0.0,0.0,0.0,0.0,0.0,0.0,0.0,0.0,0.0,0.0,0.0,0.0,0.0,0.0,0.0,0.0,0.0,0.0,0.0,0.0,0.0,0.0,0.0,0.0,0.0,0.0,0.0,0.0,0.0,-3.5622,0.0,0.0,0.0,0.0,0.0,0.0,0.0,0.0,0.0,0.0,0.0,0.0,0.0,0.0,0.0,0.0,0.0,0.0,0.0,0.0,0.0,0.0,0.0,0.0,0.0,0.0,0.0,0.0,0.0,0.0,0.0,0.0,0.0,0.0,0.0,0.0,0.0,0.0,0.0,0.0,0.0,0.0,0.0,0.0,0.0,0.0,0.0,0.0,0.0,0.0,0.0,0.0,0.0,0.0,0.0,0.0,0.0,0.0,0.0,0.0,0.0,0.0,0.0,0.0,0.0,0.0,0.0,0.0,0.0,0.0,0.0,0.0,0.0,0.0,0.0,0.0,0.0,0.0,0.0,0.0,0.0,0.0,0.0,0.0,0.0,0.0,0.0,0.0,0.0,0.0,0.0,0.0,0.0,0.0,0.0,0.0,0.0,0.0,0.0,0.0,0.0,0.0,0.0,0.0,0.0,0.0,0.0,0.0,0.0,0.0,0.0,0.0,0.0,0.0,0.0,0.0,-3.5424,0.0,0.0,0.0,0.0,0.0,0.0,0.0,0.0,0.0,0.0,0.0,0.0,0.0,0.0,0.0,0.0,0.0,0.0,0.0,0.0,0.0,0.0,0.0,0.0,0.0,0.0,0.0,0.0,0.0,0.0,0.0,0.0,0.0,0.0,0.0,0.0,0.0,0.0,0.0,0.0,0.0,0.0,0.0,0.0,0.0,0.0,0.0,0.0,0.0,0.0,0.0,0.0,0.0,0.0,0.0,0.0,0.0,0.0,0.0,0.0,0.0,0.0,0.0,0.0,0.0,0.0,0.0,0.0,0.0,0.0,0.0,0.0,0.0,0.0,0.0,0.0,0.0,0.0,0.0,0.0,0.0,0.0,0.0,0.0,0.0,0.0,0.0,0.0,0.0,0.0,0.0,0.0,0.0,0.0,0.0,0.0,0.0,0.0,0.0,0.0,0.0,0.0,0.0,0.0,0.0,0.0,0.0,0.0,-3.5622,-3.5622,-3.5622,-3.5622,-3.5622,-3.5622,-3.5622,-3.5207,-3.4624,-3.5207,0.0,0.0,0.0,0.0,0.0,0.0,0.0,0.0,0.0,0.0,0.0,0.0,0.0,0.0,0.0,0.0,0.0,0.0,0.0,0.0,0.0,0.0,0.0,0.0,0.0,0.0,0.0,0.0,0.0,0.0,0.0,0.0,0.0,0.0,0.0,0.0,0.0,0.0,-3.1789,-3.1295,-3.0699,-3.0021,0.0,0.0,0.0,0.0,0.0,0.0,0.0,0.0,0.0,0.0,0.0,0.0,0.0,0.0,0.0,0.0,0.0,0.0,0.0,0.0,0.0,0.0,0.0,0.0,0.0,0.0,0.0,0.0,0.0,0.0,0.0,0.0,0.0,0.0,0.0,0.0,0.0,0.0,0.0,0.0,0.0,0.0,0.0,0.0,-3.8707,-3.8707,0.0,0.0,0.0,0.0,0.0,0.0,0.0,0.0,0.0,0.0,0.0,0.0,0.0,-3.5673,-3.5774,-3.5673,-3.5622,-3.5622,-3.5622,-3.5622,-3.5622,-3.5622,-3.5622,-3.5622,-3.5622,0.0,-3.4624,-3.4688,0.0,0.0,0.0,0.0,0.0,0.0,0.0,0.0,0.0,0.0,0.0,0.0,0.0,0.0,0.0,0.0,0.0,0.0,0.0,0.0,0.0,0.0,0.0,0.0,0.0,0.0,0.0,0.0,0.0,0.0,0.0,0.0,0.0,0.0,0.0,0.0,-3.3315,-3.2747,-3.2196,-3.2021,-3.1528,-3.074,-2.9794,-2.8607,-2.7309,-2.5957,0.0,0.0,0.0,0.0,0.0,0.0,0.0,0.0,0.0,0.0,0.0,0.0,0.0,0.0,0.0,0.0,0.0,0.0,0.0,0.0,0.0,0.0,0.0,0.0,0.0,0.0,0.0,0.0,0.0,0.0,0.0,0.0,0.0,0.0,0.0,0.0,0.0,0.0,0.0,-3.9189,-3.9189,-3.9189,-3.8902,-3.8762,0.0,0.0,0.0,0.0,0.0,0.0,0.0,0.0,0.0,-3.5622,-3.5622,-3.5622,-3.5622,-3.5622,-3.5622,-3.5622,-3.5622,-3.5622,-3.5622,-3.5622,-3.5622,-3.5577,-3.5207,-3.464,-3.4087,-3.4431,-3.4137,-3.3443,0.0,0.0,0.0,0.0,-3.1482,-3.1409,0.0,0.0,0.0,0.0,0.0,0.0,0.0,0.0,0.0,0.0,0.0,0.0,0.0,0.0,0.0,0.0,0.0,0.0,0.0,0.0,0.0,0.0,0.0,0.0,0.0,0.0,0.0,0.0,-3.3811,-3.3404,-3.2623,-3.2553,-3.2021,-3.1134,-3.0336,-2.9227,-2.7807,-2.6105,-2.5063,0.0,0.0,0.0,0.0,0.0,0.0,0.0,0.0,0.0,0.0,0.0,0.0,0.0,0.0,0.0,0.0,0.0,0.0,0.0,0.0,0.0,0.0,0.0,0.0,0.0,0.0,0.0,0.0,0.0,0.0,0.0,0.0,0.0,0.0,0.0,0.0,0.0,0.0,-3.9576,-3.9486,-3.9599,-3.9064,-3.8803,0.0,0.0,0.0,0.0,0.0,0.0,-3.6416,-3.6374,-3.6139,-3.5622,-3.5622,-3.5622,-3.5622,-3.5622,-3.5622,-3.5622,-3.5622,-3.5622,-3.5622,-3.5622,-3.5515,-3.5316,-3.4847,-3.4137,-3.3391,-3.3887,-3.3495,-3.2602,-3.2382,-3.2437,-3.2492,-3.1796,-3.1482,-3.1409,0.0,0.0,0.0,0.0,0.0,0.0,0.0,0.0,0.0,0.0,0.0,0.0,0.0,0.0,0.0,0.0,0.0,0.0,0.0,0.0,0.0,0.0,0.0,0.0,0.0,0.0,0.0,-3.3807,-3.3811,0.0,-3.2973,-3.2641,-3.2021,-3.1134,-3.0336,-2.9729,-2.9118,-2.65,-2.5398,-2.5175,0.0,0.0,0.0,0.0,0.0,0.0,0.0,0.0,0.0,0.0,0.0,0.0,0.0,0.0,0.0,0.0,0.0,0.0,0.0,0.0,0.0,0.0,0.0,0.0,0.0,0.0,0.0,0.0,0.0,0.0,0.0,0.0,0.0,0.0,0.0,0.0,0.0,0.0,0.0,-3.9576,-3.9064,0.0,0.0,0.0,0.0,-3.7946,-3.7859,-3.7415,-3.6457,-3.6374,-3.6139,-3.5622,-3.5622,-3.5622,-3.5622,-3.5622,-3.5622,-3.5622,-3.5622,-3.5622,-3.5622,-3.5622,-3.5253,-3.464,-3.4624,-3.3836,-3.2641,-3.2695,-3.2641,-3.2532,-3.1853,-3.1951,-3.2492,-3.1796,-3.1482,-3.1409,0.0,0.0,0.0,0.0,0.0,0.0,0.0,0.0,0.0,0.0,0.0,0.0,0.0,0.0,0.0,0.0,0.0,0.0,0.0,0.0,0.0,0.0,0.0,0.0,0.0,0.0,0.0,0.0,0.0,0.0,0.0,0.0,0.0,0.0,-3.0673,-3.0046,-2.921,-2.6553,-2.5119,-2.4553,-2.322,-2.2384,0.0,0.0,0.0,0.0,0.0,0.0,0.0,0.0,0.0,0.0,0.0,0.0,0.0,0.0,0.0,0.0,0.0,0.0,0.0,0.0,0.0,0.0,0.0,0.0,0.0,0.0,0.0,0.0,0.0,0.0,0.0,0.0,0.0,0.0,0.0,0.0,0.0,-3.9552,-3.9064,0.0,-3.9072,-3.8542,-3.8099,-3.7893,-3.7305,-3.6786,-3.6416,-3.6054,-3.5827,-3.5622,-3.5622,-3.5622,-3.5622,-3.5622,-3.5622,-3.5622,-3.5622,-3.5622,-3.5577,-3.5144,-3.4847,-3.4528,-3.3684,-3.3039,-3.2532,-3.2064,-3.191,-3.1853,-3.1582,-3.164,-3.1853,-3.1582,-3.1482,-3.1467,0.0,0.0,0.0,0.0,0.0,0.0,0.0,0.0,0.0,0.0,0.0,0.0,0.0,0.0,0.0,0.0,0.0,0.0,0.0,0.0,0.0,0.0,0.0,0.0,0.0,0.0,0.0,0.0,0.0,0.0,0.0,0.0,0.0,0.0,0.0,0.0,0.0,0.0,-2.5301,-2.4624,-2.3826,-2.2992,-2.2322,0.0,0.0,0.0,0.0,0.0,0.0,0.0,0.0,0.0,0.0,0.0,0.0,0.0,0.0,0.0,0.0,0.0,0.0,0.0,0.0,0.0,0.0,0.0,0.0,0.0,0.0,0.0,0.0,0.0,0.0,0.0,0.0,0.0,0.0,0.0,-3.9212,-3.9552,-3.9064,-3.8803,-3.9072,-3.8542,-3.8032,-3.7685,-3.7058,-3.6522,-3.6139,-3.5766,-3.5622,-3.5622,-3.5622,-3.5622,-3.5622,-3.5622,-3.5622,-3.5622,-3.5622,-3.5622,-3.5577,-3.4894,-3.4479,-3.4186,-3.3093,-3.2437,-3.2176,-3.1697,-3.1482,-3.1482,-3.1482,-3.1482,-3.1482,-3.1482,-3.1482,-3.1482,0.0,0.0,0.0,0.0,0.0,0.0,0.0,0.0,0.0,0.0,0.0,0.0,0.0,0.0,0.0,0.0,0.0,0.0,0.0,0.0,0.0,0.0,0.0,0.0,0.0,0.0,0.0,0.0,0.0,0.0,0.0,0.0,0.0,0.0,0.0,0.0,0.0,0.0,0.0,0.0,0.0,0.0,-2.3078,0.0,0.0,0.0,0.0,0.0,0.0,0.0,0.0,0.0,0.0,0.0,0.0,0.0,0.0,0.0,0.0,0.0,0.0,0.0,0.0,0.0,0.0,0.0,0.0,0.0,0.0,0.0,0.0,0.0,0.0,0.0,0.0,0.0,-4.0042,-3.9529,-3.9212,-3.9534,-3.9064,-3.8803,-3.9044,-3.8855,-3.8285,-3.7266,-3.719,-3.6706,-3.565,-3.5622,-3.5622,-3.5622,-3.5622,-3.5622,-3.5622,-3.5622,-3.5577,-3.5577,-3.5577,-3.5577,-3.5515,-3.483,-3.4186,-3.3531,-3.2841,-3.2176,-3.1482,-3.1482,-3.1482,-3.1482,-3.1482,-3.1482,-3.1482,-3.1482,-3.1482,-3.1482,0.0,0.0,0.0,0.0,0.0,0.0,0.0,0.0,0.0,0.0,0.0,0.0,0.0,0.0,0.0,0.0,0.0,0.0,0.0,0.0,0.0,0.0,0.0,0.0,0.0,0.0,0.0,0.0,0.0,0.0,0.0,0.0,0.0,0.0,0.0,0.0,0.0,0.0,0.0,0.0,0.0,0.0,-2.3078,0.0,0.0,0.0,0.0,0.0,0.0,0.0,0.0,0.0,0.0,0.0,0.0,0.0,0.0,0.0,0.0,0.0,0.0,0.0,0.0,0.0,0.0,0.0,0.0,0.0,0.0,0.0,0.0,0.0,0.0,0.0,0.0,-3.9731,-4.0042,-3.9345,-3.8942,-3.9205,-3.8913,-3.8719,-3.8803,-3.8732,-3.8285,-3.7266,-3.719,-3.6706,-3.565,-3.5622,-3.5622,-3.5622,-3.5622,-3.5622,-3.5622,-3.5622,-3.5362,-3.4894,-3.4894,-3.464,-3.4153,-3.3443,-3.3039,-3.2841,-3.2104,-3.1697,-3.1482,-3.1482,-3.1482,-3.1482,-3.1482,-3.1482,-3.1482,-3.1482,-3.1482,-3.1482,0.0,0.0,0.0,0.0,0.0,0.0,0.0,0.0,0.0,0.0,0.0,0.0,0.0,0.0,0.0,0.0,0.0,0.0,0.0,0.0,0.0,0.0,0.0,0.0,0.0,0.0,0.0,0.0,0.0,0.0,0.0,0.0,0.0,0.0,0.0,0.0,0.0,0.0,0.0,0.0,0.0,0.0,-2.3078,-2.3078,-2.3078,-2.3078,-2.3078,-2.3078,-2.321,-2.4007,0.0,0.0,0.0,0.0,0.0,0.0,0.0,0.0,0.0,0.0,0.0,0.0,0.0,0.0,0.0,0.0,0.0,0.0,0.0,0.0,0.0,0.0,0.0,0.0,-3.9821,-3.9668,-3.9861,-3.9301,-3.8923,-3.9072,-3.8855,-3.8707,-3.8707,-3.8515,-3.805,-3.7266,-3.6981,-3.6481,-3.5667,-3.5622,-3.5622,-3.5622,-3.5622,-3.5622,-3.5622,-3.5622,-3.5253,-3.4576,-3.4576,-3.4235,-3.3582,-3.2895,-3.2586,-3.2547,-3.1796,-3.1482,-3.1482,-3.1482,-3.1482,0.0,0.0,0.0,0.0,0.0,-3.1482,-3.1482,0.0,0.0,0.0,0.0,0.0,0.0,0.0,0.0,0.0,0.0,0.0,0.0,0.0,0.0,0.0,0.0,0.0,0.0,0.0,0.0,0.0,0.0,0.0,0.0,0.0,0.0,0.0,0.0,0.0,0.0,0.0,0.0,0.0,0.0,0.0,0.0,0.0,0.0,0.0,0.0,0.0,0.0,-2.3078,-2.3078,-2.3078,-2.3078,-2.3078,-2.3078,-2.3233,-2.4116,0.0,0.0,0.0,0.0,0.0,0.0,0.0,0.0,0.0,0.0,0.0,0.0,0.0,0.0,0.0,0.0,0.0,0.0,0.0,0.0,0.0,0.0,0.0,0.0,-3.9622,-3.9622,-3.9645,-3.9364,-3.9133,-3.9107,-3.8855,-3.8707,-3.8707,-3.8216,-3.772,-3.7228,-3.6684,-3.6182,-3.5622,0.0,0.0,0.0,0.0,-3.547,-3.547,-3.5407,-3.5052,-3.4382,-3.4382,-3.4037,-3.3323,-3.2734,-3.2446,-3.2314,-3.1675,-3.1375,-3.1315,-3.1315,-3.1315,-3.133,-3.1422,-3.1482,-3.1482,-3.1409,-3.1364,-3.1362,0.0,0.0,0.0,0.0,0.0,0.0,0.0,0.0,0.0,0.0,0.0,0.0,0.0,0.0,0.0,0.0,0.0,0.0,0.0,0.0,0.0,0.0,0.0,0.0,0.0,0.0,0.0,0.0,0.0,0.0,0.0,0.0,0.0,0.0,0.0,0.0,0.0,0.0,0.0,0.0,0.0,0.0,-2.3078,-2.3078,-2.3078,-2.3078,-2.3078,-2.3078,-2.333,-2.474,-2.5589,-2.6465,-2.8255,0.0,0.0,0.0,0.0,0.0,0.0,0.0,0.0,0.0,0.0,0.0,0.0,0.0,0.0,0.0,0.0,0.0,0.0,0.0,0.0,-3.9859,-3.9775,-3.969,-3.9982,-3.9712,-3.9389,-3.9133,-3.8855,-3.8707,-3.8707,-3.8216,-3.772,-3.7228,-3.6684,-3.6182,-3.5622,-3.5622,-3.5622,-3.5622,-3.5098,-3.4783,-3.4783,-3.4235,-3.3649,-3.2986,0.0,0.0,-3.1894,-3.1796,-3.1438,-3.091,-3.0758,-3.0417,-2.9968,-2.9968,-2.9968,-3.0058,-3.112,-3.1482,-3.1409,-3.0777,-3.0616,-3.0589,0.0,0.0,0.0,0.0,0.0,0.0,0.0,0.0,0.0,0.0,0.0,0.0,0.0,0.0,0.0,0.0,0.0,0.0,0.0,0.0,0.0,0.0,0.0,0.0,0.0,0.0,0.0,0.0,0.0,0.0,0.0,0.0,0.0,0.0,0.0,0.0,0.0,0.0,0.0,0.0,0.0,0.0,-2.1928,-2.231,-2.2506,-2.2567,-2.2944,-2.3365,-2.3826,-2.4711,-2.5605,-2.6783,-2.9015,-2.9782,-2.9972,0.0,0.0,0.0,0.0,0.0,0.0,0.0,0.0,0.0,0.0,0.0,0.0,0.0,0.0,-3.875,0.0,0.0,-3.9054,-3.9529,-3.9599,-3.9599,-3.9599,-3.9457,-3.9289,-3.9125,-3.8855,-3.8707,-3.8707,-3.7998,-3.747,-3.7228,-3.644,-3.5898,-3.5622,-3.5267,-3.5064,-3.5064,-3.4348,-3.386,-3.3568,-3.3223,-3.2542,-3.1601,-3.1601,-3.1205,-3.0552,-3.0552,-3.0372,-3.0043,-3.0043,-2.9864,-2.9579,-2.9579,-2.9579,-2.9639,-2.9847,-2.9969,-2.9855,-2.9054,-2.884,-2.8872,0.0,0.0,0.0,0.0,0.0,0.0,0.0,0.0,0.0,0.0,0.0,0.0,0.0,0.0,0.0,0.0,0.0,0.0,0.0,0.0,0.0,0.0,0.0,0.0,0.0,0.0,0.0,0.0,0.0,0.0,0.0,0.0,0.0,0.0,0.0,0.0,0.0,0.0,0.0,0.0,0.0,0.0,-1.9912,-2.0812,-2.1467,-2.2002,-2.2823,-2.3603,-2.431,-2.4541,-2.5522,-2.7031,-2.9091,-2.974,-2.9844,-3.0314,-3.0825,0.0,0.0,0.0,0.0,0.0,0.0,0.0,0.0,0.0,-3.8102,-3.7595,-3.8022,-3.8505,-3.867,-3.8923,-3.9125,-3.9205,-3.9481,-3.9576,-3.9238,-3.9205,-3.9152,-3.9036,-3.8844,-3.8707,-3.8707,-3.7791,-3.712,-3.6998,-3.5983,-3.5334,-3.5199,-3.4607,-3.4286,-3.4286,-3.3463,-3.2779,-3.2298,-3.2069,-3.1438,-3.0438,-3.0438,-3.009,-2.9579,-2.9579,-2.9505,-2.9385,-2.925,-2.919,-2.919,-2.9083,-2.9015,-2.8907,-2.8105,-2.774,-2.7541,-2.7187,-2.7083,-2.7162,0.0,0.0,0.0,0.0,0.0,0.0,0.0,0.0,0.0,0.0,0.0,0.0,0.0,0.0,0.0,0.0,0.0,0.0,0.0,0.0,0.0,0.0,0.0,0.0,0.0,0.0,0.0,0.0,0.0,0.0,0.0,0.0,0.0,0.0,0.0,0.0,0.0,0.0,0.0,0.0,0.0,0.0,-1.717,-1.8006,-1.9857,-2.2002,-2.2823,-2.3603,-2.431,-2.4541,-2.5742,-2.7434,-2.856,-2.9862,-3.1016,-3.1067,0.0,-3.1297,-3.1681,-3.2403,-3.3075,-3.3277,-3.4209,-3.5092,0.0,0.0,-3.6736,-3.7357,-3.7564,-3.7845,-3.8579,-3.8923,-3.9205,-3.9505,-3.9838,-3.9922,-3.9599,-3.9534,-3.9352,-3.8803,-3.8719,-3.8707,-3.8707,-3.7791,-3.6909,-3.62,-3.5214,-3.4336,-3.3694,-3.3575,-3.3525,-3.3525,-3.2331,-3.1661,-3.1614,-3.049,-2.9872,-2.9726,-2.9726,-2.9672,-2.9579,-2.9579,-2.9265,-2.8682,-2.8053,-2.785,-2.7799,-2.7097,-2.6833,-2.678,-2.6048,-2.5324,-2.4887,-2.5868,-2.6329,-2.6392,0.0,0.0,0.0,0.0,0.0,0.0,0.0,0.0,0.0,0.0,0.0,0.0,0.0,0.0,0.0,0.0,0.0,0.0,0.0,0.0,0.0,0.0,0.0,0.0,0.0,0.0,0.0,0.0,0.0,0.0,0.0,0.0,0.0,0.0,0.0,0.0,0.0,0.0,0.0,0.0,0.0,0.0,-1.6009,-1.8532,-2.016,-2.1227,-2.1856,-2.3122,0.0,0.0,-2.5735,-2.8408,-2.9769,-3.0428,-3.0825,-3.1506,-3.1489,0.0,-3.2031,-3.2679,-3.3276,0.0,-3.4283,-3.488,-3.4402,-3.534,-3.6251,-3.6084,-3.6828,-3.7599,-3.7936,-3.8765,-3.9438,0.0,-3.988,-3.9982,-3.9645,-3.9414,-3.9144,-3.875,-3.8285,-3.7991,-3.7991,-3.7072,-3.6183,-3.5385,-3.4398,-3.3728,-3.3423,-3.2983,-3.2747,-3.2747,-3.15,-3.0635,-3.027,-2.9412,-2.8809,-2.8464,-2.8464,-2.8464,-2.8464,-2.8464,-2.8263,-2.7979,-2.7694,-2.7357,-2.693,-2.6616,-2.6229,-2.5783,-2.5063,-2.4567,-2.4345,-2.4892,-2.4787,-2.4518,0.0,0.0,0.0,0.0,0.0,0.0,0.0,0.0,0.0,0.0,0.0,0.0,0.0,0.0,0.0,0.0,0.0,0.0,0.0,0.0,0.0,0.0,0.0,0.0,0.0,0.0,0.0,0.0,0.0,0.0,0.0,0.0,0.0,0.0,0.0,0.0,0.0,0.0,0.0,0.0,0.0,0.0,-1.4977,-1.7658,-1.9194,-2.003,-2.1404,-2.3078,0.0,0.0,-2.5712,-2.9249,-3.0713,-3.0917,-3.0718,-3.1613,-3.1698,-3.1713,-3.2481,-3.3027,0.0,-3.3733,-3.4246,-3.4512,-3.3944,-3.4741,-3.5504,-3.5091,-3.604,-3.7007,-3.7247,-3.8216,-3.9012,-3.9012,-3.9239,-3.9318,-3.9075,-3.8689,-3.8385,-3.8169,-3.7555,-3.7026,-3.6698,-3.6034,-3.535,-3.457,-3.3623,-3.3017,-3.2797,-3.2273,-3.1985,-3.1985,-3.0742,-2.9848,-2.9406,-2.8638,-2.8042,-2.7625,-2.7625,-2.7625,-2.7625,-2.7625,-2.7625,-2.7625,-2.7625,-2.7203,-2.6457,-2.6283,-2.5728,-2.5063,-2.4509,-2.4176,-2.4002,-2.4234,-2.3767,-2.3185,0.0,0.0,0.0,0.0,0.0,0.0,0.0,0.0,0.0,0.0,0.0,0.0,0.0,0.0,0.0,0.0,0.0,0.0,0.0,0.0,0.0,0.0,0.0,0.0,0.0,0.0,0.0,0.0,0.0,0.0,0.0,0.0,0.0,0.0,0.0,0.0,0.0,0.0,0.0,0.0,0.0,0.0,-1.3626,-1.3761,-1.5521,-1.8419,-2.1811,0.0,0.0,0.0,-2.5875,-2.9599,-3.0806,-3.1182,0.0,-3.1207,-3.1805,-3.2581,-3.3046,-3.3479,-3.3788,-3.3807,-3.3825,-3.3825,-3.3807,-3.3844,-3.4082,-3.4844,-3.5306,-3.5795,-3.657,-3.7184,-3.7547,-3.7547,-3.7622,-3.7659,-3.7584,-3.7118,-3.677,-3.6756,-3.65,-3.5846,0.0,-3.4686,-3.4553,-3.3791,-3.2869,-3.2002,-3.1292,-3.1241,-3.1224,-3.1224,-3.0038,-2.9406,-2.9406,-2.8222,-2.7625,-2.7625,-2.7625,-2.7625,-2.7625,-2.7625,-2.7625,-2.7625,-2.7625,-2.7203,-2.6457,-2.5728,-2.5007,-2.435,-2.4292,-2.3826,-2.3245,-2.4002,-2.3767,-2.3078,0.0,0.0,0.0,0.0,0.0,0.0,0.0,0.0,0.0,0.0,0.0,0.0,0.0,0.0,0.0,0.0,0.0,0.0,0.0,0.0,0.0,0.0,0.0,0.0,0.0,0.0,0.0,0.0,0.0,0.0,0.0,0.0,0.0,0.0,0.0,0.0,0.0,0.0,0.0,0.0,0.0,0.0,-0.9074,-1.2233,-1.4924,-1.7147,0.0,0.0,0.0,0.0,-2.5909,-2.9584,-3.0799,-3.1212,-3.1224,-3.1506,-3.2266,-3.3019,-3.3145,-3.3306,-3.3486,-3.3733,-3.3807,-3.3839,-3.4018,-3.4074,-3.42,-3.4692,-3.5318,-3.5841,-3.6122,-3.6896,-3.7508,-3.7508,-3.7706,-3.7706,-3.7278,-3.7068,-3.6831,-3.6473,-3.5827,0.0,0.0,0.0,0.0,-3.2529,-3.1884,-3.1444,-3.1207,-3.119,-3.119,-3.119,-3.0038,-2.9406,-2.9406,-2.8207,-2.7625,-2.7625,-2.7625,-2.7625,-2.7625,-2.7625,-2.7625,-2.7575,-2.7086,-2.6443,-2.5728,-2.4951,-2.4221,-2.3484,-2.3484,-2.3365,-2.3138,-2.3424,-2.3305,-2.3078,0.0,0.0,0.0,0.0,0.0,0.0,0.0,0.0,0.0,0.0,0.0,0.0,0.0,0.0,0.0,0.0,0.0,0.0,0.0,0.0,0.0,0.0,0.0,0.0,0.0,0.0,0.0,0.0,0.0,0.0,0.0,0.0,0.0,0.0,0.0,0.0,0.0,0.0,0.0,0.0,0.0,0.0,-0.6532,-0.9683,-1.2543,0.0,0.0,0.0,0.0,0.0,-2.6173,-2.8293,-3.0198,-3.0959,-3.1312,-3.1898,-3.2478,-3.303,-3.3331,-3.3405,-3.3486,-3.3752,-3.3807,-3.3839,-3.4018,-3.4051,-3.4125,-3.4317,-3.4971,-3.5466,-3.5466,-3.6178,-3.6791,-3.6791,-3.6894,-3.6826,-3.6444,-3.6201,-3.5951,-3.5594,-3.499,-3.442,0.0,0.0,0.0,-3.1878,-3.1411,-3.119,-3.119,-3.1015,-3.0975,-3.119,-2.9805,-2.918,-2.9406,-2.8207,-2.7625,-2.7625,-2.7625,-2.7625,-2.7625,-2.7625,-2.7473,-2.7203,-2.6721,-2.596,-2.4951,-2.4509,-2.3826,-2.3078,-2.3078,-2.3078,-2.3078,-2.3078,-2.3078,-2.3078,0.0,0.0,0.0,0.0,0.0,0.0,0.0,0.0,0.0,0.0,0.0,0.0,0.0,0.0,0.0,0.0,0.0,0.0,0.0,0.0,0.0,0.0,0.0,0.0,0.0,0.0,0.0,0.0,0.0,0.0,0.0,0.0,0.0,0.0,0.0,0.0,0.0,0.0,0.0,0.0,0.0,0.0,-0.5862,-0.6095,0.0,0.0,0.0,0.0,0.0,0.0,0.0,-2.6117,-2.9176,-3.066,-3.1465,-3.2282,-3.2547,-3.2738,-3.3578,-3.3807,-3.3807,-3.3807,-3.3807,-3.3788,-3.3815,-3.3815,-3.3815,-3.3868,-3.4307,-3.4714,0.0,0.0,-3.5493,-3.5493,-3.5289,-3.5124,-3.5145,-3.4651,-3.4274,0.0,0.0,0.0,0.0,0.0,0.0,-3.1861,0.0,-3.119,-3.119,-3.0658,-3.0601,-3.1151,-2.9451,-2.8826,-2.9361,-2.8174,-2.7625,-2.7625,-2.7625,-2.7625,-2.7625,-2.7625,-2.7203,-2.651,-2.6457,-2.5618,-2.4292,-2.4234,-2.3767,-2.3078,-2.3078,-2.3078,-2.3078,-2.3078,-2.3078,-2.3078,0.0,0.0,0.0,0.0,0.0,0.0,0.0,0.0,0.0,0.0,0.0,0.0,0.0,0.0,0.0,0.0,0.0,0.0,0.0,0.0,0.0,0.0,0.0,0.0,0.0,0.0,0.0,0.0,0.0,0.0,0.0,0.0,0.0,0.0,0.0,0.0,0.0,0.0,0.0,0.0,0.0,0.0,-0.3876,0.0,0.0,0.0,0.0,0.0,0.0,0.0,0.0,0.0,0.0,-3.2223,-3.2733,-3.2958,-3.324,-3.3523,-3.3752,-3.3807,-3.3807,-3.3807,-3.3807,-3.3868,-3.4068,-3.4099,-3.4218,-3.4675,-3.4889,-3.507,0.0,0.0,0.0,-3.5493,-3.5446,0.0,-3.5665,-3.5558,0.0,-3.4858,0.0,-3.431,-3.3298,-3.2777,0.0,0.0,-3.1411,-3.119,-3.119,-3.1055,-3.0838,-3.0518,-2.9629,-2.9012,-2.8732,-2.7993,-2.7625,-2.7625,-2.7625,-2.7625,-2.7625,-2.7625,-2.7203,-2.6457,-2.5906,-2.5175,-2.4234,-2.3649,-2.3305,-2.3078,-2.3078,-2.3078,-2.3078,-2.3078,-2.3078,-2.3078,0.0,0.0,0.0,0.0,0.0,0.0,0.0,0.0,0.0,0.0,0.0,0.0,0.0,0.0,0.0,0.0,0.0,0.0,0.0,0.0,0.0,0.0,0.0,0.0,0.0,0.0,0.0,0.0,0.0,0.0,0.0,0.0,0.0,0.0,0.0,0.0,0.0,0.0,0.0,0.0,0.0,0.0,0.0,0.0,0.0,0.0,0.0,0.0,0.0,0.0,0.0,-2.9927,-3.1597,-3.2468,-3.293,-3.314,0.0,-3.3578,-3.3752,-3.3807,-3.3807,-3.3807,-3.3807,-3.3842,-3.3986,-3.4018,-3.4147,-3.4615,-3.4813,0.0,-3.5273,-3.5432,0.0,0.0,0.0,0.0,-3.6008,-3.5964,-3.5856,0.0,-3.5303,0.0,-3.4076,-3.3086,-3.2384,0.0,-3.1545,-3.119,-3.119,-3.0958,-3.0658,-3.0293,-2.9451,-2.8732,-2.8091,-2.776,-2.7625,-2.7625,-2.7625,-2.7625,-2.7575,-2.7255,-2.6707,-2.596,0.0,-2.4509,-2.3767,-2.3305,-2.3078,-2.3078,-2.3078,-2.3078,-2.3078,-2.3078,-2.3078,-2.3078,0.0,0.0,0.0,0.0,0.0,0.0,0.0,0.0,0.0,0.0,0.0,0.0,0.0,0.0,0.0,0.0,0.0,0.0,0.0,0.0,0.0,0.0,0.0,0.0,0.0,0.0,0.0,0.0,0.0,0.0,0.0,0.0,0.0,0.0,0.0,0.0,0.0,0.0,0.0,0.0,0.0,0.0,0.0,0.0,0.0,0.0,0.0,0.0,0.0,0.0,-2.9188,-3.027,-3.1501,-3.2246,-3.2738,-3.3158,-3.3295,-3.335,-3.3715,-3.3807,-3.3807,-3.3807,-3.3807,-3.3807,-3.3807,-3.3807,-3.3876,-3.4147,0.0,-3.4774,-3.5053,-3.5335,-3.5515,-3.5507,0.0,-3.5696,-3.6226,-3.6198,-3.6249,-3.6653,-3.5843,-3.5184,-3.499,-3.3463,-3.2484,-3.2484,-3.1694,-3.119,-3.119,-3.0699,-3.0351,-3.0166,-2.8996,-2.814,-2.7625,-2.7625,-2.7625,-2.7625,-2.7625,-2.7625,-2.7575,-2.6826,-2.6122,-2.5342,-2.4624,-2.3826,-2.3078,-2.3078,-2.3078,-2.3078,-2.3078,-2.3078,-2.3078,-2.3078,-2.3078,-2.3078,0.0,0.0,0.0,0.0,0.0,0.0,0.0,0.0,0.0,0.0,0.0,0.0,0.0,0.0,0.0,0.0,0.0,0.0,0.0,0.0,0.0,0.0,0.0,0.0,0.0,0.0,0.0,0.0,0.0,0.0,0.0,0.0,0.0,0.0,0.0,0.0,0.0,0.0,0.0,0.0,0.0,0.0,0.0,0.0,0.0,0.0,0.0,0.0,0.0,0.0,-2.9341,-3.0785,-3.2775,-3.3505,-3.3578,-3.3652,-3.3715,-3.3715,-3.3788,-3.3807,-3.3807,-3.3807,-3.3807,-3.3807,-3.3807,-3.3807,0.0,0.0,-3.4486,-3.4774,-3.5053,-3.5372,-3.5574,-3.5501,-3.5546,-3.5753,-3.6226,-3.6824,-3.7084,0.0,-3.6533,-3.6051,-3.5073,-3.3463,0.0,0.0,0.0,-3.119,-3.119,-3.1095,-3.0576,-2.9585,-2.84,-2.771,-2.7625,-2.7625,-2.7625,-2.7625,-2.7625,-2.7625,-2.7575,-2.6826,-2.6122,-2.5342,-2.4624,0.0,-2.3078,-2.3078,-2.3078,-2.3078,-2.3078,-2.3078,-2.3078,-2.3078,-2.3078,-2.3078,0.0,0.0,0.0,0.0,0.0,0.0,0.0,0.0,0.0,0.0,-1.9779,-1.9853,0.0,0.0,0.0,0.0,0.0,0.0,0.0,0.0,0.0,0.0,0.0,0.0,0.0,0.0,0.0,0.0,0.0,0.0,0.0,0.0,0.0,0.0,0.0,0.0,0.0,0.0,0.0,0.0,0.0,0.0,0.0,0.0,0.0,0.0,0.0,0.0,0.0,0.0,-2.9545,-3.1577,-3.3259,-3.3807,-3.3807,-3.3807,-3.3807,-3.3807,-3.3807,-3.3807,-3.3807,-3.3807,-3.3807,-3.3807,-3.3807,0.0,0.0,0.0,-3.4486,-3.4774,-3.5053,-3.5355,0.0,-3.5558,-3.5558,-3.5791,-3.6521,-3.675,0.0,-3.6911,-3.6422,-3.5788,0.0,0.0,0.0,0.0,0.0,-3.1411,-3.123,-3.0601,-2.9995,-2.9406,-2.8222,-2.7625,-2.7625,-2.7625,-2.7408,-2.7034,-2.7034,-2.6826,-2.6428,-2.5673,-2.5175,-2.4781,-2.3989,0.0,-2.3078,-2.3078,-2.3078,-2.3078,-2.3078,-2.3078,-2.3078,-2.3078,-2.3078,-2.3078,0.0,0.0,0.0,0.0,0.0,0.0,0.0,-1.8971,-1.9186,-2.1178,-2.114,-2.088,-2.0896,-1.5424,0.0,0.0,0.0,0.0,0.0,0.0,0.0,0.0,0.0,0.0,0.0,0.0,0.0,0.0,0.0,0.0,0.0,0.0,0.0,0.0,0.0,0.0,0.0,0.0,0.0,0.0,0.0,0.0,0.0,0.0,0.0,0.0,0.0,0.0,0.0,0.0,-2.958,-3.1737,-3.3216,-3.377,-3.3876,-3.3815,-3.3807,-3.3807,-3.3807,-3.3807,-3.3807,-3.3807,-3.3807,-3.3807,-3.3807,-3.3807,0.0,0.0,-3.4442,-3.4754,-3.4981,0.0,-3.5528,0.0,-3.5546,-3.5772,-3.6493,-3.6637,-3.6767,0.0,-3.6362,0.0,-3.5321,0.0,0.0,0.0,0.0,0.0,-3.1055,-2.9995,-2.9316,-2.9225,-2.8174,-2.7625,-2.7625,-2.7625,-2.7255,-2.651,-2.651,-2.6122,-2.5342,-2.4624,-2.4292,-2.4234,-2.3424,0.0,0.0,-2.3078,-2.3078,-2.3078,-2.3078,-2.3078,-2.3078,-2.3078,-2.3078,-2.3078,0.0,0.0,0.0,0.0,0.0,0.0,0.0,-2.0386,-2.0696,-2.1705,-2.1803,-2.2542,-2.448,-2.3492,0.0,0.0,0.0,0.0,0.0,0.0,0.0,0.0,0.0,0.0,0.0,0.0,0.0,0.0,0.0,0.0,0.0,0.0,0.0,0.0,0.0,0.0,0.0,0.0,0.0,0.0,0.0,0.0,0.0,0.0,0.0,0.0,0.0,0.0,0.0,0.0,0.0,-3.0219,-3.2549,-3.367,-3.4123,-3.3876,0.0,0.0,-3.3807,-3.3807,-3.3807,-3.3807,-3.3807,-3.3807,-3.3807,0.0,-3.3807,-3.3842,-3.4302,-3.4694,-3.4734,0.0,0.0,0.0,0.0,-3.5604,-3.5624,-3.6897,-3.7666,-3.7168,0.0,0.0,-3.6241,0.0,0.0,0.0,0.0,0.0,-3.0418,-2.9761,-2.9134,-2.8606,-2.7944,-2.7625,-2.7625,-2.7625,-2.7255,-2.651,-2.651,-2.6122,-2.5342,-2.4624,-2.4292,-2.4234,-2.3424,0.0,0.0,-2.3078,-2.3078,-2.3078,-2.3078,-2.3078,-2.3078,-2.3078,-2.3078,-2.3017,0.0,0.0,0.0,0.0,0.0,0.0,0.0,-2.098,-2.1834,-2.3541,-2.3443,-2.4239,-2.6777,-2.6791,-2.5091,0.0,0.0,0.0,0.0,0.0,0.0,0.0,0.0,0.0,0.0,0.0,0.0,0.0,0.0,0.0,0.0,0.0,0.0,0.0,0.0,0.0,0.0,0.0,0.0,0.0,0.0,0.0,0.0,0.0,0.0,0.0,0.0,0.0,0.0,0.0,0.0,0.0,-3.3807,-3.4852,0.0,0.0,-3.3807,-3.3807,-3.3807,-3.3807,-3.3807,-3.3807,-3.3807,-3.3807,-3.3807,0.0,-3.3807,-3.3807,-3.4117,-3.4401,-3.4401,-3.4886,0.0,0.0,0.0,0.0,-3.555,0.0,-3.6993,-3.6453,-3.6826,0.0,0.0,0.0,0.0,0.0,0.0,0.0,-2.9805,-2.954,-2.9134,-2.8511,-2.7894,-2.7625,-2.7625,-2.7625,-2.7034,-2.5837,-2.5837,-2.5217,-2.3989,-2.3708,-2.3603,-2.3543,-2.3245,0.0,0.0,-2.3078,-2.3078,-2.3078,-2.3078,-2.3078,-2.3065,-2.2567,-2.2384,-2.2261,0.0,0.0,0.0,0.0,0.0,0.0,-2.1518,-2.2152,-2.309,-2.4901,-2.4887,-2.5638,-2.8025,-2.856,-2.8844,-2.9146,0.0,0.0,0.0,0.0,0.0,0.0,0.0,0.0,0.0,0.0,0.0,0.0,0.0,0.0,0.0,0.0,0.7043,-0.9699,0.0,0.0,0.0,0.0,0.0,0.0,0.0,0.0,0.0,0.0,0.0,0.0,0.0,0.0,0.0,0.0,0.0,0.0,0.0,0.0,0.0,0.0,-3.4357,-3.4156,-3.4156,-3.399,-3.3807,-3.3807,-3.3807,-3.3807,0.0,0.0,-3.3807,-3.3807,-3.4018,-3.42,-3.42,-3.4696,-3.5117,0.0,0.0,-3.5605,-3.589,-3.6516,-3.6869,0.0,0.0,0.0,0.0,0.0,0.0,0.0,0.0,0.0,-2.9451,-2.9225,-2.8873,-2.8238,-2.781,-2.7625,-2.7625,-2.7625,-2.6864,-2.5398,-2.5398,-2.461,-2.3078,-2.3078,-2.3078,-2.3078,-2.3078,0.0,0.0,-2.3078,-2.3078,-2.3078,-2.3078,-2.3078,-2.3005,-2.2199,-2.1877,-2.1753,0.0,0.0,0.0,0.0,0.0,0.0,0.0,-2.4292,-2.4567,-2.5287,-2.5887,-2.6799,-2.8136,-2.9215,-3.0527,-3.2297,0.0,0.0,0.0,0.0,0.0,0.0,0.0,0.0,0.0,0.0,0.0,0.0,0.0,0.0,0.0,0.0,0.0,0.0,0.0,0.0,0.0,0.0,0.0,0.0,0.0,0.0,0.0,0.0,0.0,0.0,0.0,0.0,0.0,0.0,0.0,0.0,0.0,0.0,0.0,0.0,-3.5661,-3.4972,-3.4972,-3.4412,-3.3807,-3.3807,-3.3807,-3.3807,0.0,-3.3807,-3.3807,-3.3807,-3.4018,-3.42,-3.42,-3.4696,-3.5105,-3.5105,0.0,0.0,-3.6584,-3.7149,0.0,0.0,0.0,0.0,0.0,0.0,0.0,0.0,0.0,0.0,-2.9451,-2.8826,-2.8238,-2.7625,-2.7625,-2.7625,-2.7625,-2.7625,-2.6864,-2.5398,-2.5398,-2.461,-2.3078,-2.3078,-2.3078,-2.3078,0.0,0.0,0.0,-2.3078,-2.3078,-2.3078,-2.3078,-2.3078,-2.3005,-2.2199,-2.1877,-2.1616,0.0,0.0,0.0,0.0,0.0,0.0,0.0,-2.4716,-2.5926,-2.6643,-2.7728,-2.892,-3.0299,-3.1032,-3.2026,-3.3537,0.0,0.0,0.0,0.0,0.0,0.0,0.0,0.0,0.0,0.0,0.0,0.0,0.0,0.0,0.0,0.0,0.0,0.0,0.0,0.0,0.0,0.0,0.0,0.0,0.0,0.0,0.0,0.0,0.0,0.0,0.0,0.0,0.0,0.0,0.0,0.0,0.0,0.0,0.0,0.0,0.0,0.0,-3.5899,-3.5697,-3.5514,-3.5514,-3.5073,-3.4633,-3.4633,-3.4192,-3.3807,-3.3807,-3.3868,-3.3986,-3.4171,-3.4532,-3.4889,-3.507,-3.5339,0.0,0.0,0.0,0.0,0.0,0.0,0.0,0.0,0.0,0.0,0.0,0.0,0.0,-2.9451,-2.8826,-2.8238,-2.7625,-2.7625,-2.7625,-2.7625,-2.71,-2.639,-2.5398,-2.4908,-2.4105,-2.3078,-2.3078,-2.3078,0.0,0.0,0.0,0.0,-2.3078,-2.3078,-2.3078,-2.2506,-2.2261,-2.2125,-2.0655,-2.0139,-1.9944,0.0,0.0,0.0,0.0,0.0,0.0,0.0,-2.5669,-2.71,-2.8122,-2.9374,-3.0559,-3.1693,-3.2632,-3.3505,-3.4364,0.0,0.0,0.0,0.0,0.0,0.0,0.0,0.0,0.0,0.0,0.0,0.0,0.0,0.0,0.0,0.0,0.0,0.0,0.0,0.0,0.0,0.0,0.0,0.0,0.0,0.0,-3.1738,0.0,0.0,0.0,0.0,0.0,0.0,0.0,0.0,0.0,0.0,0.0,0.0,0.0,-3.7377,-3.6863,0.0,-3.6523,-3.6303,-3.6303,-3.5899,0.0,-3.5495,-3.511,-3.4743,-3.4743,-3.4486,-3.4336,-3.463,-3.4936,-3.5247,-3.5508,-3.6048,0.0,0.0,0.0,0.0,0.0,0.0,0.0,0.0,0.0,0.0,0.0,0.0,0.0,-2.9406,-2.8591,-2.7993,-2.761,-2.7625,-2.7473,-2.7203,-2.6721,-2.6014,-2.4951,-2.4509,-2.3884,-2.3078,-2.3078,-2.3078,0.0,0.0,0.0,0.0,-2.2763,-2.2641,-2.2567,-2.1741,-2.1428,-2.1239,-1.9814,-1.9299,-1.9177,0.0,0.0,0.0,0.0,0.0,0.0,0.0,0.0,0.0,0.0,-3.0741,-3.1753,-3.2541,-3.3978,-3.4907,0.0,0.0,0.0,0.0,0.0,0.0,0.0,0.0,0.0,0.0,0.0,0.0,-3.9108,-4.0042,-4.0026,-3.9143,0.0,0.0,0.0,0.0,0.0,0.0,0.0,0.0,0.0,0.0,0.0,0.0,0.0,0.0,0.0,0.0,0.0,0.0,0.0,0.0,0.0,0.0,0.0,0.0,0.0,0.0,0.0,0.0,-3.7037,-3.6468,-3.6468,0.0,0.0,-3.6376,-3.634,0.0,-3.6303,-3.5661,-3.5202,-3.5553,-3.5803,-3.6081,-3.6382,-3.7309,0.0,0.0,0.0,0.0,0.0,0.0,0.0,0.0,0.0,0.0,0.0,0.0,0.0,-2.9406,-2.8271,-2.7625,-2.7625,-2.7575,-2.7188,-2.651,-2.6404,-2.5673,-2.4292,-2.4234,-2.3826,-2.3078,-2.3078,-2.3078,0.0,0.0,0.0,0.0,-2.2261,-2.1877,-2.1815,-2.0846,-2.0526,-2.0398,-1.9562,-1.9233,-1.911,0.0,0.0,0.0,0.0,0.0,0.0,0.0,0.0,0.0,0.0,0.0,-3.2618,-3.39,-3.5044,0.0,0.0,0.0,0.0,0.0,0.0,0.0,0.0,0.0,0.0,0.0,0.0,0.0,-4.0158,-4.0381,-4.0371,-4.0159,-4.04,0.0,0.0,0.0,0.0,0.0,0.0,0.0,0.0,0.0,0.0,0.0,0.0,0.0,0.0,-3.313,-3.3235,0.0,0.0,0.0,0.0,0.0,0.0,0.0,0.0,-3.7998,-3.851,-3.8438,0.0,-3.8138,-3.8138,-3.7661,-3.7202,0.0,-3.6725,-3.6303,-3.6303,0.0,-3.6131,-3.6625,-3.6764,-3.6973,-3.752,-3.7824,-3.8182,-3.8727,0.0,0.0,0.0,0.0,0.0,0.0,0.0,0.0,0.0,0.0,-2.9406,-2.9406,-2.8271,-2.7625,-2.7625,-2.7034,-2.6669,-2.651,-2.5398,-2.4624,-2.4292,-2.3649,-2.3305,-2.3078,-2.3078,-2.3078,0.0,0.0,0.0,-2.3017,-2.2261,-2.1877,-2.1753,-2.0204,-1.9628,-1.9497,-1.8664,-1.8337,-1.8269,0.0,0.0,0.0,0.0,0.0,0.0,0.0,0.0,0.0,0.0,0.0,0.0,0.0,0.0,0.0,0.0,0.0,0.0,0.0,0.0,0.0,0.0,0.0,0.0,0.0,0.0,0.0,0.0,0.0,-4.0489,0.0,0.0,0.0,0.0,0.0,0.0,0.0,0.0,0.0,0.0,-3.6427,0.0,0.0,0.0,0.0,0.0,-3.371,-3.3582,0.0,-3.48,-3.5357,-3.5654,0.0,0.0,0.0,0.0,-3.7396,-3.8016,-3.8016,-3.8368,-3.8707,-3.8707,-3.8377,-3.8046,-3.8046,0.0,0.0,0.0,0.0,-3.7008,-3.7562,-3.7544,-3.7718,-3.8469,-3.8659,0.0,0.0,0.0,0.0,0.0,0.0,0.0,0.0,0.0,0.0,0.0,0.0,-2.9271,-2.9012,-2.8091,-2.7625,-2.7625,-2.6769,-2.6242,-2.6014,-2.5121,-2.4524,-2.418,-2.3963,-2.3916,-2.3916,-2.3916,-2.3916,0.0,0.0,0.0,-2.3101,-2.1855,-2.1329,-2.1196,-1.9792,-1.914,-1.8889,-1.8429,-1.8174,-1.8037,0.0,0.0,0.0,0.0,0.0,0.0,0.0,0.0,0.0,0.0,0.0,0.0,0.0,0.0,0.0,0.0,0.0,0.0,0.0,0.0,0.0,0.0,0.0,0.0,0.0,0.0,0.0,0.0,0.0,0.0,0.0,0.0,-4.0707,0.0,0.0,0.0,0.0,0.0,0.0,0.0,-3.7746,0.0,0.0,0.0,0.0,0.0,0.0,0.0,0.0,-3.4708,-3.4835,-3.4847,-3.5407,0.0,0.0,0.0,0.0,0.0,-3.7451,-3.805,-3.8707,-3.8707,-3.8707,-3.8707,-3.8707,0.0,0.0,0.0,0.0,0.0,0.0,-3.8234,0.0,0.0,0.0,0.0,0.0,0.0,0.0,0.0,0.0,0.0,0.0,0.0,0.0,0.0,0.0,-2.9293,-2.8666,-2.8061,-2.7718,-2.7705,-2.6847,-2.607,-2.5505,-2.5209,-2.4761,-2.413,-2.4594,-2.482,-2.482,-2.482,-2.4691,-2.4536,0.0,0.0,-2.2942,-2.1296,-2.0603,-2.0532,-1.963,-1.9062,-1.874,-1.874,-1.8366,-1.7975,0.0,0.0,0.0,0.0,0.0,0.0,0.0,0.0,0.0,0.0,0.0,0.0,0.0,0.0,0.0,0.0,0.0,0.0,0.0,0.0,0.0,0.0,0.0,0.0,0.0,0.0,0.0,0.0,0.0,0.0,-4.1189,-4.1189,-4.1722,0.0,0.0,0.0,-4.1938,-4.0708,-4.0184,-4.0055,-3.8901,0.0,0.0,0.0,0.0,0.0,0.0,0.0,0.0,-3.6226,-3.6009,-3.547,-3.5577,0.0,0.0,0.0,0.0,0.0,-3.8483,-3.8596,-3.8707,-3.8707,-3.8707,-3.8707,-3.8707,0.0,0.0,0.0,0.0,0.0,0.0,-3.8947,-3.9051,0.0,0.0,0.0,0.0,0.0,0.0,0.0,0.0,0.0,0.0,0.0,0.0,0.0,0.0,-3.0053,-2.9363,-2.8758,-2.8349,-2.8192,-2.7423,-2.6644,-2.5826,-2.5165,-2.481,-2.4695,-2.4782,-2.482,-2.482,-2.482,-2.4329,-2.349,0.0,-2.2863,-2.2047,-2.1015,-2.0603,-2.0532,-1.963,-1.9248,-1.9189,-1.9189,-1.855,-1.753,0.0,0.0,0.0,0.0,0.0,0.0,0.0,0.0,0.0,0.0,0.0,0.0,0.0,0.0,0.0,0.0,0.0,0.0,0.0,0.0,0.0,0.0,0.0,0.0,0.0,0.0,0.0,0.0,0.0,-4.1339,-4.1673,-4.1673,-4.2215,-4.3202,0.0,0.0,-4.3035,-4.1669,-4.1096,-4.1016,0.0,0.0,0.0,0.0,0.0,0.0,0.0,0.0,0.0,0.0,-3.6535,-3.618,-3.5757,0.0,0.0,0.0,0.0,0.0,-3.8183,-3.8465,-3.8707,-3.8707,-3.8707,-3.8707,-3.8707,0.0,0.0,0.0,0.0,0.0,0.0,0.0,0.0,0.0,0.0,0.0,0.0,0.0,0.0,0.0,0.0,0.0,0.0,0.0,0.0,0.0,0.0,0.0,-2.9611,-2.9275,-2.8857,-2.8311,-2.7883,-2.7189,-2.6367,-2.5906,-2.5548,-2.5247,-2.5548,-2.5431,-2.4932,-2.4932,-2.4348,-2.3408,0.0,-2.233,-2.1908,-2.0977,-2.0626,-2.0551,-2.0197,-1.9834,-1.9525,-1.8767,-1.7902,-1.6927,0.0,0.0,0.0,0.0,0.0,0.0,0.0,0.0,0.0,0.0,0.0,0.0,0.0,0.0,0.0,0.0,0.0,0.0,0.0,0.0,0.0,0.0,0.0,0.0,0.0,0.0,-4.1702,-4.1912,-4.2076,-4.217,-4.2201,-4.2485,-4.297,0.0,0.0,0.0,-4.3906,-4.2567,-4.2021,-4.1895,0.0,0.0,0.0,0.0,0.0,0.0,0.0,0.0,0.0,0.0,0.0,0.0,0.0,0.0,0.0,-3.6416,-3.696,-3.747,-3.7964,-3.8382,-3.8707,-3.8707,0.0,-3.8707,-3.8707,0.0,0.0,0.0,0.0,0.0,0.0,0.0,0.0,0.0,0.0,0.0,0.0,0.0,0.0,0.0,0.0,0.0,0.0,0.0,0.0,0.0,0.0,0.0,-2.9843,-2.9625,-2.921,-2.8466,-2.8124,-2.7498,-2.6661,-2.6553,-2.6239,-2.5799,-2.6251,-2.5955,-2.5004,-2.5004,-2.4337,-2.3147,-2.2328,-2.1886,-2.1593,-2.0934,-2.0566,-2.0566,-2.0566,-2.0198,-1.9478,-1.7849,-1.6907,-1.6349,0.0,0.0,0.0,0.0,0.0,0.0,0.0,0.0,0.0,0.0,0.0,0.0,0.0,0.0,0.0,0.0,0.0,0.0,0.0,0.0,0.0,0.0,0.0,0.0,0.0,-4.1262,-4.1299,-4.1613,-4.1323,-4.1724,-4.2752,-4.3901,-4.4448,-4.4485,0.0,0.0,-4.3937,-4.3014,-4.2616,-4.2519,-4.1313,0.0,0.0,0.0,0.0,0.0,0.0,0.0,0.0,0.0,0.0,0.0,0.0,0.0,-3.6457,-3.6999,-3.747,-3.798,-3.8515,-3.8658,-3.8707,-3.8707,-3.8707,0.0,-3.8707,-3.8707,0.0,-3.8707,0.0,0.0,0.0,0.0,0.0,0.0,0.0,0.0,0.0,0.0,0.0,0.0,0.0,0.0,0.0,0.0,0.0,0.0,0.0,0.0,-3.0488,-2.9739,-2.9223,-2.8976,-2.8153,-2.7352,-2.6526,-2.6508,-2.6508,-2.6471,-2.6508,-2.5955,-2.5004,-2.5004,-2.3963,-2.2103,-2.2027,-2.1517,-2.0712,-2.0644,-2.0566,-2.0566,-2.0566,-1.9982,-1.8824,-1.6611,-1.5808,-1.5584,0.0,0.0,0.0,0.0,0.0,0.0,0.0,0.0,0.0,0.0,0.0,0.0,0.0,0.0,0.0,0.0,0.0,0.0,0.0,0.0,0.0,0.0,0.0,-4.3282,-4.2793,-4.256,-4.2571,-4.2775,-4.2629,-4.2809,-4.325,-4.3688,0.0,0.0,0.0,0.0,-4.3159,-4.2426,-4.1937,-4.149,-4.072,-4.0417,0.0,0.0,0.0,0.0,0.0,0.0,0.0,0.0,-3.8616,-3.799,0.0,0.0,-3.6732,-3.7101,-3.7323,-3.7667,-3.8483,-3.8707,-3.8707,-3.8707,-3.8707,0.0,0.0,-3.8707,-3.8762,-3.8915,-3.8807,0.0,0.0,0.0,0.0,0.0,0.0,0.0,0.0,0.0,0.0,0.0,0.0,0.0,0.0,0.0,0.0,0.0,0.0,0.0,-3.115,-3.0353,-2.9647,-2.8989,-2.8182,-2.7284,-2.6533,-2.6533,-2.6164,-2.5581,-2.5581,-2.5075,-2.4047,-2.3441,-2.2414,-2.1155,-2.1155,-2.0934,-2.0566,-1.9844,-1.9599,-1.952,-1.8789,-1.79,-1.6838,-1.6026,-1.5296,-1.4657,0.0,0.0,0.0,0.0,0.0,0.0,0.0,0.0,0.0,0.0,0.0,0.0,0.0,0.0,0.0,0.0,0.0,0.0,0.0,0.0,0.0,0.0,0.0,-4.3497,-4.3497,-4.3404,-4.3416,-4.3497,-4.3497,-4.3497,-4.3497,0.0,0.0,0.0,0.0,0.0,0.0,-4.175,-4.1268,-4.0856,-4.0336,-4.007,0.0,0.0,0.0,0.0,0.0,0.0,0.0,0.0,-3.9191,0.0,0.0,0.0,0.0,0.0,-3.7367,-3.7414,-3.8433,-3.8707,-3.8707,-3.8707,0.0,0.0,-3.8707,-3.8707,-3.8743,-3.8943,-3.8836,0.0,0.0,0.0,0.0,0.0,0.0,0.0,0.0,0.0,0.0,0.0,0.0,0.0,0.0,0.0,0.0,0.0,0.0,0.0,0.0,-3.0329,-2.9504,-2.862,-2.7736,-2.704,-2.6533,-2.6164,-2.5664,-2.5016,-2.4337,-2.3661,-2.2999,-2.2328,-2.1527,-2.0566,-2.0566,-2.0566,-2.0489,-1.9441,-1.8798,-1.839,-1.7253,-1.6355,-1.5703,-1.5296,-1.4734,-1.4088,0.0,0.0,0.0,0.0,0.0,0.0,0.0,0.0,0.0,0.0,0.0,0.0,0.0,0.0,0.0,0.0,0.0,0.0,0.0,0.0,0.0,0.0,0.0,-4.3497,-4.3497,-4.3497,-4.3497,-4.3497,-4.3497,-4.3497,-4.3497,-4.2939,0.0,0.0,0.0,0.0,0.0,0.0,-4.0903,-4.0874,-4.0336,-4.007,-4.002,0.0,0.0,0.0,0.0,0.0,0.0,0.0,-3.9597,0.0,0.0,0.0,0.0,0.0,-3.7771,-3.7414,-3.8401,-3.8707,-3.8707,0.0,0.0,0.0,-3.8707,-3.8707,-3.8707,-3.8707,0.0,0.0,0.0,0.0,0.0,0.0,0.0,0.0,0.0,0.0,0.0,0.0,0.0,0.0,0.0,0.0,0.0,0.0,0.0,0.0,0.0,-2.9442,-2.862,-2.7736,-2.6905,-2.6533,-2.6465,-2.5523,-2.5016,-2.4933,-2.2925,-2.2027,-2.2027,-2.1952,-2.1441,-2.0566,-2.0566,-2.0566,-2.0489,-1.9441,-1.831,-1.7172,-1.6108,-1.5696,-1.5538,-1.4489,-1.4088,-1.4088,0.0,0.0,0.0,0.0,0.0,0.0,0.0,0.0,0.0,0.0,0.0,0.0,0.0,0.0,0.0,0.0,0.0,0.0,0.0,0.0,0.0,0.0,0.0,0.0,0.0,0.0,-4.3497,-4.3497,-4.3497,-4.3497,0.0,0.0,0.0,-4.2711,0.0,0.0,0.0,-4.1013,-4.0703,-4.0336,-4.0171,-4.007,-4.007,0.0,0.0,0.0,0.0,0.0,0.0,0.0,0.0,0.0,0.0,0.0,0.0,-3.7854,-3.7865,-3.7996,-3.8108,-3.8415,0.0,-3.8707,0.0,0.0,0.0,-3.8836,0.0,0.0,0.0,0.0,0.0,0.0,0.0,0.0,0.0,0.0,0.0,0.0,0.0,0.0,0.0,0.0,0.0,0.0,0.0,0.0,0.0,0.0,0.0,-2.8876,-2.7986,-2.7736,-2.6905,-2.6164,-2.5441,-2.5158,-2.4264,-2.285,-2.2253,-2.2027,-2.1962,-2.1298,-2.0857,-2.0566,-2.0566,-2.0157,-1.9353,-1.7488,-1.6034,-1.4985,-1.4741,-1.4573,-1.4573,-1.425,-1.4088,-1.4088,0.0,0.0,0.0,0.0,0.0,0.0,0.0,0.0,0.0,0.0,0.0,0.0,0.0,0.0,0.0,0.0,0.0,0.0,0.0,0.0,0.0,0.0,0.0,0.0,0.0,-4.3178,-4.3069,0.0,0.0,0.0,0.0,0.0,0.0,-4.2302,0.0,-4.1276,0.0,0.0,-4.0417,-4.007,-4.007,-4.0087,-4.005,0.0,0.0,0.0,0.0,0.0,0.0,0.0,0.0,0.0,0.0,0.0,0.0,-3.8136,-3.8105,-3.8259,-3.7971,-3.83,0.0,-3.8707,-3.8707,-3.8726,-3.8817,0.0,0.0,0.0,0.0,0.0,0.0,0.0,0.0,0.0,0.0,0.0,0.0,0.0,0.0,0.0,0.0,0.0,0.0,0.0,0.0,0.0,0.0,0.0,0.0,-2.8427,-2.7537,-2.7229,-2.6782,-2.6025,-2.5004,-2.4636,-2.3599,-2.2027,-2.1593,-2.1441,-2.1441,-2.0867,-2.0566,-2.0566,-2.0167,-1.9107,-1.7568,-1.6273,-1.5054,-1.4088,-1.4088,-1.4088,-1.4088,-1.4088,-1.4088,-1.4088,0.0,0.0,0.0,0.0,0.0,0.0,0.0,0.0,0.0,0.0,0.0,0.0,0.0,0.0,0.0,0.0,0.0,0.0,0.0,0.0,0.0,0.0,0.0,0.0,0.0,0.0,0.0,0.0,0.0,0.0,0.0,0.0,-4.175,-4.1664,0.0,-4.0171,0.0,-4.007,-4.007,-4.0087,-4.0121,-4.0117,-4.0005,-3.8959,0.0,0.0,0.0,0.0,0.0,0.0,0.0,0.0,0.0,0.0,-3.9018,-3.8745,-3.8422,-3.8143,-3.799,0.0,0.0,-3.8707,-3.8707,0.0,-3.9013,0.0,0.0,0.0,0.0,0.0,0.0,0.0,0.0,0.0,0.0,0.0,0.0,0.0,0.0,0.0,0.0,0.0,0.0,0.0,0.0,0.0,0.0,0.0,0.0,-2.8051,-2.7297,-2.6521,-2.6383,-2.5873,-2.4862,-2.3891,-2.285,-2.1886,-2.1011,-2.0566,-2.0566,-2.0566,-2.0566,-2.0401,-1.9274,-1.7658,-1.5696,-1.5621,-1.4977,-1.4088,-1.4088,-1.4088,-1.4088,-1.4088,-1.4088,-1.4088,0.0,0.0,0.0,0.0,0.0,0.0,0.0,0.0,0.0,0.0,0.0,0.0,0.0,0.0,0.0,0.0,0.0,0.0,0.0,0.0,0.0,0.0,0.0,0.0,0.0,0.0,0.0,0.0,0.0,0.0,0.0,0.0,0.0,-4.1087,0.0,-4.048,-4.007,-4.007,-4.007,-4.0104,-4.0096,-4.0101,-3.9918,-3.8497,-3.7987,0.0,0.0,0.0,0.0,0.0,0.0,0.0,-3.9723,-3.9982,-3.9748,-3.9084,-3.8168,-3.748,-3.8051,-3.8133,0.0,0.0,-3.8707,-3.8726,-3.8762,0.0,0.0,0.0,0.0,0.0,0.0,0.0,0.0,0.0,0.0,0.0,0.0,0.0,0.0,0.0,0.0,0.0,0.0,0.0,0.0,0.0,0.0,0.0,-2.8051,-2.7229,-2.6658,-2.6533,-2.5734,-2.485,-2.3818,-2.285,-2.1811,0.0,-2.0712,-2.0566,-2.0566,-2.0566,-2.0157,-1.9283,-1.8149,-1.6927,-1.5613,-1.481,-1.4334,-1.4088,-1.4088,-1.4088,-1.4088,-1.4088,-1.4088,-1.4088,0.0,0.0,0.0,0.0,0.0,0.0,0.0,0.0,0.0,0.0,0.0,0.0,0.0,0.0,0.0,0.0,0.0,0.0,0.0,0.0,0.0,0.0,0.0,0.0,0.0,0.0,0.0,0.0,0.0,0.0,0.0,0.0,0.0,-4.0903,0.0,-4.0368,-4.007,-4.007,-4.0104,-4.0098,-4.0101,-3.9643,-3.9015,-3.8916,-3.7962,-3.6689,-3.6689,0.0,0.0,0.0,0.0,0.0,0.0,0.0,-3.988,-3.8772,-3.8461,-3.8449,-3.8034,0.0,0.0,-3.8638,0.0,0.0,0.0,0.0,0.0,0.0,0.0,0.0,0.0,0.0,0.0,0.0,0.0,0.0,0.0,0.0,0.0,0.0,0.0,0.0,0.0,0.0,0.0,0.0,0.0,-2.8182,-2.7736,-2.6905,-2.6533,-2.6533,-2.5511,-2.4492,-2.3514,-2.2478,-2.1517,-2.0566,-2.0566,-2.0323,-1.9835,-1.9835,-1.9195,-1.8149,-1.7009,-1.5951,-1.4894,-1.4328,-1.4088,-1.4088,-1.4088,-1.4088,-1.4088,-1.4088,-1.373,-1.3203,0.0,0.0,0.0,0.0,0.0,0.0,0.0,0.0,0.0,0.0,0.0,0.0,0.0,0.0,0.0,0.0,0.0,0.0,0.0,0.0,0.0,0.0,0.0,0.0,0.0,0.0,0.0,0.0,0.0,0.0,0.0,0.0,0.0,-4.0733,0.0,-4.002,-3.9901,-3.9868,-3.9962,-4.0029,-3.9528,-3.8569,-3.7524,-3.8823,-3.7731,-3.5504,-3.5504,-3.5504,-3.5494,-3.5488,0.0,0.0,0.0,0.0,-3.9117,-3.8274,-3.8724,-3.933,-3.8036,0.0,-3.8635,-3.8482,-3.8433,0.0,0.0,0.0,0.0,0.0,0.0,0.0,0.0,0.0,0.0,0.0,0.0,0.0,0.0,0.0,0.0,0.0,0.0,0.0,0.0,0.0,0.0,0.0,0.0,-2.767,-2.7484,-2.6701,-2.6245,-2.6245,-2.5075,-2.4108,-2.322,-2.2264,-2.1375,-2.0566,-2.0401,-1.9766,-1.8718,-1.855,-1.79,-1.7009,-1.6108,-1.5054,-1.4088,-1.4088,-1.4088,-1.4088,-1.4088,-1.4088,-1.4088,-1.4088,-1.3379,-1.2328,0.0,0.0,0.0,0.0,0.0,0.0,0.0,0.0,0.0,0.0,0.0,0.0,0.0,0.0,0.0,0.0,0.0,0.0,-4.3488,0.0,0.0,-4.3036,-4.2412,0.0,0.0,0.0,0.0,0.0,0.0,0.0,0.0,0.0,0.0,-4.0204,0.0,0.0,-3.9069,-3.8884,-3.9276,-3.9854,-3.7203,-3.5967,-3.5845,-3.6034,-3.5849,-3.5504,-3.5504,-3.5504,-3.5489,-3.5479,-3.5484,0.0,0.0,0.0,-3.6435,-3.8221,-3.8146,-3.7649,0.0,0.0,-3.741,0.0,-3.7414,-3.7524,0.0,0.0,0.0,0.0,0.0,0.0,0.0,0.0,0.0,0.0,0.0,0.0,0.0,0.0,0.0,0.0,0.0,0.0,0.0,0.0,0.0,0.0,-2.7868,-2.7417,-2.6714,-2.5721,-2.5229,-2.5229,-2.3368,-2.2328,-2.2178,-2.1221,-2.0712,-2.0566,-1.9678,-1.863,-1.7504,-1.6593,-1.6026,-1.5944,-1.5779,-1.5054,-1.4088,-1.4088,-1.4088,-1.4088,-1.4088,-1.4088,-1.4088,-1.4088,-1.3379,-1.2328,0.0,0.0,0.0,0.0,0.0,0.0,0.0,0.0,0.0,0.0,0.0,0.0,0.0,0.0,0.0,-4.3597,-4.352,-4.4288,-4.6073,-4.4884,-4.412,-4.415,-4.3767,-4.3065,0.0,0.0,0.0,0.0,0.0,0.0,0.0,-3.9662,-3.9662,0.0,0.0,0.0,0.0,0.0,-3.7985,-3.8169,-3.6244,-3.5491,-3.5495,-3.5479,-3.5504,-3.5504,-3.5504,-3.5504,-3.5504,-3.5504,-3.5504,-3.5549,-3.6014,0.0,0.0,0.0,-3.7746,0.0,-3.8482,-3.7711,-3.6843,0.0,-3.719,-3.7248,0.0,0.0,0.0,0.0,0.0,0.0,0.0,0.0,0.0,0.0,0.0,0.0,0.0,0.0,0.0,0.0,0.0,0.0,0.0,0.0,0.0,0.0,-2.6786,-2.6045,-2.5664,-2.4707,-2.4192,-2.4192,-2.2776,-2.2027,-2.2027,-2.044,-1.9353,-1.8789,-1.831,-1.7496,-1.6355,-1.5944,-1.5696,-1.5703,-1.5054,-1.4573,-1.4088,-1.4088,-1.4088,-1.4088,-1.4088,-1.4088,-1.3997,-1.3379,-1.2334,-1.13,0.0,0.0,0.0,0.0,0.0,0.0,0.0,0.0,0.0,0.0,0.0,0.0,0.0,0.0,0.0,0.0,-4.474,-4.5473,-4.7257,-4.5605,-4.4585,-4.4594,-4.4611,-4.4061,-4.2932,0.0,0.0,0.0,0.0,0.0,-3.9773,-3.8952,-3.8924,0.0,-3.887,0.0,0.0,0.0,0.0,-3.6538,-3.5829,-3.5513,-3.5504,-3.5504,-3.5504,-3.5504,-3.5504,-3.5504,-3.5504,-3.5504,-3.5504,-3.5504,-3.5504,-3.5504,0.0,0.0,0.0,0.0,0.0,0.0,-3.6028,-3.6452,-3.6689,-3.6825,0.0,0.0,0.0,0.0,0.0,0.0,0.0,0.0,0.0,0.0,0.0,0.0,0.0,0.0,0.0,0.0,0.0,0.0,0.0,0.0,0.0,0.0,-2.5755,-2.4862,-2.4636,-2.3672,-2.3147,-2.3147,-2.2178,-2.1507,-2.1268,-1.9483,-1.798,-1.6927,-1.6927,-1.6355,-1.5296,-1.5296,-1.5296,-1.522,-1.4412,-1.4088,-1.4088,-1.3737,-1.3646,-1.3646,-1.33,-1.3215,-1.3124,-1.2163,-1.1123,-1.0009,0.0,0.0,0.0,0.0,0.0,0.0,0.0,0.0,0.0,0.0,0.0,0.0,0.0,-4.8133,-4.8127,-4.8061,-4.8037,-4.7132,-4.4941,-4.4657,-4.4629,-4.4597,-4.4614,0.0,-4.4451,-4.3741,0.0,0.0,0.0,0.0,-3.8841,-3.8184,-3.7863,-3.7937,-3.7879,-3.744,-3.6722,0.0,0.0,0.0,0.0,-3.5474,0.0,0.0,-3.5504,0.0,0.0,-3.5504,-3.5504,-3.5504,-3.5504,-3.5504,-3.5504,-3.5504,-3.5619,0.0,0.0,0.0,0.0,-3.5277,0.0,-3.4719,0.0,0.0,0.0,0.0,0.0,0.0,0.0,0.0,0.0,0.0,0.0,0.0,0.0,0.0,0.0,0.0,0.0,0.0,0.0,0.0,0.0,0.0,0.0,0.0,-2.5075,-2.4564,-2.3661,-2.2627,-2.2103,-2.2103,-2.1155,-2.0157,-1.9195,-1.798,-1.6846,-1.5779,-1.5779,-1.522,-1.4166,-1.4166,-1.4166,-1.4166,-1.4088,-1.4088,-1.3997,-1.2851,-1.2413,-1.2328,-1.1214,-1.0783,-1.0783,-1.0697,-1.0009,-0.8978,0.0,0.0,0.0,0.0,0.0,0.0,0.0,0.0,0.0,0.0,0.0,0.0,0.0,-4.6882,-4.5945,-4.5946,-4.738,-4.7251,-4.4766,-4.4602,-4.4589,-4.4626,-4.4587,-4.4587,-4.4587,-4.3796,0.0,0.0,0.0,-3.9591,-3.8786,-3.7594,-3.7024,-3.7024,-3.7024,-3.6843,-3.6554,-3.6117,0.0,0.0,0.0,0.0,0.0,0.0,0.0,0.0,0.0,0.0,0.0,-3.4747,-3.4996,-3.5379,-3.4732,-3.5011,-3.5604,-3.6384,0.0,0.0,0.0,0.0,0.0,-3.405,-3.4431,-3.5035,0.0,0.0,0.0,0.0,0.0,0.0,0.0,0.0,0.0,0.0,0.0,0.0,0.0,0.0,0.0,0.0,0.0,0.0,0.0,0.0,0.0,0.0,0.0,-2.2925,-2.2553,-2.1593,-2.1078,-2.1078,-2.0148,-1.8709,-1.6919,-1.6519,-1.5703,-1.465,-1.465,-1.4489,-1.4088,-1.4088,-1.4088,-1.4088,-1.4088,-1.4088,-1.3997,-1.2766,-1.2328,-1.2151,-1.1042,-1.0611,-1.0524,-0.9749,-0.9235,-0.8803,0.0,0.0,0.0,0.0,0.0,0.0,0.0,0.0,0.0,0.0,0.0,0.0,0.0,0.0,-4.5045,-4.464,-4.6119,-4.6343,-4.4736,-4.458,-4.4587,-4.4587,-4.4587,-4.444,-4.4196,-4.3372,0.0,0.0,0.0,0.0,0.0,-3.7109,-3.6442,-3.6228,-3.6228,-3.6228,0.0,0.0,0.0,-3.5504,0.0,0.0,-3.5504,0.0,0.0,0.0,0.0,0.0,0.0,0.0,-3.4008,-3.4485,-3.4127,0.0,0.0,0.0,0.0,0.0,-3.5003,0.0,0.0,0.0,0.0,-3.4333,-3.4528,0.0,0.0,0.0,0.0,0.0,0.0,0.0,0.0,0.0,0.0,0.0,0.0,0.0,0.0,0.0,0.0,0.0,0.0,0.0,0.0,0.0,0.0,0.0,-2.1517,-2.0934,-2.0401,-2.0079,-1.8621,-1.7163,-1.5696,-1.5379,-1.4817,-1.4088,-1.4088,-1.4088,-1.4088,-1.4088,-1.4088,-1.4088,-1.4088,-1.4088,-1.3997,-1.2419,-1.1724,-1.1552,-1.0,-0.9396,-0.9314,-0.8536,-0.8277,-0.8189,0.0,0.0,0.0,0.0,0.0,0.0,0.0,0.0,0.0,0.0,0.0,0.0,0.0,0.0,0.0,-4.4699,-4.4613,-4.4613,-4.4613,-4.4596,-4.4587,-4.4587,-4.4587,-4.4196,-4.3306,-4.2581,-4.173,0.0,0.0,0.0,0.0,0.0,-3.6133,-3.5504,-3.5504,-3.5504,-3.5504,0.0,-3.5504,-3.5504,0.0,-3.5519,-3.5519,0.0,0.0,0.0,-3.4286,-3.3929,0.0,-3.2869,0.0,0.0,0.0,0.0,0.0,0.0,0.0,0.0,0.0,0.0,0.0,0.0,0.0,0.0,-3.4382,0.0,0.0,0.0,0.0,0.0,0.0,0.0,0.0,0.0,0.0,0.0,0.0,0.0,0.0,0.0,0.0,0.0,0.0,0.0,0.0,0.0,-2.2553,-2.1593,-2.0644,-2.0566,-2.0079,-1.8957,-1.6838,-1.5696,-1.5613,-1.4657,-1.4088,-1.4088,-1.4088,-1.4088,-1.4088,-1.4088,-1.4082,-1.4082,-1.3997,-1.4004,-1.3822,-1.1563,-1.0611,-1.0351,-0.8009,-0.7139,-0.7139,-0.7139,-0.7139,-0.7139,0.0,0.0,0.0,0.0,0.0,0.0,0.0,0.0,0.0,0.0,0.0,0.0,0.0,0.0,0.0,-4.461,-4.4627,-4.4627,-4.4627,-4.4597,-4.4587,-4.4587,-4.4006,-4.3562,-4.3306,-4.1869,-4.1009,0.0,0.0,0.0,0.0,0.0,0.0,0.0,-3.5504,-3.5504,-3.5504,-3.5504,0.0,0.0,-3.5504,-3.5517,0.0,0.0,0.0,0.0,0.0,-3.2596,-3.2867,0.0,-3.2031,-3.276,0.0,0.0,0.0,0.0,0.0,0.0,-3.3597,0.0,0.0,0.0,0.0,0.0,0.0,0.0,0.0,0.0,0.0,0.0,0.0,0.0,0.0,0.0,0.0,0.0,0.0,0.0,0.0,0.0,0.0,0.0,0.0,0.0,0.0,0.0,-2.1517,-2.0857,-2.0644,-1.9844,-1.8957,-1.7827,-1.6437,-1.5296,-1.4573,-1.425,-1.4088,-1.4088,-1.4088,-1.4088,-1.4088,-1.3203,-1.2766,-1.2766,-1.1906,-1.1563,-1.1563,-1.0869,-1.0091,-0.9235,-0.7665,-0.7139,-0.7139,-0.7139,-0.7139,-0.7139,0.0,0.0,0.0,0.0,0.0,0.0,0.0,0.0,0.0,0.0,0.0,0.0,0.0,0.0,0.0,-4.4609,-4.4587,-4.4587,-4.4587,-4.4587,-4.4457,-4.4064,-4.3562,-4.297,-4.2252,-4.0931,-4.0208,-4.0185,0.0,0.0,0.0,0.0,0.0,0.0,0.0,0.0,0.0,0.0,0.0,0.0,-3.5517,0.0,0.0,-3.1279,-3.0459,0.0,0.0,0.0,-3.2396,-3.1022,-3.1255,0.0,0.0,0.0,0.0,0.0,0.0,0.0,0.0,0.0,0.0,0.0,0.0,0.0,-3.2351,-3.2633,-3.2625,0.0,0.0,0.0,0.0,0.0,0.0,0.0,0.0,0.0,0.0,0.0,0.0,0.0,0.0,0.0,0.0,-2.2925,-2.2027,-2.2027,-2.1155,-2.0401,-1.9923,-1.8461,-1.7334,-1.6683,-1.5628,-1.4734,-1.4088,-1.4088,-1.4088,-1.4088,-1.4088,-1.4088,-1.4088,-1.3379,-1.2766,-1.2242,-1.1638,-1.0783,-0.9923,-0.9923,-0.9492,-0.8803,-0.7577,-0.7139,-0.7139,-0.7139,-0.7139,-0.7139,0.0,0.0,0.0,0.0,0.0,0.0,0.0,0.0,0.0,0.0,0.0,0.0,0.0,0.0,0.0,0.0,-4.4587,-4.4587,-4.4587,-4.4514,-4.4138,-4.3306,-4.3108,-4.2252,-4.0743,-4.0034,-3.9589,-3.9424,0.0,0.0,0.0,0.0,0.0,0.0,0.0,0.0,0.0,0.0,0.0,-3.5493,-3.5495,-3.5215,0.0,0.0,-2.9829,-2.9876,-3.0738,-3.1565,-3.1993,-3.0341,-3.0329,0.0,0.0,0.0,0.0,0.0,-3.3171,0.0,0.0,0.0,0.0,0.0,0.0,0.0,-3.169,-3.1588,-3.1026,0.0,0.0,0.0,0.0,0.0,0.0,0.0,0.0,0.0,0.0,0.0,0.0,0.0,0.0,0.0,-2.3441,-2.2403,-2.1811,-2.1811,-2.0924,-1.9923,-1.8877,-1.6838,-1.5696,-1.5696,-1.465,-1.4088,-1.4088,-1.3997,-1.3906,-1.3906,-1.3737,-1.3737,-1.3737,-1.3568,-1.2948,-1.1895,-1.1809,-1.0605,-0.8715,-0.8715,-0.8715,-0.8627,-0.7492,-0.7139,-0.7139,-0.7139,-0.7139,-0.7139,-4.1965,0.0,0.0,0.0,0.0,0.0,0.0,0.0,0.0,0.0,0.0,0.0,0.0,0.0,0.0,0.0,-4.4587,-4.4587,-4.4587,-4.3931,-4.3502,-4.3306,-4.1933,-4.108,-4.069,-3.9853,-3.9418,-3.9424,0.0,0.0,0.0,0.0,0.0,0.0,0.0,0.0,0.0,0.0,0.0,-3.5472,-3.5492,0.0,-3.0831,-3.0069,-2.9813,-2.9847,-3.0049,-3.0188,-3.0303,-2.9919,-2.9919,-3.02,0.0,0.0,0.0,-3.2393,0.0,0.0,0.0,0.0,0.0,0.0,0.0,0.0,-2.96,-2.9586,-2.9462,0.0,-2.9462,0.0,0.0,0.0,0.0,0.0,0.0,0.0,0.0,0.0,0.0,0.0,0.0,0.0,-2.2328,-2.1451,-2.0857,-2.0857,-1.9913,-1.8798,-1.7666,-1.6437,-1.5696,-1.5696,-1.465,-1.4088,-1.4088,-1.3118,-1.2674,-1.2681,-1.1735,-1.13,-1.1214,-1.0356,-0.9753,-0.9492,-0.8532,-0.7834,-0.7489,-0.7489,-0.7489,-0.7404,-0.7228,-0.7139,-0.7139,-0.7139,-0.7139,-0.7139,-4.2709,0.0,0.0,0.0,0.0,0.0,0.0,0.0,0.0,0.0,0.0,0.0,0.0,0.0,0.0,0.0,0.0,0.0,0.0,0.0,-4.3108,-4.2645,-4.1412,-4.05,-4.0045,-3.961,-3.9424,-3.9424,0.0,0.0,0.0,0.0,0.0,0.0,0.0,0.0,0.0,0.0,-3.5516,-3.5473,-3.5473,0.0,-2.9783,-2.9809,-2.9833,-2.9792,-2.9792,-2.9792,-2.9894,-3.0329,-3.0188,0.0,0.0,-3.0188,-3.0075,0.0,-3.1267,-3.0524,0.0,0.0,0.0,-2.9049,0.0,0.0,0.0,-2.8684,-2.8363,-2.8363,-2.8363,-2.8247,-2.7868,0.0,0.0,0.0,0.0,0.0,0.0,0.0,0.0,0.0,0.0,0.0,-2.1375,-2.0857,-2.0401,-1.9844,-1.8301,-1.7082,-1.6519,-1.5462,-1.4629,-1.4008,-1.3444,-1.2948,-1.2345,-1.1729,-1.1466,-1.1466,-1.0869,-1.0611,-1.0611,-1.0009,-0.9405,-0.889,-0.8277,-0.7665,-0.7139,-0.7139,-0.7139,-0.7139,-0.7139,-0.7139,-0.7139,-0.7139,-0.7139,-0.7139,-4.3301,0.0,0.0,0.0,0.0,0.0,0.0,0.0,0.0,0.0,0.0,0.0,0.0,0.0,0.0,0.0,0.0,0.0,0.0,0.0,0.0,-4.1804,-4.0894,-4.0115,-3.9424,-3.9424,-3.9424,-3.9424,0.0,0.0,0.0,0.0,0.0,0.0,0.0,0.0,0.0,0.0,0.0,-3.4384,0.0,-3.2523,-2.9809,-2.9808,-2.9792,-2.9792,-2.9792,-2.9792,-2.9919,-3.0701,-3.0444,-2.9792,-2.9792,-2.9792,0.0,0.0,0.0,0.0,0.0,0.0,0.0,0.0,0.0,-2.685,0.0,0.0,0.0,-2.7484,-2.7484,0.0,0.0,0.0,0.0,0.0,0.0,0.0,0.0,0.0,0.0,0.0,0.0,0.0,-2.0401,-2.0323,-1.9844,-1.8709,-1.6838,-1.553,-1.5108,-1.4216,-1.3209,-1.1986,-1.1986,-1.1552,-1.0611,-1.0351,-1.0269,-1.0269,-1.0005,-0.9918,-0.9918,-0.9918,-0.9401,-0.854,-0.854,-0.8017,-0.7139,-0.7139,-0.7139,-0.7139,-0.7139,-0.7139,-0.7139,-0.7139,-0.7139,-0.7139,-4.3403,-4.4045,0.0,0.0,0.0,0.0,0.0,0.0,0.0,0.0,0.0,0.0,0.0,0.0,0.0,0.0,0.0,0.0,-4.3426,0.0,0.0,0.0,-3.999,-3.9481,-3.9424,-3.9424,-3.9424,-3.9424,0.0,0.0,0.0,0.0,0.0,0.0,-3.25,0.0,0.0,0.0,-3.0441,0.0,-3.044,-3.021,0.0,-2.9834,-2.9792,-2.9792,-2.9792,-2.9792,-2.9804,0.0,-2.9907,-2.9792,0.0,-2.9792,-2.9792,-2.9934,0.0,0.0,0.0,0.0,0.0,0.0,-2.6658,0.0,0.0,0.0,-2.6658,-2.6658,0.0,0.0,0.0,0.0,0.0,0.0,0.0,0.0,-2.1786,-2.2073,0.0,-2.0748,-2.0663,0.0,0.0,-1.9195,-1.8709,-1.7585,-1.6355,-1.4851,-1.2747,-1.2583,-1.1986,-1.0869,-1.0778,-1.0697,-1.0611,-0.9579,-0.9061,-0.9065,-0.8013,-0.7489,-0.7489,-0.7489,-0.7401,-0.7316,-0.7316,-0.7228,-0.7139,-0.7139,-0.7139,-0.7139,-0.7139,-0.7139,-0.7139,-0.7139,-0.7139,-0.7139,-4.4096,-4.435,0.0,0.0,0.0,0.0,0.0,0.0,0.0,0.0,0.0,0.0,0.0,0.0,0.0,0.0,0.0,-4.3108,0.0,0.0,0.0,0.0,0.0,0.0,-3.9424,-3.9424,-3.9104,-3.8472,-3.7994,0.0,0.0,0.0,0.0,0.0,-3.2882,0.0,-3.2199,0.0,-3.1857,0.0,0.0,0.0,0.0,-3.1016,-3.0784,-2.9792,-2.9792,-2.9792,-2.9792,0.0,-2.9792,0.0,0.0,0.0,0.0,0.0,0.0,0.0,0.0,0.0,0.0,0.0,0.0,0.0,-2.6533,0.0,-2.6533,0.0,0.0,0.0,0.0,0.0,0.0,0.0,-2.2349,0.0,0.0,0.0,-2.0827,0.0,0.0,0.0,0.0,0.0,0.0,0.0,-1.5387,-1.4041,-1.2413,-1.2328,-1.1466,-0.9666,-0.9579,-0.9314,-0.8619,-0.8101,-0.7841,-0.7841,-0.7316,-0.7139,-0.7139,-0.7139,-0.7139,-0.7139,-0.7139,-0.7139,-0.7139,-0.7139,-0.7139,-0.7139,-0.7139,-0.7139,-0.7139,-0.7139,-0.7139,-0.7139,-4.4253,0.0,0.0,0.0,0.0,0.0,0.0,0.0,0.0,0.0,0.0,0.0,-4.4587,-4.4587,0.0,0.0,-4.3108,-4.2583,0.0,0.0,-4.0363,0.0,0.0,0.0,0.0,0.0,-3.8546,-3.7829,0.0,0.0,0.0,0.0,0.0,0.0,0.0,-3.2605,-3.0858,0.0,0.0,-2.9808,-2.9808,-2.9794,-2.9943,-3.1339,-3.0982,-2.9792,-2.9792,-2.9792,-2.9792,-2.9792,-2.9792,0.0,-2.9792,0.0,0.0,0.0,0.0,0.0,-2.836,0.0,0.0,0.0,0.0,0.0,0.0,0.0,0.0,0.0,0.0,0.0,0.0,0.0,0.0,0.0,0.0,-2.0527,0.0,0.0,0.0,0.0,0.0,0.0,0.0,0.0,0.0,-1.5696,-1.4734,-1.3561,-1.2328,-1.198,-1.095,-0.8978,-0.854,-0.8013,-0.7139,-0.7139,-0.7139,-0.7139,-0.7139,-0.7139,-0.7139,-0.7139,-0.7139,-0.7139,-0.7139,-0.7139,-0.7139,-0.7139,-0.7139,-0.7139,-0.7139,-0.7139,-0.7139,-0.7139,-0.7139,-0.7139,-4.3366,-4.4006,0.0,0.0,0.0,0.0,0.0,0.0,0.0,0.0,0.0,0.0,0.0,0.0,0.0,0.0,0.0,-4.1658,-4.0811,0.0,-3.9409,0.0,0.0,-3.9424,0.0,0.0,0.0,0.0,0.0,0.0,0.0,0.0,0.0,0.0,0.0,-3.3118,-3.287,-3.0858,-2.9919,-2.9802,-2.9808,-2.9767,-2.982,0.0,-2.9883,-2.9792,-2.9792,0.0,0.0,-2.9792,-2.9792,0.0,0.0,0.0,0.0,0.0,0.0,0.0,0.0,0.0,0.0,-2.6672,0.0,0.0,0.0,0.0,-2.6233,0.0,0.0,0.0,0.0,0.0,0.0,0.0,0.0,0.0,0.0,0.0,0.0,0.0,0.0,0.0,0.0,-1.6355,-1.5696,-1.5696,-1.4734,-1.3561,-1.2328,-1.1209,-1.0096,-0.8978,-0.7753,-0.7139,-0.7139,-0.7139,-0.7139,-0.7139,-0.7139,-0.7139,-0.7139,-0.7139,-0.7139,-0.7139,-0.7139,-0.7139,-0.7139,-0.7139,-0.7139,-0.7139,-0.7139,-0.7139,-0.7139,-0.7139,-0.7139,-0.7139,0.0,0.0,0.0,0.0,0.0,0.0,0.0,-4.4587,0.0,0.0,0.0,0.0,0.0,-4.3756,-4.3169,0.0,0.0,-4.0758,-3.9935,-3.9538,0.0,0.0,0.0,-3.9424,0.0,0.0,0.0,0.0,0.0,0.0,0.0,0.0,0.0,0.0,0.0,-3.3065,0.0,0.0,0.0,0.0,0.0,-2.9792,-2.9831,0.0,0.0,-2.9792,-2.9792,-2.9792,0.0,-2.9792,-2.9792,-2.9792,-2.9792,-2.9792,-2.9716,-2.934,-2.9089,0.0,0.0,0.0,-2.7155,-2.6603,0.0,0.0,0.0,0.0,0.0,0.0,0.0,0.0,0.0,0.0,0.0,0.0,0.0,0.0,0.0,0.0,0.0,0.0,0.0,0.0,0.0,0.0,0.0,-1.4657,-1.4334,-1.3561,-1.2328,-1.1209,-1.0096,-0.8978,-0.7753,-0.7139,-0.7139,-0.7139,-0.7139,-0.7139,-0.7139,-0.7139,-0.7139,-0.7139,-0.7139,-0.7139,-0.7139,-0.7139,-0.7139,-0.7139,-0.7139,-0.7139,-0.7139,-0.7139,-0.7139,-0.7139,-0.7139,-0.7139,-4.1543,0.0,0.0,0.0,0.0,0.0,0.0,0.0,0.0,0.0,-4.368,0.0,-4.2909,0.0,-4.2252,0.0,-4.069,-4.0309,-3.9481,-3.9424,0.0,-3.9424,-3.9017,0.0,0.0,0.0,0.0,0.0,0.0,-3.3797,0.0,0.0,0.0,0.0,0.0,-3.3104,-3.2933,0.0,-2.9799,0.0,0.0,-2.9792,0.0,0.0,-2.9792,-2.9792,0.0,-2.9792,-2.9792,-2.9792,-2.9792,-2.9792,-2.9792,-2.9792,-2.9679,-2.9101,-2.8787,-2.8436,-2.7532,-2.7143,0.0,-2.6622,-2.6533,0.0,-2.6533,0.0,0.0,0.0,0.0,0.0,0.0,0.0,0.0,0.0,0.0,0.0,0.0,-1.7172,0.0,0.0,0.0,0.0,0.0,0.0,-1.4088,-1.4088,-1.4088,-1.3737,0.0,0.0,-1.0265,-0.9492,-0.7925,-0.7139,-0.7139,-0.7139,-0.7139,-0.7139,-0.7139,-0.7139,-0.7139,-0.7139,-0.7139,-0.7139,-0.7139,-0.7139,-0.7139,-0.7139,-0.7139,-0.7139,-0.7139,-0.7139,-0.7139,-0.7139,-0.7139,-0.7139,0.0,0.0,0.0,0.0,-4.1933,0.0,0.0,0.0,-4.1997,0.0,-4.1997,-4.1997,-4.1933,-4.1933,-4.1609,-4.069,-4.0622,-4.0309,-3.9481,-3.9424,0.0,0.0,-3.8308,-3.7753,-3.7753,0.0,0.0,0.0,0.0,0.0,0.0,0.0,0.0,0.0,-3.3081,0.0,-3.2946,-3.0716,-2.9813,-2.9792,-2.9792,-2.9792,-2.9792,-2.9792,-2.9792,-2.9792,-2.9792,-2.9792,-2.9792,-2.9792,-2.9792,-2.9792,-2.9792,-2.9779,-2.9641,-2.9063,-2.8499,-2.7946,-2.7394,-2.6866,-2.6533,-2.6533,0.0,0.0,0.0,0.0,-2.5791,0.0,0.0,0.0,0.0,0.0,0.0,0.0,0.0,0.0,0.0,0.0,0.0,0.0,0.0,0.0,0.0,-1.4088,-1.4088,-1.4088,-1.3997,-1.3997,0.0,0.0,-1.0611,-1.0611,-0.8356,-0.7139,-0.7139,-0.7139,-0.7139,-0.7139,-0.7139,-0.7139,-0.7139,-0.7139,-0.7139,-0.7139,-0.7139,-0.7139,-0.7139,-0.7139,-0.7139,-0.7139,-0.7139,-0.7139,-0.7139,-0.7139,-0.7139,-0.7139,-3.9737,-3.9935,-4.006,0.0,-4.1162,-4.1997,0.0,0.0,0.0,0.0,-4.1997,-4.1723,-4.108,-4.1013,-4.069,-3.9793,-3.9737,0.0,0.0,0.0,0.0,-3.8234,-3.7919,-3.742,-3.6604,-3.5373,0.0,-3.4664,0.0,0.0,-3.3081,0.0,0.0,0.0,0.0,0.0,-3.2946,-3.0716,-2.9813,-2.9792,-2.9792,-2.9792,0.0,0.0,-2.9792,-2.9792,-2.9792,-2.9792,-2.9792,-2.9792,-2.9792,-2.9792,-2.9792,-2.9503,-2.9038,-2.8486,-2.7921,-2.7369,-2.6816,-2.6634,-2.6533,-2.6533,-2.5955,-2.537,0.0,0.0,0.0,0.0,0.0,0.0,0.0,0.0,0.0,0.0,0.0,0.0,0.0,0.0,0.0,-1.4173,0.0,0.0,-1.4088,-1.4088,-1.4088,-1.4088,-1.3288,0.0,0.0,0.0,0.0,-1.0611,-0.9231,-0.8017,-0.7139,-0.7139,-0.7139,-0.7139,-0.7139,-0.7139,-0.7139,-0.7139,-0.7139,-0.7139,-0.7139,-0.7139,-0.7139,-0.7139,-0.7139,-0.7139,-0.7139,-0.7139,-0.7139,-0.7139,-0.7139,-0.7139,-3.9424,0.0,0.0,-3.9424,0.0,0.0,-4.0842,0.0,0.0,-4.0842,-4.0842,0.0,-4.0185,-4.0115,-3.992,-3.9409,-3.9424,0.0,-3.9424,0.0,0.0,-3.7829,-3.7343,-3.6618,-3.5588,-3.4498,0.0,-3.4037,0.0,0.0,-3.3081,0.0,0.0,0.0,0.0,-3.3084,-3.2933,-3.0741,-2.9804,-2.9792,-2.9792,0.0,0.0,-2.9792,-2.9792,-2.9792,-2.9792,-2.9792,-2.9792,-2.9792,-2.9792,-2.9792,-2.9792,-2.9402,-2.8825,-2.8273,-2.772,-2.7155,-2.6684,-2.6176,-2.5873,-2.5873,-2.5075,-2.4337,-2.4337,-2.3891,-2.322,0.0,0.0,0.0,0.0,0.0,0.0,0.0,0.0,0.0,0.0,0.0,0.0,0.0,-1.4088,-1.4088,-1.4088,-1.4088,-1.4088,-1.4088,-1.347,0.0,0.0,0.0,0.0,-1.0611,-0.8969,-0.7753,-0.7139,-0.7139,-0.7139,-0.7139,-0.7139,-0.7139,-0.7139,-0.7139,-0.7139,-0.7139,-0.7665,-0.7577,-0.7139,-0.7665,-0.7577,-0.7139,-0.7139,-0.7139,-0.7139,-0.7139,-0.7139,-0.7139,0.0,0.0,0.0,0.0,0.0,0.0,0.0,-3.9424,0.0,-3.9424,0.0,-3.9424,-3.9424,-3.9424,-3.9424,-3.9424,0.0,-3.9424,-3.9424,-3.9265,-3.8694,-3.7663,-3.654,-3.5507,-3.4511,-3.3556,-3.3081,0.0,0.0,0.0,0.0,0.0,0.0,0.0,0.0,0.0,0.0,-3.0618,-2.9792,-2.9792,-2.9792,-2.9792,-2.9792,-2.9792,-2.9792,-2.9792,-2.9792,-2.9792,-2.9792,-2.9792,-2.9792,-2.9779,-2.9704,-2.9289,-2.8712,-2.816,-2.7607,-2.7067,-2.6452,-2.5664,-2.4933,-2.4862,-2.4047,-2.3294,-2.3294,-2.322,-2.285,-2.2038,-2.1811,-2.1593,0.0,0.0,0.0,0.0,0.0,0.0,0.0,0.0,0.0,0.0,0.0,0.0,-1.4088,-1.4088,-1.4088,-1.4088,0.0,0.0,0.0,0.0,0.0,-1.0778,-0.8703,-0.7573,-0.7573,0.0,-0.7139,-0.7316,-0.7316,-0.7316,-0.7316,-0.7489,-0.7489,-0.7401,-0.8452,-0.8189,-0.7139,-0.8189,-0.8017,-0.7139,-0.7139,-0.7139,-0.7139,-0.7139,-0.7139,-0.7139,0.0,0.0,0.0,0.0,0.0,-3.9424,-3.9424,-3.9424,-3.9424,-3.9424,-3.9424,-3.9424,-3.9424,-3.9424,-3.9424,-3.9424,-3.9424,0.0,0.0,0.0,0.0,-3.6526,-3.5521,-3.4511,-3.3398,-3.324,-3.3081,0.0,0.0,0.0,0.0,0.0,0.0,0.0,0.0,0.0,-3.0331,-2.9939,0.0,-2.9792,-2.9792,-2.9792,-2.9792,-2.9792,-2.9792,-2.9792,-2.9792,-2.9792,-2.9792,-2.9792,-2.9792,-2.9704,-2.9227,-2.8699,-2.8134,-2.7595,-2.703,-2.6439,-2.5535,-2.5146,-2.4791,-2.3963,-2.2999,-2.2253,-2.2253,-2.1669,-2.1088,-2.0857,-2.0857,-2.0789,-2.0644,0.0,0.0,0.0,0.0,0.0,0.0,0.0,0.0,0.0,0.0,-1.4088,0.0,-1.4088,-1.4088,0.0,0.0,0.0,0.0,0.0,0.0,0.0,-1.0692,0.0,0.0,0.0,-0.7577,-0.8627,-0.8627,-0.8627,-0.8627,-0.9575,-0.9488,-0.8627,-0.8803,-0.8189,-0.7139,-0.7316,-0.7316,-0.7139,-0.7139,-0.7139,-0.7139,-0.7139,-0.7139,-0.7139,0.0,0.0,0.0,0.0,0.0,0.0,0.0,-3.9031,0.0,-3.9424,-3.9424,-3.9424,-3.9424,-3.9424,-3.9424,-3.9424,-3.9424,-3.9177,-3.862,-3.8069,-3.7112,-3.5521,-3.4979,0.0,-3.3167,-3.3081,-3.3081,-3.3081,0.0,0.0,0.0,0.0,0.0,0.0,0.0,-3.0803,0.0,0.0,0.0,-2.9792,-2.9792,-2.9792,-2.9792,-2.9792,-2.9792,-2.9792,-2.9792,-2.9792,-2.9792,-2.9792,-2.9792,-2.9691,-2.9114,-2.8549,-2.7996,-2.7444,-2.6528,-2.5594,-2.5146,-2.4264,-2.3294,-2.285,-2.1962,-2.1298,-2.1298,-2.0934,-2.0566,-2.0566,-2.0566,-2.0411,-1.9844,-1.9766,0.0,0.0,0.0,0.0,0.0,0.0,0.0,0.0,0.0,0.0,0.0,0.0,0.0,0.0,0.0,0.0,0.0,0.0,0.0,0.0,0.0,0.0,0.0,0.0,0.0,-0.9749,-0.9749,-0.9749,-0.984,-1.0351,-1.0265,-0.9836,-1.0438,-1.0005,-0.8877,-0.8877,-0.8532,-0.8013,-0.8013,-0.7665,-0.7139,-0.7139,-0.7139,-0.7139,0.0,-3.7434,0.0,0.0,-3.7572,0.0,-3.7587,-3.8219,-3.8855,-3.9337,-3.9424,-3.9424,-3.9424,-3.9424,-3.9424,-3.9424,-3.9177,-3.8708,-3.7829,-3.7357,-3.6411,-3.4746,-3.4511,-3.3953,-3.3167,-3.3081,-3.3081,0.0,0.0,0.0,0.0,0.0,0.0,0.0,0.0,0.0,0.0,0.0,-2.9789,-2.9792,-2.9802,-2.9789,-2.9792,-2.9792,-2.9792,-2.9792,-2.9792,-2.9792,-2.9792,-2.9534,-2.9624,-2.9666,-2.8976,-2.8288,-2.7654,-2.7008,-2.5767,-2.4636,-2.4409,-2.322,-2.1952,-2.1735,-2.1155,-2.0566,-2.0566,-2.0566,-2.0566,-2.0566,-2.0566,-2.0245,-1.9204,-1.952,0.0,0.0,0.0,0.0,0.0,0.0,0.0,0.0,0.0,0.0,-1.4088,0.0,0.0,0.0,0.0,0.0,-1.4088,0.0,0.0,0.0,0.0,-1.1042,-1.1305,0.0,-1.0697,-1.095,-1.095,-1.095,-1.095,-1.1214,-1.1214,-1.1042,-1.1895,-1.1552,-1.0269,-1.0269,-0.9579,-0.854,-0.854,-0.7925,-0.7139,-0.7139,-0.7139,-0.7139,0.0,0.0,0.0,0.0,0.0,0.0,-3.6369,-3.6448,-3.7161,-3.9177,-3.9424,-3.9424,-3.9424,-3.9424,-3.9424,-3.9424,-3.8546,-3.7919,-3.7829,-3.6015,-3.491,-3.4746,-3.3797,-3.324,-3.3081,-3.3081,-3.3081,0.0,0.0,0.0,0.0,0.0,0.0,0.0,0.0,0.0,0.0,-2.9829,-2.9779,-2.9817,-2.9841,-2.9779,-2.9792,-2.9792,-2.9792,-2.9792,-2.9792,-2.9792,-2.9624,-2.8597,-2.8937,-2.9603,-2.8524,-2.7508,-2.656,-2.5517,-2.4455,-2.3441,-2.2553,-2.2178,-2.1811,-2.0934,-2.0634,-2.0566,-2.0566,-2.0566,-2.0566,-2.0566,-2.0566,-2.0245,-1.9204,-1.823,-1.7253,0.0,0.0,0.0,0.0,0.0,-1.425,-1.4088,0.0,0.0,0.0,-1.4088,0.0,0.0,-1.4088,0.0,0.0,0.0,0.0,-1.3913,0.0,-1.2681,-1.3737,-1.1649,-1.1128,-1.2157,-1.2157,-1.2157,-1.2157,-1.3294,-1.3209,-1.2157,-1.2237,-1.1037,-0.9061,-0.9061,-0.8364,-0.7228,-0.7228,-0.7228,-0.7139,-0.7139,-0.7139,-0.7139,0.0,0.0,0.0,0.0,0.0,0.0,0.0,-3.5814,-3.6526,-3.7405,-3.7482,-3.7482,-3.7482,-3.7482,-3.7482,-3.7482,-3.7084,-3.654,-3.6015,-3.5142,-3.4428,-3.3797,-3.3313,-3.3081,-3.3081,-3.2742,-3.2554,0.0,0.0,0.0,0.0,0.0,0.0,0.0,0.0,-2.9769,-2.9804,-2.9808,-2.8264,-2.604,-2.8742,-2.9769,-2.9804,-2.9804,-2.9824,-2.9599,-2.8276,-2.8246,-2.8609,-2.7533,-2.7747,-2.8171,-2.67,-2.5786,-2.509,-2.4315,-2.3368,-2.2478,-2.2103,-2.1593,-2.1078,-2.0712,-2.0566,-2.0566,-2.0566,-2.0566,-2.0566,-2.0566,-2.0566,-2.0079,-1.831,-1.8149,-1.7496,0.0,0.0,0.0,0.0,0.0,0.0,-1.4088,0.0,-1.4088,0.0,0.0,0.0,0.0,0.0,0.0,0.0,0.0,0.0,-1.4088,0.0,-1.3646,-1.4088,-1.313,-1.2948,-1.3379,-1.3379,-1.3379,-1.3385,-1.3906,-1.3822,-1.3379,-1.3379,-1.2863,-1.2003,-1.2003,-1.1305,-1.0255,-1.0255,-0.9396,-0.8189,-0.8189,-0.7753,-0.7139,-3.4191,0.0,-3.3953,0.0,-3.4332,-3.5034,-3.4345,-3.4802,-3.5197,-3.5023,-3.4996,-3.5291,-3.6105,-3.6198,-3.6129,-3.5963,-3.5713,-3.5089,-3.4243,-3.3917,-3.3366,-3.2663,-3.2579,0.0,-3.2579,-3.2177,-3.1976,-3.1976,-3.1976,0.0,0.0,0.0,0.0,0.0,-2.7824,-2.859,-2.9788,-2.9801,-2.8004,-2.5194,-2.7036,-2.7859,-2.7973,-2.927,-2.9401,-2.8597,-2.707,-2.6979,-2.7441,-2.6378,-2.6116,-2.6161,-2.5261,-2.4503,-2.3775,-2.3216,-2.2328,-2.1593,-2.1593,-2.1078,-2.0566,-2.0566,-2.0566,-2.0566,-2.0566,-2.0566,-2.0566,-2.0566,-2.0566,-1.9913,-1.7738,-1.7989,-1.7496,-1.4573,0.0,0.0,0.0,-1.4088,0.0,0.0,-1.4088,-1.4088,-1.4088,-1.4088,0.0,0.0,0.0,0.0,0.0,0.0,0.0,0.0,0.0,0.0,-1.4088,-1.4088,-1.4088,-1.4088,-1.4088,-1.4088,-1.4088,-1.4088,-1.4088,-1.4088,-1.4088,-1.3906,-1.3561,-1.3561,-1.2857,-1.1809,-1.1809,-1.0783,-0.9405,-0.9405,-0.8623,-0.7672,-3.3167,-3.3167,-3.3167,-3.3081,-3.3167,-3.3154,-3.3167,-3.3154,-3.2953,-3.229,-3.2215,-3.3294,-3.5905,-3.6198,-3.5977,-3.5488,-3.4404,-3.3622,-3.3079,-3.2034,-3.1411,0.0,0.0,-3.1411,-3.1411,-3.1399,-3.1399,-3.1399,0.0,0.0,-3.3088,0.0,-2.7455,-2.3173,-2.3215,-2.5617,-2.9818,-2.9834,-2.9762,-2.9319,-2.4935,-2.32,-2.3629,-2.8093,-2.8457,-2.6565,-2.6472,-2.6472,-2.6307,-2.521,-2.4261,-2.3743,-2.4681,-2.405,-2.2801,-2.2164,-2.1375,-2.0644,-2.0644,-2.0644,-2.0566,-2.0566,-2.0566,-2.0566,-2.0566,-2.0566,-2.0566,-2.0566,-2.0566,-1.9913,-1.7738,-1.7334,-1.6609,-1.4412,0.0,0.0,0.0,0.0,0.0,-1.4088,-1.4088,-1.4088,-1.4088,-1.4088,0.0,0.0,0.0,0.0,0.0,0.0,0.0,-1.4088,-1.4088,0.0,-1.4088,-1.4088,-1.4088,-1.4088,-1.4088,-1.4088,-1.4088,-1.4088,-1.4088,-1.4088,-1.4088,-1.3379,-1.2328,-1.2328,-1.1638,-1.0611,-1.0611,-1.0611,-1.0611,-1.0611,-0.9836,-0.8915,-3.1926,-3.1926,-3.1926,-3.1926,-3.1926,-3.1926,-3.1926,-3.1926,-3.1863,-3.1675,-3.165,-3.1946,-3.2807,-3.2914,-3.2836,0.0,-3.2333,-3.212,0.0,-3.163,-3.1386,-3.1386,-3.1386,-3.1386,-3.1386,-3.1047,-3.0859,-3.0859,0.0,0.0,0.0,-2.6646,-2.4503,-2.3118,-2.3102,-2.3865,-2.5251,-2.5206,-2.5228,-2.5146,-2.3673,-2.3068,-2.3271,-2.4682,-2.4828,-2.4136,-2.42,-2.4903,-2.5486,-2.4155,-2.3058,-2.2503,-2.2829,-2.2139,-2.1268,-2.1118,-2.0857,-2.0566,-2.0566,-2.0566,-2.0566,-2.0566,-2.0566,-2.0566,-2.0566,-2.0566,-2.0401,-1.9678,-1.952,-1.8868,-1.6601,-1.6191,-1.5786,-1.4334,-1.4088,0.0,0.0,0.0,-1.4088,-1.4088,-1.4088,-1.4088,-1.4088,-1.4088,0.0,0.0,0.0,0.0,0.0,0.0,0.0,0.0,-1.4088,0.0,-1.4088,-1.4088,-1.4088,-1.4088,-1.4088,-1.4088,-1.4088,-1.4088,-1.4088,-1.4088,-1.4088,-1.3906,-1.3555,-1.3555,-1.33,-1.2954,-1.2954,-1.251,-1.166,-1.0958,-1.0042,-0.8918,-3.1386,-3.1386,-3.1386,-3.1386,-3.1386,-3.1386,-3.1386,-3.1386,-3.1323,-3.1122,-3.1097,-3.1022,-3.0809,-3.0796,0.0,-3.1085,-3.1097,-3.1009,-3.0796,-3.0796,-3.0796,-3.0796,-3.0796,-3.0796,-3.0796,-3.0034,0.0,-2.9702,-2.9533,-2.8775,-2.7432,-2.4459,-2.3071,-2.3071,-2.3071,-2.3071,-2.3061,-2.3118,-2.3063,-2.3071,-2.3071,-2.3071,-2.3071,-2.3071,-2.3113,-2.3133,-2.3087,-2.3745,-2.4399,-2.3406,-2.2685,-2.209,-2.1934,-2.1396,-2.0781,-2.0615,-2.0566,-2.0566,-2.0566,-2.0566,-2.0566,-2.0566,-2.0566,-2.0566,-2.0566,-2.0323,-1.9844,-1.9116,-1.8638,-1.7819,-1.6026,-1.5696,-1.5379,-1.425,-1.4088,-1.4088,-1.4088,0.0,-1.4088,0.0,0.0,0.0,0.0,-1.4088,-1.4088,0.0,0.0,0.0,0.0,0.0,0.0,-1.4088,-1.4088,0.0,-1.4088,-1.4088,-1.4088,-1.4088,-1.4088,-1.4088,-1.4088,-1.4088,-1.4088,-1.4088,-1.4088,-1.4088,-1.4088,-1.4088,-1.4088,-1.4095,-1.3677,-1.3096,-1.2331,-1.1253,-1.0167,-0.9105,-3.1273,-3.1192,0.0,0.0,-3.1286,0.0,-3.1286,-3.1286,-3.111,-3.062,-3.0557,-3.0357,-2.9842,-2.9792,-2.9993,-3.052,0.0,0.0,0.0,-2.9792,-2.9792,-2.9792,-2.9792,-2.9792,-2.9702,-2.8597,-2.8084,-2.8004,-2.7618,-2.7115,-2.648,-2.4212,-2.3135,-2.3135,-2.3135,-2.3135,-2.3135,-2.3135,-2.3135,-2.3135,-2.3135,-2.3135,-2.3135,-2.3135,-2.3135,-2.3135,-2.3135,-2.3135,-2.3135,-2.3135,-2.2861,-2.2441,-2.2021,-2.1582,-2.1143,-2.0703,-2.0566,-2.0566,-2.0566,-2.0566,-2.0566,-2.0566,-2.0566,-2.0566,-2.0489,-1.9678,-1.8957,-1.8798,-1.7908,-1.6846,-1.5786,-1.5621,-1.5296,-1.425,-1.4088,-1.4088,-1.4088,0.0,0.0,0.0,0.0,0.0,0.0,-1.4088,-1.4088,0.0,0.0,0.0,0.0,0.0,-1.4088,-1.4088,-1.4088,-1.4088,-1.4088,-1.4088,-1.4088,-1.4088,-1.4088,-1.4088,-1.4088,-1.4088,-1.4088,-1.4088,-1.4088,-1.4088,-1.4088,-1.4108,-1.4115,-1.3881,-1.3012,-1.2574,-1.2337,-1.1395,-1.0283,-0.9299,0.0,0.0,-2.9132,-2.9999,-3.0168,-3.0168,-3.0168,-3.0168,-3.0131,-3.0005,-2.9993,-2.9942,-2.9804,-2.9792,-2.9842,-2.998,-2.9993,-2.993,-2.9804,-2.9792,-2.9792,-2.9792,-2.9792,-2.9365,-2.8518,-2.8255,-2.7683,-2.6883,-2.6195,-2.6116,-2.648,-2.4212,-2.3135,-2.3135,-2.3135,-2.3135,-2.3135,-2.3135,-2.3135,-2.3135,-2.3135,-2.3135,-2.3135,-2.3135,-2.3135,-2.3135,-2.3135,-2.3135,-2.3135,-2.3135,-2.2861,-2.2441,-2.2021,-2.1582,-2.1143,-2.0703,-2.0566,-2.0566,-2.0566,-2.0566,-2.0566,-2.0566,-2.0566,-2.0401,-1.9599,-1.9195,-1.855,-1.6838,-1.6273,-1.5786,-1.465,-1.4489,-1.4412,-1.4173,-1.4088,-1.4088,-1.4088,-1.4088,0.0,0.0,-1.4088,-1.4088,-1.4088,-1.4088,-1.4088,0.0,0.0,0.0,0.0,-1.4088,-1.4088,-1.4088,-1.4088,-1.4088,-1.4088,-1.4088,-1.4088,-1.4088,-1.4088,-1.4088,-1.4088,-1.4088,-1.4088,-1.4088,-1.4088,-1.4088,-1.4108,-1.4322,-1.3796,-1.2931,-1.2915,-1.2287,-1.1308,-1.0233,-0.9746,-0.9303,-2.8291,-2.8199,-2.8267,-2.8937,-2.8621,-2.8462,-2.8949,-2.8621,-2.8291,-2.8291,-2.87,-2.9028,-2.9028,-2.9028,-2.9028,-2.9028,-2.9534,-2.9792,-2.9792,-2.9792,-2.9792,-2.9792,-2.9275,-2.8767,-2.8084,-2.7093,-2.6036,-2.4978,-2.4529,-2.4537,-2.4909,-2.3727,-2.3135,-2.3135,-2.3135,-2.3135,-2.3135,-2.3135,-2.3135,-2.3135,-2.3135,-2.3135,-2.3135,-2.3135,-2.3135,-2.3135,-2.3135,-2.3135,-2.3135,-2.3135,-2.2988,-2.2725,-2.2305,-2.1875,-2.1445,-2.1006,-2.0723,-2.0566,-2.0566,-2.0566,-2.0566,-2.0566,-2.0235,-1.9678,-1.9116,-1.823,-1.7163,-1.5944,-1.5296,-1.481,-1.4166,-1.4088,-1.4088,-1.4088,-1.4088,-1.4088,-1.4088,-1.4088,0.0,-1.4088,-1.4088,-1.4088,-1.4088,-1.4088,-1.4088,-1.4088,-1.4088,0.0,-1.4088,-1.4088,-1.4088,-1.4088,-1.4088,-1.4088,-1.4088,-1.4088,-1.4088,-1.4088,-1.4088,-1.4088,-1.4088,-1.4088,-1.4162,-1.4282,-1.4282,-1.4004,-1.3598,-1.3749,-1.3082,-1.1838,-1.1523,-1.0959,-1.0242,-0.9204,-0.8788,-0.8702,-2.6637,-2.7116,-2.7683,-2.7844,-2.7128,-2.6801,-2.7695,-2.7128,-2.6483,-2.6483,-2.729,-2.7844,-2.7844,-2.7844,-2.7844,-2.7844,-2.8779,-2.93,-2.93,-2.93,-2.93,-2.93,-2.8359,-2.7763,-2.7591,-2.5619,-2.4049,-2.3135,-2.3135,-2.3135,-2.3135,-2.3135,-2.3135,-2.3135,-2.3135,-2.3135,-2.3135,-2.3135,-2.3135,-2.3135,-2.3135,-2.3135,-2.3135,-2.3135,-2.3135,-2.3135,-2.3135,-2.3135,-2.3135,-2.3135,-2.3135,-2.3066,-2.2646,-2.2266,-2.1894,-2.1455,-2.1016,-2.0654,-2.0586,-2.0566,-2.0566,-2.0401,-1.9678,-1.8877,-1.855,-1.7082,-1.5613,-1.5455,-1.4734,-1.4088,-1.4088,-1.4088,-1.4088,-1.4088,-1.4088,-1.4088,-1.4088,0.0,-1.4108,-1.4148,-1.4155,-1.4168,-1.4215,-1.4222,-1.4222,-1.4222,-1.4222,-1.4222,-1.4222,-1.4222,-1.4222,-1.4222,-1.4135,-1.4088,-1.4088,-1.4128,-1.4155,-1.4155,-1.4195,-1.4222,-1.4222,-1.4222,-1.4355,-1.4589,-1.4589,-1.3996,-1.3018,-1.3053,-1.2151,-1.0788,-0.9875,-0.9477,-0.9208,-0.8283,-0.8038,-0.8038,-2.6307,-2.588,-2.5619,-2.6554,-2.6637,-2.6565,-2.6719,-2.6637,-2.6483,-2.6483,-2.6637,-2.6719,-2.6719,-2.6719,-2.6719,-2.6719,-2.6894,-2.6976,-2.6976,-2.6976,-2.6976,-2.6976,-2.6801,-2.6295,-2.5368,-2.4049,-2.3299,-2.3135,-2.3135,-2.3135,-2.3135,-2.3135,-2.3135,-2.3135,-2.3135,-2.3135,-2.3135,-2.3135,-2.3135,-2.3135,-2.3135,-2.3135,-2.3135,-2.3135,-2.3135,-2.3135,-2.3135,-2.3135,-2.3135,-2.3135,-2.3135,-2.3066,-2.2646,-2.2471,-2.2334,-2.1914,-2.1475,-2.1045,-2.0664,-2.0566,-2.0401,-1.9441,-1.9116,-1.855,-1.6675,-1.5944,-1.5455,-1.4573,-1.425,-1.4088,-1.4088,-1.4088,-1.4088,-1.4088,-1.4088,-1.4088,-1.4088,0.0,-1.4175,-1.4422,-1.4449,-1.4549,-1.4803,-1.483,-1.483,-1.483,-1.483,-1.483,-1.483,-1.483,-1.483,-1.483,-1.4349,-1.4088,-1.4088,-1.4329,-1.4449,-1.4456,-1.471,-1.483,-1.483,-1.483,-1.4856,-1.4897,-1.4897,-1.418,-1.303,-1.3246,-1.1927,-0.9789,-0.9883,-0.9272,-0.8202,-0.8028,-0.8038,-0.8038,-2.4723,-2.4713,-2.4957,-2.5462,-2.5052,-2.4893,-2.5462,-2.5052,-2.4638,-2.4638,-2.5221,-2.5546,-2.5546,-2.5546,-2.5546,-2.5546,-2.5052,-2.4638,-2.4638,-2.5808,-2.6483,-2.6483,-2.588,-2.5041,-2.3877,-2.3387,-2.3135,-2.3135,-2.3135,-2.3135,-2.3135,-2.3135,-2.3135,-2.3135,-2.3135,-2.3135,-2.3135,-2.3135,-2.3135,-2.3135,-2.3135,-2.3135,-2.3135,-2.3135,-2.3135,-2.3135,-2.3135,-2.3135,-2.3135,-2.3135,-2.3135,-2.3105,-2.291,-2.2695,-2.2301,-2.1476,-2.1234,-2.0973,-2.0036,-1.9756,-1.9441,-1.839,-1.7658,-1.6919,-1.5944,-1.5213,-1.4734,-1.4166,-1.4088,-1.4135,-1.4295,-1.4322,-1.4376,-1.4536,-1.4556,0.0,0.0,-1.4556,-1.4609,-1.4743,-1.4763,-1.481,-1.495,-1.4963,-1.4963,-1.4963,-1.4963,-1.4963,-1.4963,-1.4963,-1.4963,-1.4963,-1.4703,-1.4556,-1.4556,-1.4689,-1.4763,-1.4763,-1.4897,-1.4963,-1.4963,-1.4963,-1.505,-1.5197,-1.5197,-1.4155,-1.2398,-1.2511,-1.1019,-0.8717,-0.889,-0.8528,-0.8038,-0.8038,-0.8038,-0.8038,-2.3299,-2.38,-2.4372,-2.4372,-2.3714,-2.3387,-2.4296,-2.3627,-2.3135,-2.3135,-2.3877,-2.4372,-2.4372,-2.4372,-2.4372,-2.4372,-2.3627,-2.3135,-2.3135,-2.4723,-2.5724,-2.5724,-2.4882,-2.3963,-2.3135,-2.3135,-2.3135,-2.3135,-2.3135,-2.3135,-2.3135,-2.3135,-2.3135,-2.3135,-2.3135,-2.3135,-2.3135,-2.3135,-2.3135,-2.3135,-2.3135,-2.3135,-2.3135,-2.3135,-2.3135,-2.3135,-2.3135,-2.2853,-2.2561,-2.295,-2.2687,-2.2315,-2.2589,-2.2282,-2.1584,-2.0676,-2.0543,-2.0328,-1.9173,-1.8823,-1.8571,-1.7425,-1.6505,-1.5844,-1.5599,-1.4866,-1.4289,-1.4289,-1.4289,-1.4362,-1.4583,-1.4623,-1.4696,-1.493,0.0,0.0,0.0,-1.4963,-1.499,-1.5057,-1.5064,-1.509,-1.5157,-1.5164,-1.5164,-1.5164,-1.5164,-1.5164,-1.5164,-1.5164,-1.5164,-1.5164,-1.5037,-1.4963,-1.4963,-1.503,-1.5064,-1.5064,-1.5137,-1.5164,-1.5164,-1.5164,-1.5284,-1.5498,-1.5206,-1.3892,-1.1853,-1.1556,-1.0096,-0.8038,-0.8038,-0.8038,-0.8038,-0.8038,-0.8038,-0.8038,-2.3135,-2.3135,-2.3222,-2.3222,-2.3135,-2.3135,-2.3222,-2.3135,-2.3135,-2.3135,-2.3135,-2.3222,-2.3222,-2.3222,-2.3222,-2.3222,-2.3135,-2.3135,-2.3135,-2.3222,-2.3387,-2.3387,-2.3299,-2.3222,-2.3135,-2.3135,-2.3135,-2.3135,-2.3135,-2.3135,-2.3135,-2.3135,-2.3135,-2.3135,-2.3135,-2.3135,-2.3135,-2.3135,-2.3135,-2.3135,-2.3135,-2.3135,-2.3135,-2.3135,-2.3135,-2.3135,-2.3135,-2.2171,-2.1105,-2.2561,-2.1587,-1.9943,-2.1114,-2.0648,-1.9728,-1.9637,-1.9264,-1.8875,-1.8354,-1.8255,-1.7997,-1.6949,-1.6608,-1.6265,-1.5239,-1.4986,-1.4897,-1.4897,-1.4897,-1.4903,-1.493,-1.493,-1.4937,-1.4963,0.0,0.0,-1.4963,-1.4963,-1.5064,-1.5331,-1.5364,-1.5471,-1.5738,-1.5765,-1.5765,-1.5765,-1.5765,-1.5765,-1.5765,-1.5765,-1.5765,-1.5765,-1.5244,-1.4963,-1.4963,-1.5231,-1.5364,-1.5364,-1.5638,-1.5765,-1.5765,-1.5765,-1.5778,-1.5697,-1.453,-1.3182,-1.1848,-1.0583,-0.9316,-0.8038,-0.8038,-0.8038,-0.8038,-0.8038,-0.8038,-0.8038,-2.3135,-2.3135,-2.3135,-2.3135,-2.3135,-2.3135,-2.3135,-2.3135,-2.3135,-2.3135,-2.3135,-2.3135,-2.3135,-2.3135,-2.3135,-2.3135,-2.3135,-2.3135,-2.3135,-2.3135,-2.3135,-2.3135,-2.3135,-2.3135,-2.3135,-2.3135,-2.3135,-2.3135,-2.3135,-2.3135,-2.3135,-2.3135,-2.3135,-2.3135,-2.3135,-2.3135,-2.3135,-2.3135,-2.3135,-2.3135,-2.3135,-2.3135,-2.3067,-2.3124,-2.2195,-2.09,-2.0908,-2.0447,-2.0036,-2.0701,-2.0223,-1.9579,-2.0034,-1.9852,-1.9314,-1.8596,-1.7672,-1.6907,-1.6784,-1.6907,-1.6946,-1.591,-1.5569,-1.5479,-1.5046,-1.4963,-1.4963,-1.4963,-1.4963,-1.5017,-1.5197,-1.5231,-1.5291,-1.5471,0.0,-1.5504,-1.5504,-1.5504,-1.5252,-1.4584,-1.5181,-1.5416,-1.4644,-1.5337,-1.5832,-1.5832,-1.5832,-1.5832,-1.5832,-1.5832,-1.5832,-1.5832,-1.5618,-1.5504,-1.5504,-1.5611,-1.5665,-1.5665,-1.5772,-1.5832,-1.5832,-1.5832,-1.5337,-1.4561,-1.407,-1.2716,-1.0681,-1.0194,-0.9217,-0.8038,-0.8038,-0.8038,-0.8038,-0.8038,-0.8038,-0.8038,-2.3135,-2.3135,-2.3135,-2.3135,-2.3135,-2.3135,-2.3135,-2.3135,-2.3135,-2.3135,-2.3135,-2.3135,-2.3135,-2.3135,-2.3135,-2.3135,-2.3135,-2.3135,-2.3135,-2.3135,-2.3135,-2.3135,-2.3135,-2.3135,-2.3135,-2.3135,-2.3135,-2.3135,-2.3135,-2.3135,-2.3135,-2.3135,-2.3135,-2.3135,-2.3135,-2.3135,-2.3047,-2.2561,-2.224,-2.1929,-2.2013,-2.1952,-2.1971,-2.194,-2.0799,-1.9101,-1.9117,-1.9072,-1.8999,-1.9347,-1.8948,-1.8395,-1.8772,-1.8672,-1.8218,-1.7311,-1.648,-1.5832,-1.5832,-1.6075,-1.6195,-1.5413,-1.5237,-1.5237,-1.5237,-1.5237,-1.5237,-1.5237,-1.5237,-1.5297,-1.5498,-1.5531,-1.5598,-1.5798,-1.5832,-1.5635,-1.5242,-1.5242,-1.4752,-1.3397,-1.4076,-1.4274,-1.3397,-1.4076,-1.4567,-1.4567,-1.4567,-1.4758,-1.5146,-1.554,-1.5832,-1.5832,-1.5832,-1.5832,-1.5832,-1.5832,-1.5832,-1.5832,-1.5832,-1.5832,-1.5825,-1.5439,-1.4752,-1.3872,-1.3,-1.1648,-0.9998,-0.9509,-0.8825,-0.8038,-0.8038,-0.8038,-0.8038,-0.8038,-0.8038,-0.8038,-2.3135,-2.3135,-2.3135,-2.3135,-2.3135,-2.3135,-2.3135,-2.3135,-2.3135,-2.3135,-2.3135,-2.3135,-2.3135,-2.3135,-2.3135,-2.3135,-2.3135,-2.3135,-2.3135,-2.3135,-2.3135,-2.3135,-2.3135,-2.3135,-2.3135,-2.3135,-2.3135,-2.3135,-2.3135,-2.3135,-2.3135,-2.3135,-2.3135,-2.3135,-2.3135,-2.3047,-2.295,-2.1398,-2.0269,-1.9524,-1.9488,-1.9488,-1.9488,-1.9488,-1.8951,-1.8284,-1.8284,-1.8018,-1.787,-1.9047,-1.7848,-1.6015,-1.7318,-1.685,-1.5832,-1.5832,-1.5832,-1.5832,-1.5832,-1.5832,-1.5832,-1.5832,-1.5832,-1.5832,-1.5832,-1.5832,-1.5832,-1.5832,-1.5832,-1.5832,-1.5832,-1.5832,-1.5832,-1.5832,-1.5825,-1.5337,-1.407,-1.3872,-1.3392,-1.2042,-1.1848,-1.1945,-1.1848,-1.1848,-1.1945,-1.1945,-1.1945,-1.2528,-1.3782,-1.5045,-1.5737,-1.5737,-1.5737,-1.5737,-1.5737,-1.5825,-1.5832,-1.5832,-1.5832,-1.5825,-1.573,-1.4459,-1.3872,-1.368,-1.1161,-0.9998,-0.9899,-0.8528,-0.8038,-0.8038,-0.8038,-0.8038,-0.8038,-0.8038,-0.8038,-0.8038,-2.3135,-2.3135,-2.3135,-2.3135,-2.3135,-2.3135,-2.3135,-2.3135,-2.3135,-2.3135,-2.3135,-2.3135,-2.3135,-2.3135,-2.3135,-2.3135,-2.3135,-2.3135,-2.3135,-2.3135,-2.3135,-2.3135,-2.3135,-2.3135,-2.3135,-2.3135,-2.3135,-2.3135,-2.3135,-2.3135,-2.3135,-2.3135,-2.3135,-2.3135,-2.3135,-2.2589,-2.1747,-2.1025,-1.9945,-1.86,-1.7387,-1.6887,-1.6908,-1.687,-1.6722,-1.6522,-1.6556,-1.6445,-1.6386,-1.6749,-1.6379,-1.5825,-1.6292,-1.6109,-1.5832,-1.5832,-1.5832,-1.5832,-1.5832,-1.5832,-1.5832,-1.5832,-1.5832,-1.5832,-1.5832,-1.5832,-1.5832,-1.5832,-1.5832,-1.5832,-1.5832,-1.5832,-1.5832,-1.5832,-1.5045,-1.4364,-1.3974,-1.3102,-1.2042,-1.0681,-1.1361,-1.1556,-1.0681,-1.1365,-1.1945,-1.1945,-1.1945,-1.2042,-1.2528,-1.2818,-1.3011,-1.3011,-1.3011,-1.3011,-1.3011,-1.4854,-1.5832,-1.5832,-1.5832,-1.5337,-1.4459,-1.407,-1.2904,-1.1161,-1.0386,-0.9509,-0.8531,-0.8137,-0.8038,-0.8038,-0.8038,-0.8038,-0.8038,-0.8038,-0.8038,-0.8038,-2.3135,-2.3135,-2.3135,-2.3135,-2.3135,-2.3135,-2.3135,-2.3135,-2.3135,-2.3135,-2.3135,-2.3135,-2.3135,-2.3135,-2.3135,-2.3135,-2.3135,-2.3135,-2.3135,-2.3135,-2.3135,-2.3135,-2.3135,-2.3135,-2.3135,-2.3135,-2.3135,-2.3135,-2.3135,-2.3135,-2.3135,-2.3135,-2.3135,-2.3047,-2.2589,-2.1943,-2.1203,-1.9983,-1.8951,-1.7903,-1.638,-1.5776,-1.579,-1.5819,-1.5765,-1.5779,-1.5792,-1.5832,-1.5832,-1.5832,-1.5832,-1.5832,-1.5832,-1.5832,-1.5832,-1.5832,-1.5832,-1.5832,-1.5832,-1.5832,-1.5832,-1.5832,-1.5832,-1.5832,-1.5832,-1.5832,-1.5832,-1.5832,-1.5832,-1.5832,-1.5832,-1.5439,-1.5045,-1.5045,-1.3974,-1.2909,-1.2425,-1.1648,-1.0681,-0.941,-0.9899,-1.0096,-0.9316,-0.9899,-1.0386,-1.0386,-1.0877,-1.117,-1.117,-1.1653,-1.1945,-1.1945,-1.1945,-1.1945,-1.1945,-1.3499,-1.4274,-1.4274,-1.4758,-1.437,-1.3102,-1.2614,-1.1453,-0.9998,-0.941,-0.8726,-0.8038,-0.8038,-0.8038,-0.8038,-0.8038,-0.8038,-0.8038,-0.8038,-0.8038,-0.8038,-2.3135,-2.3135,-2.3135,-2.3135,-2.3135,-2.3135,-2.3135,-2.3135,-2.3135,-2.3135,-2.3135,-2.3135,-2.3135,-2.3135,-2.3135,-2.3135,-2.3135,-2.3135,-2.3135,-2.3135,-2.3135,-2.3135,-2.3135,-2.3135,-2.3135,-2.3135,-2.3135,-2.3135,-2.3135,-2.3135,-2.3135,-2.3135,-2.3135,-2.3047,-2.1845,-2.1203,-2.1025,-1.868,-1.7598,-1.7412,-1.6292,-1.5832,-1.5832,-1.5832,-1.5832,-1.5832,-1.5832,-1.5832,-1.5832,-1.5832,-1.5832,-1.5832,-1.5832,-1.5832,-1.5832,-1.5832,-1.5832,-1.5832,-1.5832,-1.5832,-1.5832,-1.5832,-1.5832,-1.5832,-1.5832,-1.5832,-1.5832,-1.5832,-1.5832,-1.5737,-1.5635,-1.4657,-1.3872,-1.3782,-1.2624,-1.1361,-1.0194,-0.9903,-0.941,-0.8137,-0.8038,-0.8038,-0.8038,-0.8038,-0.8038,-0.8038,-0.9118,-0.9801,-0.9801,-1.0877,-1.1556,-1.1556,-1.1556,-1.1556,-1.1556,-1.1653,-1.175,-1.195,-1.3102,-1.3006,-1.1658,-1.0485,-0.9899,-0.9702,-0.8531,-0.8038,-0.8038,-0.8038,-0.8038,-0.8038,-0.8038,-0.8038,-0.8038,-0.8038,-0.8038,-0.8038,-2.3135,-2.3135,-2.3135,-2.3135,-2.3135,-2.3135,-2.3135,-2.3135,-2.3135,-2.3135,-2.3135,-2.3135,-2.3135,-2.3135,-2.3135,-2.3135,-2.3135,-2.3135,-2.3135,-2.3135,-2.3135,-2.3135,-2.3135,-2.3135,-2.3135,-2.3135,-2.3135,-2.3135,-2.3135,-2.3135,-2.3135,-2.3135,-2.3135,-2.3047,-2.1845,-2.0755,-1.9761,-1.8319,-1.7131,-1.6204,-1.592,-1.5832,-1.5832,-1.5832,-1.5832,-1.5832,-1.5832,-1.5832,-1.5832,-1.5832,-1.5832,-1.5832,-1.5832,-1.5832,-1.5832,-1.5832,-1.5832,-1.5832,-1.5832,-1.5832,-1.5832,-1.5832,-1.5832,-1.5832,-1.5832,-1.5832,-1.5832,-1.5832,-1.5832,-1.5534,-1.4459,-1.407,-1.3584,-1.2528,-1.1263,-1.0293,-0.9998,-0.9118,-0.8333,-0.8038,-0.8038,-0.8038,-0.8038,-0.8038,-0.8038,-0.8038,-0.8233,-0.8432,-0.8432,-0.8726,-0.8821,-0.8821,-0.8821,-0.8821,-0.8821,-0.9899,-1.0877,-1.1945,-1.2237,-1.1653,-1.0386,-1.0096,-0.941,-0.8432,-0.8137,-0.8038,-0.8038,-0.8038,-0.8038,-0.8038,-0.8038,-0.8038,-0.8038,-0.8038,-0.8038,-0.8038,-2.3135,-2.3135,-2.3135,-2.3135,-2.3135,-2.3135,-2.3135,-2.3135,-2.3135,-2.3135,-2.3135,-2.3135,-2.3135,-2.3135,-2.3135,-2.3135,-2.3135,-2.3135,-2.3135,-2.3135,-2.3135,-2.3135,-2.3135,-2.3135,-2.3135,-2.3135,-2.3135,-2.3135,-2.3135,-2.3135,-2.3135,-2.3135,-2.2775,-2.2217,-2.0944,-1.9761,-1.8596,-1.7311,-1.6386,-1.5832,-1.5832,-1.5832,-1.5832,-1.5832,-1.5832,-1.5832,-1.5832,-1.5832,-1.5832,-1.5832,-1.5832,-1.5832,-1.5832,-1.5832,-1.5832,-1.5832,-1.5832,-1.5832,-1.5832,-1.5832,-1.5832,-1.5832,-1.5832,-1.5832,-1.5832,-1.5832,-1.5635,-1.5045,-1.4854,-1.4465,-1.3204,-1.2425,-1.1843,-1.1068,-0.9899,-0.9019,-0.9019,-0.8432,-0.8038,-0.8038,-0.8038,-0.8038,-0.8038,-0.8038,-0.8038,-0.8038,-0.8038,-0.8038,-0.8038,-0.8038,-0.8038,-0.8038,-0.8038,-0.8038,-0.8038,-0.8726,-0.941,-1.0096,-1.0681,-1.0288,-0.9019,-0.9019,-0.8627,-0.8038,-0.8038,-0.8038,-0.8038,-0.8038,-0.8038,-0.8038,-0.8038,-0.8038,-0.8038,-0.8038,-0.8038,-0.8038,-2.3135,-2.3135,-2.3135,-2.3135,-2.3135,-2.3135,-2.3135,-2.3135,-2.3135,-2.3135,-2.3135,-2.3135,-2.3135,-2.3135,-2.3135,-2.3135,-2.3135,-2.3135,-2.3135,-2.3135,-2.3135,-2.3135,-2.3135,-2.3135,-2.3135,-2.3135,-2.3135,-2.3135,-2.3135,-2.3135,-2.3135,-2.3135,-2.2492,-2.1203,-2.0034,-1.8864,-1.7598,-1.6386,-1.5832,-1.5832,-1.5832,-1.5832,-1.5832,-1.5832,-1.5832,-1.5832,-1.5832,-1.5832,-1.5832,-1.5832,-1.5832,-1.5832,-1.5832,-1.5832,-1.5832,-1.5832,-1.5832,-1.5832,-1.5832,-1.5832,-1.5832,-1.5832,-1.5832,-1.573,-1.5534,-1.5439,-1.5146,-1.4166,-1.368,-1.3102,-1.1848,-1.0681,-0.9899,-0.9706,-0.8726,-0.8038,-0.8038,-0.8038,-0.8038,-0.8038,-0.8038,-0.8038,-0.8038,-0.8038,-0.8038,-0.8038,-0.8038,-0.8038,-0.8038,-0.8038,-0.8038,-0.8038,-0.8038,-0.8038,-0.8038,-0.8038,-0.8038,-0.8038,-0.9118,-0.9118,-0.8038,-0.8038,-0.8038,-0.8038,-0.8038,-0.8038,-0.8038,-0.8038,-0.8038,-0.8038,-0.8038,-0.8038,-0.8038,-0.8038,-0.8038,-0.8038,-2.3135,-2.3135,-2.3135,-2.3135,-2.3135,-2.3135,-2.3135,-2.3135,-2.3135,-2.3135,-2.3135,-2.3135,-2.3135,-2.3135,-2.3135,-2.3135,-2.3135,-2.3135,-2.3135,-2.3135,-2.3135,-2.3135,-2.3135,-2.3135,-2.3135,-2.3135,-2.3135,-2.3135,-2.3135,-2.3135,-2.3135,-2.3135,-2.2492,-2.1203,-2.0034,-1.8864,-1.7598,-1.6386,-1.5832,-1.5832,-1.5832,-1.5832,-1.5832,-1.5832,-1.5832,-1.5832,-1.5832,-1.5832,-1.5832,-1.5832,-1.5832,-1.5832,-1.5832,-1.5832,-1.5832,-1.5832,-1.5832,-1.5832,-1.5832,-1.5832,-1.5832,-1.5832,-1.5832,-1.5534,-1.4364,-1.4166,-1.407,-1.3974,-1.3011,-1.175,-1.0485,-1.0096,-0.9608,-0.8432,-0.8137,-0.8038,-0.8038,-0.8038,-0.8038,-0.8038,-0.8038,-0.8038,-0.8038,-0.8038,-0.8038,-0.8038,-0.8038,-0.8038,-0.8038,-0.8038,-0.8038,-0.8038,-0.8038,-0.8038,-0.8038,-0.8038,-0.8038,-0.8038,-0.8137,-0.8137,-0.8038,-0.8038,-0.8038,-0.8038,-0.8038,-0.8038,-0.8038,-0.8038,-0.8038,-0.8038,-0.8038,-0.8038,-0.8038,-0.8038,-0.8038,-0.8038,-2.248,-2.2441,-2.251,-2.2744,-2.2793,-2.2861,-2.3105,-2.3135,-2.3135,-2.3135,-2.3135,-2.3135,-2.3135,-2.3135,-2.3135,-2.3135,-2.3135,-2.3135,-2.3135,-2.3135,-2.3135,-2.3135,-2.3135,-2.3135,-2.3135,-2.3135,-2.3135,-2.3135,-2.3135,-2.3135,-2.3135,-2.3135,-2.2129,-2.0305,-1.9761,-1.8395,-1.6574,-1.6015,-1.5832,-1.5832,-1.5832,-1.5832,-1.5832,-1.5832,-1.5832,-1.5832,-1.5832,-1.5832,-1.5832,-1.5832,-1.5832,-1.5832,-1.5832,-1.5832,-1.5832,-1.5832,-1.5832,-1.5635,-1.4949,-1.4752,-1.4561,-1.3788,-1.3596,-1.3494,-1.2915,-1.2231,-1.1745,-1.1745,-1.1263,-1.0485,-0.9118,-0.8924,-0.8726,-0.8137,-0.8038,-0.8038,-0.8038,-0.8038,-0.8038,-0.8038,-0.8038,-0.8038,-0.8038,-0.8038,-0.8038,-0.8038,-0.8038,-0.8038,-0.8038,-0.8038,-0.8038,-0.8038,-0.8038,-0.8038,-0.8038,-0.8038,-0.8038,-0.8038,-0.8038,-0.8038,-0.8038,-0.8038,-0.8038,-0.8038,-0.8038,-0.8038,-0.8038,-0.8038,-0.8038,-0.8038,-0.8038,-0.8038,-0.8038,-0.8038,-0.8038,-0.8038]},{"header":{"parameterUnit":"m.s-1","parameterCategory":1,"la1":30.6,"la2":28.766,"lo1":-90.7593,"lo2":-88.6598,"dy":0.0162,"dx":0.0183,"nx":116,"ny":114,"refTime":"2023-07-20T00:00:00:Z","depth":0,"parameterNumber":3,"parameterNumberName":"V-component_of_WINDS"},"data":[0.0,0.0,0.0,0.0,0.0,0.0,0.0,0.0,0.0,0.0,0.0,0.0,0.0,0.0,0.0,0.0,0.0,0.0,0.0,0.0,0.0,0.0,0.0,0.0,0.0,0.0,0.0,0.0,0.0,0.0,0.0,0.0,0.0,0.0,0.0,0.0,0.0,0.0,0.0,0.0,0.0,0.0,0.0,0.0,0.0,0.0,0.0,0.0,0.0,0.0,0.0,0.0,0.0,0.0,0.0,0.0,0.0,0.0,0.0,0.0,0.0,0.0,0.0,0.0,0.0,0.0,0.0,0.0,0.0,0.0,0.0,0.0,0.0,0.0,0.0,0.0,0.0,0.0,0.0,0.0,0.0,0.0,0.0,0.0,0.0,0.0,0.0,0.0,0.0,0.0,0.0,0.0,0.0,0.0,0.0,0.0,0.0,0.0,0.0,0.0,0.0,0.0,0.0,0.0,0.0,0.0,0.0,0.0,0.0,0.0,0.0,0.0,0.0,0.0,0.0,0.0,0.0,0.0,0.0,0.0,0.0,0.0,0.0,0.0,0.0,0.0,0.0,0.0,0.0,0.0,0.0,0.0,0.0,0.0,0.0,0.0,0.0,0.0,0.0,0.0,0.0,0.0,0.0,0.0,0.0,0.0,0.0,0.0,0.0,0.0,0.0,0.0,0.0,0.0,0.0,0.0,0.0,0.0,0.0,0.0,0.0,0.0,0.0,0.0,0.0,0.0,0.0,0.0,0.0,0.0,0.0,0.0,0.0,0.0,0.0,0.0,0.0,0.0,0.0,0.0,0.0,0.0,0.0,0.0,0.0,0.0,0.0,0.0,0.0,0.0,0.0,0.0,0.0,0.0,0.0,0.0,0.0,0.0,0.0,0.0,0.0,0.0,0.0,0.0,0.0,0.0,0.0,0.0,0.0,0.0,0.0,0.0,0.0,0.0,0.0,0.0,0.0,0.0,0.0,0.0,0.0,0.0,0.0,0.0,0.0,0.0,0.0,0.0,0.0,0.0,0.0,0.0,0.0,0.0,0.0,0.0,0.0,0.0,0.0,0.0,0.0,0.0,0.0,0.0,0.0,0.0,0.0,0.0,0.0,0.0,0.0,0.0,0.0,0.0,0.0,0.0,0.0,0.0,0.0,0.0,0.0,0.0,0.0,0.0,0.0,0.0,0.0,0.0,0.0,0.0,0.0,0.0,0.0,0.0,0.0,0.0,0.0,0.0,0.0,0.0,0.0,0.0,0.0,0.0,0.0,0.0,0.0,0.0,0.0,0.0,0.0,0.0,0.0,0.0,0.0,0.0,0.0,0.0,0.0,0.0,0.0,0.0,0.0,0.0,0.0,0.0,0.0,0.0,0.0,0.0,0.0,0.0,0.0,0.0,0.0,0.0,0.0,0.0,0.0,0.0,0.0,0.0,0.0,0.0,0.0,0.0,0.0,0.0,0.0,0.0,0.0,0.0,0.0,0.0,0.0,0.0,0.0,0.0,0.0,0.0,0.0,0.0,0.0,0.0,0.0,0.0,0.0,0.0,0.0,0.0,0.0,0.0,0.0,0.0,0.0,0.0,0.0,0.0,0.0,0.0,0.0,0.0,0.0,0.0,0.0,0.0,0.0,0.0,0.0,0.0,0.0,0.0,0.0,0.0,0.0,0.0,0.0,0.0,0.0,0.0,0.0,0.0,0.0,0.0,0.0,0.0,0.0,0.0,0.0,0.0,0.0,0.0,0.0,0.0,0.0,0.0,0.0,0.0,0.0,0.0,0.0,0.0,0.0,0.0,0.0,0.0,0.0,0.0,0.0,0.0,0.0,0.0,0.0,0.0,0.0,0.0,0.0,0.0,0.0,0.0,0.0,0.0,0.0,0.0,0.0,0.0,0.0,0.0,0.0,0.0,0.0,0.0,0.0,0.0,0.0,0.0,0.0,0.0,0.0,0.0,0.0,0.0,0.0,0.0,0.0,0.0,0.0,0.0,0.0,0.0,0.0,0.0,0.0,0.0,0.0,0.0,0.0,0.0,0.0,0.0,0.0,0.0,0.0,0.0,0.0,0.0,0.0,0.0,0.0,0.0,0.0,0.0,0.0,0.0,0.0,0.0,0.0,0.0,0.0,0.0,0.0,0.0,0.0,0.0,0.0,0.0,0.0,0.0,0.0,0.0,0.0,0.0,0.0,0.0,0.0,0.0,0.0,0.0,0.0,0.0,0.0,0.0,0.0,0.0,0.0,0.0,0.0,0.0,0.0,0.0,0.0,0.0,0.0,0.0,0.0,0.0,0.0,0.0,0.0,0.0,0.0,0.0,0.0,0.0,0.0,0.0,0.0,0.0,0.0,0.0,0.0,0.0,0.0,0.0,0.0,0.0,0.0,0.0,0.0,0.0,0.0,0.0,0.0,0.0,0.0,0.0,0.0,0.0,0.0,0.0,0.0,0.0,0.0,0.0,0.0,0.0,0.0,0.0,0.0,0.0,0.0,0.0,0.0,0.0,0.0,0.0,0.0,0.0,0.0,0.0,0.0,0.0,0.0,0.0,0.0,0.0,0.0,0.0,0.0,0.0,0.0,0.0,0.0,0.0,0.0,0.0,0.0,0.0,0.0,0.0,0.0,0.0,0.0,0.0,0.0,0.0,0.0,0.0,0.0,0.0,0.0,0.0,0.0,0.0,0.0,0.0,0.0,0.0,0.0,0.0,0.0,0.0,0.0,0.0,0.0,0.0,0.0,0.0,0.0,0.0,0.0,0.0,0.0,0.0,0.0,0.0,0.0,0.0,0.0,0.0,0.0,0.0,0.0,0.0,0.0,0.0,0.0,0.0,0.0,0.0,0.0,0.0,0.0,0.0,0.0,0.0,0.0,0.0,0.0,0.0,0.0,0.0,0.0,0.0,0.0,0.0,0.0,0.0,0.0,0.0,0.0,0.0,0.0,0.0,0.0,0.0,0.0,0.0,0.0,0.0,0.0,0.0,0.0,0.0,0.0,0.0,0.0,0.0,0.0,0.0,0.0,0.0,0.0,0.0,0.0,0.0,0.0,0.0,0.0,0.0,0.0,0.0,0.0,0.0,0.0,0.0,0.0,0.0,0.0,0.0,0.0,0.0,0.0,0.0,0.0,0.0,0.0,0.0,0.0,0.0,0.0,0.0,0.0,0.0,0.0,0.0,0.0,0.0,0.0,0.0,0.0,0.0,0.0,0.0,0.0,0.0,0.0,0.0,0.0,0.0,0.0,0.0,0.0,0.0,0.0,0.0,0.0,0.0,0.0,0.0,0.0,0.0,0.0,0.0,0.0,0.0,0.0,0.0,0.0,0.0,0.0,0.0,0.0,0.0,0.0,0.0,0.0,0.0,0.0,0.0,0.0,0.0,0.0,0.0,0.0,0.0,0.0,0.0,0.0,0.0,0.0,0.0,0.0,0.0,0.0,0.0,0.0,0.0,0.0,0.0,0.0,0.0,0.0,0.0,0.0,0.0,0.0,0.0,0.0,0.0,0.0,0.0,0.0,0.0,0.0,0.0,0.0,0.0,0.0,0.0,0.0,0.0,0.0,0.0,0.0,0.0,0.0,0.0,0.0,0.0,0.0,0.0,0.0,0.0,0.0,0.0,0.0,0.0,0.0,0.0,0.0,0.0,0.0,0.0,0.0,0.0,0.0,0.0,0.0,0.0,0.0,0.0,0.0,0.0,0.0,0.0,0.0,0.0,0.0,0.0,0.0,0.0,0.0,0.0,0.0,0.0,0.0,0.0,0.0,0.0,0.0,0.0,0.0,0.0,0.0,0.0,0.0,0.0,0.0,0.0,0.0,0.0,0.0,0.0,0.0,0.0,0.0,0.0,0.0,0.0,0.0,0.0,0.0,0.0,0.0,0.0,0.0,0.0,0.0,0.0,0.0,0.0,0.0,0.0,0.0,0.0,0.0,0.0,0.0,0.0,0.0,0.0,0.0,0.0,0.0,0.0,0.0,0.0,0.0,0.0,0.0,0.0,0.0,0.0,0.0,0.0,0.0,0.0,0.0,0.0,0.0,0.0,0.0,0.0,0.0,0.0,0.0,0.0,0.0,0.0,0.0,0.0,0.0,0.0,0.0,0.0,0.0,0.0,0.0,0.0,0.0,0.0,0.0,0.0,0.0,0.0,0.0,0.0,0.0,0.0,0.0,0.0,0.0,0.0,0.0,0.0,0.0,0.0,0.0,0.0,0.0,0.0,0.0,0.0,0.0,0.0,0.0,0.0,0.0,0.0,0.0,0.0,0.0,0.0,0.0,0.0,0.0,0.0,0.0,0.0,0.0,0.0,0.0,0.0,0.0,0.0,0.0,0.0,0.0,0.0,0.0,0.0,0.0,0.0,0.0,0.0,0.0,0.0,0.0,0.0,0.0,0.0,0.0,0.0,0.0,0.0,0.0,0.0,0.0,0.0,0.0,0.0,0.0,0.0,0.0,0.0,0.0,0.0,0.0,0.0,0.0,0.0,0.0,0.0,0.0,0.0,0.0,0.0,0.0,0.0,0.0,0.0,0.0,0.0,0.0,0.0,0.0,0.0,0.0,0.0,0.0,0.0,0.0,0.0,0.0,0.0,0.0,0.0,0.0,0.0,0.0,0.0,0.0,0.0,0.0,0.0,0.0,0.0,0.0,0.0,0.0,0.0,0.0,0.0,0.0,0.0,0.0,0.0,0.0,0.0,0.0,0.0,0.0,0.0,0.0,0.0,0.0,0.0,0.0,0.0,0.0,0.0,0.0,0.0,0.0,0.0,0.0,0.0,0.0,0.0,0.0,0.0,0.0,0.0,0.0,0.0,0.0,0.0,0.0,0.0,0.0,0.0,0.0,0.0,0.0,0.0,0.0,0.0,0.0,0.0,0.0,0.0,0.0,0.0,0.0,0.0,0.0,0.0,0.0,0.0,0.0,0.0,0.0,0.0,0.0,0.0,0.0,0.0,0.0,0.0,0.0,0.0,0.0,0.0,0.0,0.0,0.0,0.0,0.0,0.0,0.0,0.0,0.0,0.0,0.0,0.0,0.0,0.0,0.0,0.0,0.0,0.0,0.0,0.0,0.0,0.0,0.0,0.0,0.0,0.0,0.0,0.0,0.0,0.0,0.0,0.0,0.0,0.0,0.0,0.0,0.0,0.0,0.0,0.0,0.0,0.0,0.0,0.0,0.0,0.0,0.0,0.0,0.0,0.0,0.0,0.0,0.0,0.0,0.0,0.0,0.0,0.0,0.0,0.0,0.0,0.0,0.0,0.0,0.0,0.0,0.0,0.0,0.0,0.0,0.0,0.0,0.0,0.0,0.0,0.0,0.0,0.0,0.0,0.0,0.0,0.0,0.0,0.0,0.0,0.0,0.0,0.0,0.0,0.0,0.0,0.0,0.0,0.0,0.0,0.0,0.0,0.0,0.0,0.0,0.0,0.0,0.0,0.0,0.0,0.0,0.0,0.0,0.0,0.0,0.0,0.0,0.0,0.0,0.0,0.0,0.0,0.0,0.0,0.0,0.0,0.0,0.0,0.0,0.0,0.0,0.0,0.0,0.0,0.0,0.0,0.0,0.0,0.0,0.0,0.0,0.0,0.0,0.0,0.0,0.0,0.0,0.0,0.0,0.0,0.0,0.0,0.0,0.0,0.0,0.0,0.0,0.0,0.0,0.0,0.0,0.0,0.0,0.0,0.0,0.0,0.0,0.0,0.0,0.0,0.0,0.0,0.0,0.0,0.0,0.0,0.0,0.0,0.0,0.0,0.0,0.0,0.0,0.0,0.0,0.0,0.0,0.0,0.0,0.0,0.0,0.0,0.0,0.0,0.0,0.0,0.0,0.0,0.0,0.0,0.0,0.0,0.0,0.0,0.0,0.0,0.0,0.0,0.0,0.0,0.0,0.0,0.0,0.0,0.0,0.0,0.0,0.0,0.0,0.0,0.0,0.0,0.0,0.0,0.0,0.0,0.0,0.0,0.0,0.0,0.0,0.0,0.0,0.0,0.0,0.0,0.0,0.0,0.0,0.0,0.0,0.0,0.0,0.0,0.0,0.0,0.0,0.0,0.0,0.0,0.0,0.0,0.0,0.0,0.0,0.0,0.0,0.0,0.0,0.0,0.0,-2.0566,0.0,0.0,0.0,0.0,0.0,0.0,0.0,0.0,0.0,0.0,0.0,0.0,0.0,0.0,0.0,0.0,0.0,0.0,0.0,0.0,0.0,0.0,0.0,0.0,0.0,0.0,0.0,0.0,0.0,0.0,0.0,0.0,0.0,0.0,0.0,0.0,0.0,0.0,0.0,0.0,0.0,0.0,0.0,0.0,0.0,0.0,0.0,0.0,0.0,0.0,0.0,0.0,0.0,0.0,0.0,0.0,0.0,0.0,0.0,0.0,0.0,0.0,0.0,0.0,0.0,0.0,0.0,0.0,0.0,0.0,0.0,0.0,0.0,0.0,0.0,0.0,0.0,0.0,0.0,0.0,0.0,0.0,0.0,0.0,0.0,0.0,0.0,0.0,0.0,0.0,0.0,0.0,0.0,0.0,0.0,0.0,0.0,0.0,0.0,0.0,0.0,0.0,0.0,0.0,0.0,0.0,0.0,0.0,0.0,0.0,0.0,0.0,0.0,0.0,0.0,0.0,-2.0867,0.0,0.0,0.0,0.0,0.0,0.0,0.0,0.0,0.0,0.0,0.0,0.0,0.0,0.0,0.0,0.0,0.0,0.0,0.0,0.0,0.0,0.0,0.0,0.0,0.0,0.0,0.0,0.0,0.0,0.0,0.0,0.0,0.0,0.0,0.0,0.0,0.0,0.0,0.0,0.0,0.0,0.0,0.0,0.0,0.0,0.0,0.0,0.0,0.0,0.0,0.0,0.0,0.0,0.0,0.0,0.0,0.0,0.0,0.0,0.0,0.0,0.0,0.0,0.0,0.0,0.0,0.0,0.0,0.0,0.0,0.0,0.0,0.0,0.0,0.0,0.0,0.0,0.0,0.0,0.0,0.0,0.0,0.0,0.0,0.0,0.0,0.0,0.0,0.0,0.0,0.0,0.0,0.0,0.0,0.0,0.0,0.0,0.0,0.0,0.0,0.0,0.0,0.0,0.0,0.0,0.0,0.0,0.0,-2.0566,-2.0566,-2.0566,-2.0566,-2.0566,-2.0566,-2.0566,-2.1155,-2.1952,-2.1155,0.0,0.0,0.0,0.0,0.0,0.0,0.0,0.0,0.0,0.0,0.0,0.0,0.0,0.0,0.0,0.0,0.0,0.0,0.0,0.0,0.0,0.0,0.0,0.0,0.0,0.0,0.0,0.0,0.0,0.0,0.0,0.0,0.0,0.0,0.0,0.0,0.0,0.0,-1.6636,-1.7706,-1.8721,-1.9683,0.0,0.0,0.0,0.0,0.0,0.0,0.0,0.0,0.0,0.0,0.0,0.0,0.0,0.0,0.0,0.0,0.0,0.0,0.0,0.0,0.0,0.0,0.0,0.0,0.0,0.0,0.0,0.0,0.0,0.0,0.0,0.0,0.0,0.0,0.0,0.0,0.0,0.0,0.0,0.0,0.0,0.0,0.0,0.0,-1.4088,-1.4088,0.0,0.0,0.0,0.0,0.0,0.0,0.0,0.0,0.0,0.0,0.0,0.0,0.0,-2.0596,-2.0654,-2.0596,-2.0566,-2.0566,-2.0566,-2.0566,-2.0566,-2.0566,-2.0566,-2.0566,-2.0566,0.0,-2.1952,-2.1886,0.0,0.0,0.0,0.0,0.0,0.0,0.0,0.0,0.0,0.0,0.0,0.0,0.0,0.0,0.0,0.0,0.0,0.0,0.0,0.0,0.0,0.0,0.0,0.0,0.0,0.0,0.0,0.0,0.0,0.0,0.0,0.0,0.0,0.0,0.0,0.0,-1.4486,-1.527,-1.579,-1.6228,-1.7207,-1.8654,-1.9814,-2.1362,-2.3119,-2.4741,0.0,0.0,0.0,0.0,0.0,0.0,0.0,0.0,0.0,0.0,0.0,0.0,0.0,0.0,0.0,0.0,0.0,0.0,0.0,0.0,0.0,0.0,0.0,0.0,0.0,0.0,0.0,0.0,0.0,0.0,0.0,0.0,0.0,0.0,0.0,0.0,0.0,0.0,0.0,-1.2169,-1.2169,-1.2169,-1.33,-1.3822,0.0,0.0,0.0,0.0,0.0,0.0,0.0,0.0,0.0,-2.0566,-2.0566,-2.0566,-2.0566,-2.0566,-2.0566,-2.0566,-2.0566,-2.0566,-2.0566,-2.0566,-2.0566,-2.0644,-2.1155,-2.1962,-2.2776,-2.2253,-2.2702,-2.3745,0.0,0.0,0.0,0.0,-2.6533,-2.6589,0.0,0.0,0.0,0.0,0.0,0.0,0.0,0.0,0.0,0.0,0.0,0.0,0.0,0.0,0.0,0.0,0.0,0.0,0.0,0.0,0.0,0.0,0.0,0.0,0.0,0.0,0.0,0.0,-1.3233,-1.4179,-1.5213,-1.518,-1.6228,-1.8066,-1.8864,-2.037,-2.2518,-2.4557,-2.5728,0.0,0.0,0.0,0.0,0.0,0.0,0.0,0.0,0.0,0.0,0.0,0.0,0.0,0.0,0.0,0.0,0.0,0.0,0.0,0.0,0.0,0.0,0.0,0.0,0.0,0.0,0.0,0.0,0.0,0.0,0.0,0.0,0.0,0.0,0.0,0.0,0.0,0.0,-1.0697,-1.095,-1.0611,-1.2693,-1.3646,0.0,0.0,0.0,0.0,0.0,0.0,-1.8957,-1.9036,-1.952,-2.0566,-2.0566,-2.0566,-2.0566,-2.0566,-2.0566,-2.0566,-2.0566,-2.0566,-2.0566,-2.0566,-2.0712,-2.1011,-2.1669,-2.2702,-2.3818,-2.3073,-2.3672,-2.5016,-2.53,-2.5229,-2.5158,-2.6094,-2.6533,-2.6589,0.0,0.0,0.0,0.0,0.0,0.0,0.0,0.0,0.0,0.0,0.0,0.0,0.0,0.0,0.0,0.0,0.0,0.0,0.0,0.0,0.0,0.0,0.0,0.0,0.0,0.0,0.0,-1.2305,-1.3233,0.0,-1.5201,-1.5221,-1.6228,-1.8066,-1.8864,-1.9771,-2.0962,-2.4071,-2.5398,-2.5618,0.0,0.0,0.0,0.0,0.0,0.0,0.0,0.0,0.0,0.0,0.0,0.0,0.0,0.0,0.0,0.0,0.0,0.0,0.0,0.0,0.0,0.0,0.0,0.0,0.0,0.0,0.0,0.0,0.0,0.0,0.0,0.0,0.0,0.0,0.0,0.0,0.0,0.0,0.0,-1.0697,-1.2693,0.0,0.0,0.0,0.0,-1.5621,-1.5779,-1.6756,-1.8877,-1.9036,-1.952,-2.0566,-2.0566,-2.0566,-2.0566,-2.0566,-2.0566,-2.0566,-2.0566,-2.0566,-2.0566,-2.0566,-2.1078,-2.1962,-2.1952,-2.3147,-2.4933,-2.4862,-2.4933,-2.5075,-2.6025,-2.5873,-2.5158,-2.6094,-2.6533,-2.6589,0.0,0.0,0.0,0.0,0.0,0.0,0.0,0.0,0.0,0.0,0.0,0.0,0.0,0.0,0.0,0.0,0.0,0.0,0.0,0.0,0.0,0.0,0.0,0.0,0.0,0.0,0.0,0.0,0.0,0.0,0.0,0.0,0.0,0.0,-1.8158,-1.9141,-2.0835,-2.4013,-2.5673,-2.6215,-2.7429,-2.814,0.0,0.0,0.0,0.0,0.0,0.0,0.0,0.0,0.0,0.0,0.0,0.0,0.0,0.0,0.0,0.0,0.0,0.0,0.0,0.0,0.0,0.0,0.0,0.0,0.0,0.0,0.0,0.0,0.0,0.0,0.0,0.0,0.0,0.0,0.0,0.0,0.0,-1.0783,-1.2693,0.0,-1.2413,-1.4028,-1.5296,-1.5696,-1.7001,-1.8141,-1.8957,-1.9678,-2.0167,-2.0566,-2.0566,-2.0566,-2.0566,-2.0566,-2.0566,-2.0566,-2.0566,-2.0566,-2.0644,-2.1221,-2.1669,-2.2103,-2.3368,-2.4337,-2.5075,-2.5734,-2.5955,-2.6025,-2.6383,-2.6314,-2.6025,-2.6383,-2.6533,-2.6521,0.0,0.0,0.0,0.0,0.0,0.0,0.0,0.0,0.0,0.0,0.0,0.0,0.0,0.0,0.0,0.0,0.0,0.0,0.0,0.0,0.0,0.0,0.0,0.0,0.0,0.0,0.0,0.0,0.0,0.0,0.0,0.0,0.0,0.0,0.0,0.0,0.0,0.0,-2.5412,-2.6176,-2.693,-2.7645,-2.8189,0.0,0.0,0.0,0.0,0.0,0.0,0.0,0.0,0.0,0.0,0.0,0.0,0.0,0.0,0.0,0.0,0.0,0.0,0.0,0.0,0.0,0.0,0.0,0.0,0.0,0.0,0.0,0.0,0.0,0.0,0.0,0.0,0.0,0.0,0.0,-1.1895,-1.0783,-1.2693,-1.3646,-1.2413,-1.4028,-1.5462,-1.6191,-1.7577,-1.8709,-1.952,-2.0235,-2.0566,-2.0566,-2.0566,-2.0566,-2.0566,-2.0566,-2.0566,-2.0566,-2.0566,-2.0566,-2.0644,-2.1593,-2.2178,-2.2627,-2.4264,-2.5229,-2.5594,-2.6245,-2.6533,-2.6533,-2.6533,-2.6533,-2.6533,-2.6533,-2.6533,-2.6533,0.0,0.0,0.0,0.0,0.0,0.0,0.0,0.0,0.0,0.0,0.0,0.0,0.0,0.0,0.0,0.0,0.0,0.0,0.0,0.0,0.0,0.0,0.0,0.0,0.0,0.0,0.0,0.0,0.0,0.0,0.0,0.0,0.0,0.0,0.0,0.0,0.0,0.0,0.0,0.0,0.0,0.0,-2.7625,0.0,0.0,0.0,0.0,0.0,0.0,0.0,0.0,0.0,0.0,0.0,0.0,0.0,0.0,0.0,0.0,0.0,0.0,0.0,0.0,0.0,0.0,0.0,0.0,0.0,0.0,0.0,0.0,0.0,0.0,0.0,0.0,0.0,-0.9061,-1.0869,-1.1895,-1.0778,-1.2693,-1.3646,-1.2498,-1.3379,-1.4985,-1.718,-1.7342,-1.8301,-2.0479,-2.0566,-2.0566,-2.0566,-2.0566,-2.0566,-2.0566,-2.0566,-2.0644,-2.0644,-2.0644,-2.0644,-2.0712,-2.1659,-2.2627,-2.3588,-2.4636,-2.5594,-2.6533,-2.6533,-2.6533,-2.6533,-2.6533,-2.6533,-2.6533,-2.6533,-2.6533,-2.6533,0.0,0.0,0.0,0.0,0.0,0.0,0.0,0.0,0.0,0.0,0.0,0.0,0.0,0.0,0.0,0.0,0.0,0.0,0.0,0.0,0.0,0.0,0.0,0.0,0.0,0.0,0.0,0.0,0.0,0.0,0.0,0.0,0.0,0.0,0.0,0.0,0.0,0.0,0.0,0.0,0.0,0.0,-2.7625,0.0,0.0,0.0,0.0,0.0,0.0,0.0,0.0,0.0,0.0,0.0,0.0,0.0,0.0,0.0,0.0,0.0,0.0,0.0,0.0,0.0,0.0,0.0,0.0,0.0,0.0,0.0,0.0,0.0,0.0,0.0,0.0,-1.0183,-0.9061,-1.1655,-1.3124,-1.1986,-1.3209,-1.3997,-1.3646,-1.3906,-1.4985,-1.718,-1.7342,-1.8301,-2.0479,-2.0566,-2.0566,-2.0566,-2.0566,-2.0566,-2.0566,-2.0566,-2.0934,-2.1593,-2.1593,-2.1962,-2.2713,-2.3745,-2.4337,-2.4636,-2.5652,-2.6245,-2.6533,-2.6533,-2.6533,-2.6533,-2.6533,-2.6533,-2.6533,-2.6533,-2.6533,-2.6533,0.0,0.0,0.0,0.0,0.0,0.0,0.0,0.0,0.0,0.0,0.0,0.0,0.0,0.0,0.0,0.0,0.0,0.0,0.0,0.0,0.0,0.0,0.0,0.0,0.0,0.0,0.0,0.0,0.0,0.0,0.0,0.0,0.0,0.0,0.0,0.0,0.0,0.0,0.0,0.0,0.0,0.0,-2.7625,-2.7625,-2.7625,-2.7625,-2.7625,-2.7625,-2.7539,-2.7135,0.0,0.0,0.0,0.0,0.0,0.0,0.0,0.0,0.0,0.0,0.0,0.0,0.0,0.0,0.0,0.0,0.0,0.0,0.0,0.0,0.0,0.0,0.0,0.0,-0.9744,-1.0351,-0.9662,-1.1735,-1.3118,-1.2413,-1.3379,-1.4088,-1.4088,-1.4496,-1.547,-1.718,-1.7738,-1.8789,-2.0489,-2.0566,-2.0566,-2.0566,-2.0566,-2.0566,-2.0566,-2.0566,-2.1078,-2.2027,-2.2027,-2.2553,-2.3514,-2.4564,-2.5004,-2.5087,-2.6094,-2.6533,-2.6533,-2.6533,-2.6533,0.0,0.0,0.0,0.0,0.0,-2.6533,-2.6533,0.0,0.0,0.0,0.0,0.0,0.0,0.0,0.0,0.0,0.0,0.0,0.0,0.0,0.0,0.0,0.0,0.0,0.0,0.0,0.0,0.0,0.0,0.0,0.0,0.0,0.0,0.0,0.0,0.0,0.0,0.0,0.0,0.0,0.0,0.0,0.0,0.0,0.0,0.0,0.0,0.0,0.0,-2.7625,-2.7625,-2.7625,-2.7625,-2.7625,-2.7625,-2.7444,-2.6433,0.0,0.0,0.0,0.0,0.0,0.0,0.0,0.0,0.0,0.0,0.0,0.0,0.0,0.0,0.0,0.0,0.0,0.0,0.0,0.0,0.0,0.0,0.0,0.0,-1.0524,-1.0524,-1.0438,-1.1381,-1.2151,-1.2237,-1.3379,-1.4088,-1.4088,-1.5054,-1.6108,-1.7261,-1.839,-1.9441,-2.0566,0.0,0.0,0.0,0.0,-2.0789,-2.0789,-2.0857,-2.1375,-2.2328,-2.2328,-2.285,-2.3879,-2.4779,-2.5122,-2.5133,-2.5995,-2.6327,-2.6276,-2.6276,-2.6276,-2.6289,-2.6483,-2.6533,-2.6533,-2.6589,-2.6552,-2.6433,0.0,0.0,0.0,0.0,0.0,0.0,0.0,0.0,0.0,0.0,0.0,0.0,0.0,0.0,0.0,0.0,0.0,0.0,0.0,0.0,0.0,0.0,0.0,0.0,0.0,0.0,0.0,0.0,0.0,0.0,0.0,0.0,0.0,0.0,0.0,0.0,0.0,0.0,0.0,0.0,0.0,0.0,-2.7625,-2.7625,-2.7625,-2.7625,-2.7625,-2.7625,-2.7437,-2.6415,-2.5814,-2.5114,-2.3603,0.0,0.0,0.0,0.0,0.0,0.0,0.0,0.0,0.0,0.0,0.0,0.0,0.0,0.0,0.0,0.0,0.0,0.0,0.0,0.0,-0.9753,-1.0009,-1.0265,-0.9323,-1.0178,-1.1295,-1.2151,-1.3379,-1.4088,-1.4088,-1.5054,-1.6108,-1.7261,-1.839,-1.9441,-2.0566,-2.0566,-2.0566,-2.0566,-2.1298,-2.1735,-2.1735,-2.2553,-2.3452,-2.4409,0.0,0.0,-2.5943,-2.6094,-2.5915,-2.548,-2.5695,-2.5523,-2.5146,-2.5146,-2.5146,-2.5222,-2.6113,-2.6533,-2.6589,-2.7229,-2.6732,-2.5895,0.0,0.0,0.0,0.0,0.0,0.0,0.0,0.0,0.0,0.0,0.0,0.0,0.0,0.0,0.0,0.0,0.0,0.0,0.0,0.0,0.0,0.0,0.0,0.0,0.0,0.0,0.0,0.0,0.0,0.0,0.0,0.0,0.0,0.0,0.0,0.0,0.0,0.0,0.0,0.0,0.0,0.0,-2.8448,-2.8174,-2.8042,-2.7993,-2.771,-2.7357,-2.693,-2.604,-2.5605,-2.4975,-2.2567,-2.1243,-2.0216,0.0,0.0,0.0,0.0,0.0,0.0,0.0,0.0,0.0,0.0,0.0,0.0,0.0,0.0,-1.3913,0.0,0.0,-1.2595,-1.0869,-1.0611,-1.0611,-1.0611,-1.1128,-1.1638,-1.2242,-1.3379,-1.4088,-1.4088,-1.5545,-1.6683,-1.7261,-1.8868,-2.0001,-2.0566,-2.0361,-2.0244,-2.0244,-2.0537,-2.0851,-2.1282,-2.1782,-2.2786,-2.4139,-2.4139,-2.4711,-2.5636,-2.5636,-2.5485,-2.5209,-2.5209,-2.5059,-2.482,-2.482,-2.482,-2.487,-2.5831,-2.6167,-2.6297,-2.7093,-2.6894,-2.634,0.0,0.0,0.0,0.0,0.0,0.0,0.0,0.0,0.0,0.0,0.0,0.0,0.0,0.0,0.0,0.0,0.0,0.0,0.0,0.0,0.0,0.0,0.0,0.0,0.0,0.0,0.0,0.0,0.0,0.0,0.0,0.0,0.0,0.0,0.0,0.0,0.0,0.0,0.0,0.0,0.0,0.0,-2.98,-2.9178,-2.8748,-2.8415,-2.781,-2.7152,-2.6414,-2.5635,-2.519,-2.4446,-2.1922,-1.9684,-1.8021,-1.8035,-1.7976,0.0,0.0,0.0,0.0,0.0,0.0,0.0,0.0,0.0,-1.3868,-1.4056,-1.4027,-1.4015,-1.4075,-1.3118,-1.2242,-1.1986,-1.1042,-1.0697,-1.1809,-1.1986,-1.2157,-1.2589,-1.347,-1.4088,-1.4088,-1.6041,-1.7309,-1.7154,-1.9233,-2.04,-2.0322,-1.998,-1.9795,-1.9795,-1.981,-2.0186,-2.0875,-2.1226,-2.2115,-2.3568,-2.3568,-2.4042,-2.482,-2.482,-2.4757,-2.4657,-2.4544,-2.4494,-2.4494,-2.4621,-2.4672,-2.4798,-2.5529,-2.5868,-2.6136,-2.6951,-2.7083,-2.6809,0.0,0.0,0.0,0.0,0.0,0.0,0.0,0.0,0.0,0.0,0.0,0.0,0.0,0.0,0.0,0.0,0.0,0.0,0.0,0.0,0.0,0.0,0.0,0.0,0.0,0.0,0.0,0.0,0.0,0.0,0.0,0.0,0.0,0.0,0.0,0.0,0.0,0.0,0.0,0.0,0.0,0.0,-3.1459,-3.0875,-2.9718,-2.8415,-2.781,-2.7152,-2.6414,-2.5635,-2.4428,-2.3122,-2.2922,-2.062,-1.7997,-1.8027,0.0,-1.7979,-1.8016,-1.5542,-1.2862,-1.2442,-1.2282,-1.2599,0.0,0.0,-1.328,-1.3967,-1.3858,-1.3774,-1.4041,-1.3118,-1.1986,-1.0956,-0.984,-0.9492,-1.0611,-1.0778,-1.1563,-1.3646,-1.3997,-1.4088,-1.4088,-1.6041,-1.7113,-1.6784,-1.8724,-1.9824,-1.9453,-1.9385,-1.9355,-1.9355,-2.0896,-2.176,-2.1829,-2.3501,-2.4406,-2.4613,-2.4613,-2.4678,-2.482,-2.482,-2.4556,-2.4067,-2.354,-2.3265,-2.3326,-2.4079,-2.4373,-2.4432,-2.5154,-2.5883,-2.6572,-2.774,-2.7384,-2.6392,0.0,0.0,0.0,0.0,0.0,0.0,0.0,0.0,0.0,0.0,0.0,0.0,0.0,0.0,0.0,0.0,0.0,0.0,0.0,0.0,0.0,0.0,0.0,0.0,0.0,0.0,0.0,0.0,0.0,0.0,0.0,0.0,0.0,0.0,0.0,0.0,0.0,0.0,0.0,0.0,0.0,0.0,-3.1935,-3.054,-2.9609,-2.895,-2.8355,-2.7434,0.0,0.0,-2.3894,-2.28,-2.1529,-1.9666,-1.7976,-1.8007,-1.7997,0.0,-1.5278,-1.3536,-1.2276,0.0,-1.2309,-1.2437,-1.2948,-1.2775,-1.266,-1.2956,-1.3313,-1.3592,-1.3808,-1.2409,-1.1123,0.0,-0.9666,-0.9323,-1.0438,-1.1209,-1.2248,-1.3913,-1.3935,-1.3828,-1.3828,-1.5736,-1.6776,-1.6407,-1.8386,-1.9473,-1.9297,-1.9043,-1.8906,-1.8906,-1.9875,-2.0664,-2.1195,-2.2467,-2.3329,-2.3779,-2.3779,-2.3779,-2.3779,-2.3779,-2.3715,-2.3477,-2.3238,-2.3365,-2.3826,-2.4176,-2.4567,-2.5007,-2.5728,-2.6229,-2.6568,-2.7046,-2.7169,-2.6992,0.0,0.0,0.0,0.0,0.0,0.0,0.0,0.0,0.0,0.0,0.0,0.0,0.0,0.0,0.0,0.0,0.0,0.0,0.0,0.0,0.0,0.0,0.0,0.0,0.0,0.0,0.0,0.0,0.0,0.0,0.0,0.0,0.0,0.0,0.0,0.0,0.0,0.0,0.0,0.0,0.0,0.0,-3.2302,-3.0896,-3.0128,-2.9696,-2.8795,-2.7625,0.0,0.0,-2.3976,-2.2647,-2.0619,-1.9039,-1.8004,-1.7977,-1.8025,-1.7398,-1.4632,-1.3093,0.0,-1.2278,-1.2296,-1.2306,-1.2271,-1.2303,-1.2312,-1.2426,-1.2674,-1.2924,-1.3007,-1.1411,-0.9999,-0.9999,-0.924,-0.8987,-0.9833,-1.1185,-1.238,-1.3329,-1.3484,-1.3568,-1.3721,-1.5481,-1.639,-1.6029,-1.7972,-1.9062,-1.8936,-1.8633,-1.8467,-1.8467,-1.921,-1.9944,-2.059,-2.1678,-2.2506,-2.3078,-2.3078,-2.3078,-2.3078,-2.3078,-2.3078,-2.3078,-2.3078,-2.3543,-2.435,-2.4509,-2.5063,-2.5728,-2.6283,-2.6616,-2.6774,-2.6563,-2.6982,-2.7509,0.0,0.0,0.0,0.0,0.0,0.0,0.0,0.0,0.0,0.0,0.0,0.0,0.0,0.0,0.0,0.0,0.0,0.0,0.0,0.0,0.0,0.0,0.0,0.0,0.0,0.0,0.0,0.0,0.0,0.0,0.0,0.0,0.0,0.0,0.0,0.0,0.0,0.0,0.0,0.0,0.0,0.0,-3.2895,-3.2817,-3.2001,-3.0654,-2.9076,0.0,0.0,0.0,-2.477,-2.2609,-2.1073,-1.939,0.0,-1.8018,-1.7995,-1.7967,-1.7849,-1.5081,-1.2298,-1.2305,-1.2311,-1.2311,-1.2305,-1.2318,-1.2405,-1.2768,-1.1985,-1.1372,-1.1706,-0.9963,-0.8496,-0.8496,-0.8341,-0.8263,-0.8418,-1.0207,-1.1594,-1.1766,-1.2657,-1.3491,0.0,-1.5443,-1.602,-1.5667,-1.7477,-1.8477,-1.8066,-1.8037,-1.8027,-1.8027,-1.9694,-2.059,-2.059,-2.2249,-2.3078,-2.3078,-2.3078,-2.3078,-2.3078,-2.3078,-2.3078,-2.3078,-2.3078,-2.3543,-2.435,-2.5063,-2.5783,-2.6457,-2.651,-2.693,-2.7458,-2.6774,-2.6982,-2.7625,0.0,0.0,0.0,0.0,0.0,0.0,0.0,0.0,0.0,0.0,0.0,0.0,0.0,0.0,0.0,0.0,0.0,0.0,0.0,0.0,0.0,0.0,0.0,0.0,0.0,0.0,0.0,0.0,0.0,0.0,0.0,0.0,0.0,0.0,0.0,0.0,0.0,0.0,0.0,0.0,0.0,0.0,-3.3864,-3.2938,-3.2004,-3.1093,0.0,0.0,0.0,0.0,-2.5129,-2.4171,-2.1767,-1.9599,-1.8027,-1.8007,-1.6175,-1.4186,-1.424,-1.3288,-1.2271,-1.2278,-1.2305,-1.1983,-1.0644,-1.0662,-1.0783,-1.003,-1.0044,-1.0277,-1.0358,-0.9285,-0.8401,-0.8401,-0.7757,-0.7757,-0.9208,-1.0019,-1.0997,-1.2559,-1.2863,0.0,0.0,0.0,0.0,-1.6218,-1.7492,-1.8154,-1.8018,-1.8008,-1.8008,-1.8008,-1.9694,-2.059,-2.059,-2.2237,-2.3078,-2.3078,-2.3078,-2.3078,-2.3078,-2.3078,-2.3078,-2.3138,-2.3649,-2.4337,-2.5063,-2.5837,-2.6549,-2.7255,-2.7255,-2.7357,-2.7575,-2.7306,-2.7408,-2.7625,0.0,0.0,0.0,0.0,0.0,0.0,0.0,0.0,0.0,0.0,0.0,0.0,0.0,0.0,0.0,0.0,0.0,0.0,0.0,0.0,0.0,0.0,0.0,0.0,0.0,0.0,0.0,0.0,0.0,0.0,0.0,0.0,0.0,0.0,0.0,0.0,0.0,0.0,0.0,0.0,0.0,0.0,-3.4405,-3.3492,-3.2675,0.0,0.0,0.0,0.0,0.0,-2.6059,-2.57,-2.2756,-2.0105,-1.7716,-1.6341,-1.4206,-1.2267,-1.2297,-1.2324,-1.2271,-1.2285,-1.2305,-1.1983,-1.0644,-1.0736,-1.076,-0.9921,-0.9616,-0.9586,-0.9586,-0.8519,-0.7652,-0.7652,-0.7339,-0.7576,-0.8918,-0.9785,-1.0735,-1.2169,-1.2477,-1.2955,0.0,0.0,0.0,-1.6507,-1.7501,-1.8008,-1.8008,-1.8269,-1.8337,-1.8008,-2.0009,-2.091,-2.059,-2.2237,-2.3078,-2.3078,-2.3078,-2.3078,-2.3078,-2.3078,-2.3258,-2.3543,-2.406,-2.4851,-2.5837,-2.6283,-2.693,-2.7625,-2.7625,-2.7625,-2.7625,-2.7625,-2.7625,-2.7625,0.0,0.0,0.0,0.0,0.0,0.0,0.0,0.0,0.0,0.0,0.0,0.0,0.0,0.0,0.0,0.0,0.0,0.0,0.0,0.0,0.0,0.0,0.0,0.0,0.0,0.0,0.0,0.0,0.0,0.0,0.0,0.0,0.0,0.0,0.0,0.0,0.0,0.0,0.0,0.0,0.0,0.0,-3.4565,-3.4564,0.0,0.0,0.0,0.0,0.0,0.0,0.0,-2.7045,-2.3838,-2.0487,-1.6995,-1.3371,-1.2331,-1.2322,-1.2304,-1.2305,-1.2305,-1.2305,-1.2305,-1.2298,-1.2224,-1.2224,-1.2224,-1.2077,-1.0571,-0.9221,0.0,0.0,-0.6338,-0.6338,-0.7099,-0.7787,-0.7872,-0.9528,-1.0807,0.0,0.0,0.0,0.0,0.0,0.0,-1.6498,0.0,-1.8008,-1.8008,-1.8787,-1.8844,-1.8076,-2.0526,-2.1428,-2.0655,-2.231,-2.3078,-2.3078,-2.3078,-2.3078,-2.3078,-2.3078,-2.3543,-2.4292,-2.435,-2.5175,-2.651,-2.6563,-2.6982,-2.7625,-2.7625,-2.7625,-2.7625,-2.7625,-2.7625,-2.7625,0.0,0.0,0.0,0.0,0.0,0.0,0.0,0.0,0.0,0.0,0.0,0.0,0.0,0.0,0.0,0.0,0.0,0.0,0.0,0.0,0.0,0.0,0.0,0.0,0.0,0.0,0.0,0.0,0.0,0.0,0.0,0.0,0.0,0.0,0.0,0.0,0.0,0.0,0.0,0.0,0.0,0.0,-3.5394,0.0,0.0,0.0,0.0,0.0,0.0,0.0,0.0,0.0,0.0,-1.6774,-1.3558,-1.2569,-1.2263,-1.2284,-1.2285,-1.2305,-1.2305,-1.2305,-1.2305,-1.2077,-1.1316,-1.1162,-1.0789,-0.9291,-0.8537,-0.7936,0.0,0.0,0.0,-0.6338,-0.649,0.0,-0.8975,-0.9694,0.0,-1.2088,0.0,-1.2914,-1.3622,-1.4593,0.0,0.0,-1.7501,-1.8008,-1.8008,-1.8202,-1.8529,-1.8977,-2.0268,-2.1175,-2.1553,-2.2567,-2.3078,-2.3078,-2.3078,-2.3078,-2.3078,-2.3078,-2.3543,-2.435,-2.4908,-2.5618,-2.6563,-2.7086,-2.7408,-2.7625,-2.7625,-2.7625,-2.7625,-2.7625,-2.7625,-2.7625,0.0,0.0,0.0,0.0,0.0,0.0,0.0,0.0,0.0,0.0,0.0,0.0,0.0,0.0,0.0,0.0,0.0,0.0,0.0,0.0,0.0,0.0,0.0,0.0,0.0,0.0,0.0,0.0,0.0,0.0,0.0,0.0,0.0,0.0,0.0,0.0,0.0,0.0,0.0,0.0,0.0,0.0,0.0,0.0,0.0,0.0,0.0,0.0,0.0,0.0,0.0,-2.0281,-1.6624,-1.4033,-1.2312,-1.2308,0.0,-1.2304,-1.2285,-1.2305,-1.2305,-1.2305,-1.2305,-1.215,-1.162,-1.1465,-1.1013,-0.9437,-0.8761,0.0,-0.7176,-0.6567,0.0,0.0,0.0,0.0,-0.8728,-0.9385,-1.0366,0.0,-1.2588,0.0,-1.3252,-1.4472,-1.5446,0.0,-1.7217,-1.8008,-1.8008,-1.8327,-1.8787,-1.9299,-2.0526,-2.1553,-2.2445,-2.2884,-2.3078,-2.3078,-2.3078,-2.3078,-2.3138,-2.3484,-2.4047,-2.4851,0.0,-2.6283,-2.6982,-2.7408,-2.7625,-2.7625,-2.7625,-2.7625,-2.7625,-2.7625,-2.7625,-2.7625,0.0,0.0,0.0,0.0,0.0,0.0,0.0,0.0,0.0,0.0,0.0,0.0,0.0,0.0,0.0,0.0,0.0,0.0,0.0,0.0,0.0,0.0,0.0,0.0,0.0,0.0,0.0,0.0,0.0,0.0,0.0,0.0,0.0,0.0,0.0,0.0,0.0,0.0,0.0,0.0,0.0,0.0,0.0,0.0,0.0,0.0,0.0,0.0,0.0,0.0,-1.2315,-1.2307,-1.2329,-1.2298,-1.2322,-1.2315,-1.2283,-1.2303,-1.2271,-1.2305,-1.2305,-1.2305,-1.2305,-1.2305,-1.2305,-1.2305,-1.1996,-1.1013,0.0,-0.8993,-0.8012,-0.6868,-0.6103,-0.6261,0.0,-0.6535,-0.7865,-0.8857,-1.0053,-1.1381,-1.2167,-1.2632,-1.2822,-1.429,-1.5234,-1.5234,-1.6941,-1.8008,-1.8008,-1.8721,-1.9243,-1.9497,-2.1164,-2.2384,-2.3078,-2.3078,-2.3078,-2.3078,-2.3078,-2.3078,-2.3138,-2.3943,-2.4681,-2.5453,-2.6176,-2.693,-2.7625,-2.7625,-2.7625,-2.7625,-2.7625,-2.7625,-2.7625,-2.7625,-2.7625,-2.7625,0.0,0.0,0.0,0.0,0.0,0.0,0.0,0.0,0.0,0.0,0.0,0.0,0.0,0.0,0.0,0.0,0.0,0.0,0.0,0.0,0.0,0.0,0.0,0.0,0.0,0.0,0.0,0.0,0.0,0.0,0.0,0.0,0.0,0.0,0.0,0.0,0.0,0.0,0.0,0.0,0.0,0.0,0.0,0.0,0.0,0.0,0.0,0.0,0.0,0.0,-1.2304,-1.2282,-1.2336,-1.2278,-1.2304,-1.2331,-1.2271,-1.2271,-1.2298,-1.2305,-1.2305,-1.2305,-1.2305,-1.2305,-1.2305,-1.2305,0.0,0.0,-0.997,-0.8993,-0.8012,-0.6237,-0.5237,-0.618,-0.555,-0.5743,-0.7865,-0.8417,-0.9418,0.0,-1.1694,-1.1975,-1.2766,-1.429,0.0,0.0,0.0,-1.8008,-1.8008,-1.8134,-1.8921,-2.0333,-2.199,-2.2944,-2.3078,-2.3078,-2.3078,-2.3078,-2.3078,-2.3078,-2.3138,-2.3943,-2.4681,-2.5453,-2.6176,0.0,-2.7625,-2.7625,-2.7625,-2.7625,-2.7625,-2.7625,-2.7625,-2.7625,-2.7625,-2.7625,0.0,0.0,0.0,0.0,0.0,0.0,0.0,0.0,0.0,0.0,-3.0168,-3.0865,0.0,0.0,0.0,0.0,0.0,0.0,0.0,0.0,0.0,0.0,0.0,0.0,0.0,0.0,0.0,0.0,0.0,0.0,0.0,0.0,0.0,0.0,0.0,0.0,0.0,0.0,0.0,0.0,0.0,0.0,0.0,0.0,0.0,0.0,0.0,0.0,0.0,0.0,-1.4892,-1.3485,-1.2601,-1.2305,-1.2305,-1.2305,-1.2305,-1.2305,-1.2305,-1.2305,-1.2305,-1.2305,-1.2305,-1.2305,-1.2305,0.0,0.0,0.0,-0.997,-0.8993,-0.8012,-0.6553,0.0,-0.5473,-0.5473,-0.5749,-0.6358,-0.756,0.0,-1.0584,-1.1135,-1.1714,0.0,0.0,0.0,0.0,0.0,-1.7501,-1.794,-1.8844,-1.9759,-2.059,-2.2249,-2.3078,-2.3078,-2.3078,-2.3305,-2.3708,-2.3708,-2.3943,-2.4323,-2.5119,-2.5618,-2.6,-2.6759,0.0,-2.7625,-2.7625,-2.7625,-2.7625,-2.7625,-2.7625,-2.7625,-2.7625,-2.7625,-2.7625,0.0,0.0,0.0,0.0,0.0,0.0,0.0,-3.0361,-2.9971,-2.8232,-2.8699,-2.9273,-2.943,-2.8407,0.0,0.0,0.0,0.0,0.0,0.0,0.0,0.0,0.0,0.0,0.0,0.0,0.0,0.0,0.0,0.0,0.0,0.0,0.0,0.0,0.0,0.0,0.0,0.0,0.0,0.0,0.0,0.0,0.0,0.0,0.0,0.0,0.0,0.0,0.0,0.0,-1.7511,-1.5394,-1.3252,-1.2291,-1.1996,-1.2224,-1.2305,-1.2305,-1.2305,-1.2305,-1.2305,-1.2305,-1.2305,-1.2305,-1.2305,-1.2305,0.0,0.0,-1.0121,-0.9069,-0.8237,0.0,-0.5786,0.0,-0.555,-0.5746,-0.5291,-0.6708,-0.8404,0.0,-1.0513,0.0,-1.2769,0.0,0.0,0.0,0.0,0.0,-1.8202,-1.9759,-2.0719,-2.0846,-2.231,-2.3078,-2.3078,-2.3078,-2.3484,-2.4292,-2.4292,-2.4681,-2.5453,-2.6176,-2.651,-2.6563,-2.7306,0.0,0.0,-2.7625,-2.7625,-2.7625,-2.7625,-2.7625,-2.7625,-2.7625,-2.7625,-2.7625,0.0,0.0,0.0,0.0,0.0,0.0,0.0,-2.9524,-2.9284,-2.8544,-2.8543,-2.7838,-2.5909,-2.7144,0.0,0.0,0.0,0.0,0.0,0.0,0.0,0.0,0.0,0.0,0.0,0.0,0.0,0.0,0.0,0.0,0.0,0.0,0.0,0.0,0.0,0.0,0.0,0.0,0.0,0.0,0.0,0.0,0.0,0.0,0.0,0.0,0.0,0.0,0.0,0.0,0.0,-1.7889,-1.4577,-1.2338,-1.1087,-1.1996,0.0,0.0,-1.2305,-1.2305,-1.2305,-1.2305,-1.2305,-1.2305,-1.2305,0.0,-1.2305,-1.215,-1.0651,-0.9296,-0.9145,0.0,0.0,0.0,0.0,-0.5162,-0.6041,-0.6589,-0.7663,-0.9872,0.0,0.0,-1.2923,0.0,0.0,0.0,0.0,0.0,-1.91,-2.0074,-2.0974,-2.1753,-2.2628,-2.3078,-2.3078,-2.3078,-2.3484,-2.4292,-2.4292,-2.4681,-2.5453,-2.6176,-2.651,-2.6563,-2.7306,0.0,0.0,-2.7625,-2.7625,-2.7625,-2.7625,-2.7625,-2.7625,-2.7625,-2.7625,-2.7675,0.0,0.0,0.0,0.0,0.0,0.0,0.0,-2.9009,-2.8199,-2.6608,-2.685,-2.6107,-2.3379,-2.3807,-2.381,0.0,0.0,0.0,0.0,0.0,0.0,0.0,0.0,0.0,0.0,0.0,0.0,0.0,0.0,0.0,0.0,0.0,0.0,0.0,0.0,0.0,0.0,0.0,0.0,0.0,0.0,0.0,0.0,0.0,0.0,0.0,0.0,0.0,0.0,0.0,0.0,0.0,-1.5585,-1.3466,0.0,0.0,-1.2305,-1.2305,-1.2305,-1.2305,-1.2305,-1.2305,-1.2305,-1.2305,-1.2305,0.0,-1.2305,-1.2305,-1.1168,-1.019,-1.019,-0.8214,0.0,0.0,0.0,0.0,-0.5392,0.0,-0.7442,-0.9597,-0.9867,0.0,0.0,0.0,0.0,0.0,0.0,0.0,-2.0009,-2.0398,-2.0974,-2.1877,-2.2689,-2.3078,-2.3078,-2.3078,-2.3708,-2.4951,-2.4951,-2.555,-2.6759,-2.7034,-2.7152,-2.7203,-2.7458,0.0,0.0,-2.7625,-2.7625,-2.7625,-2.7625,-2.7625,-2.761,-2.7993,-2.814,-2.8238,0.0,0.0,0.0,0.0,0.0,0.0,-2.8686,-2.81,-2.7155,-2.534,-2.5436,-2.4651,-2.1994,-2.123,-2.0574,-1.9659,0.0,0.0,0.0,0.0,0.0,0.0,0.0,0.0,0.0,0.0,0.0,0.0,0.0,0.0,0.0,0.0,-1.5913,-1.8732,0.0,0.0,0.0,0.0,0.0,0.0,0.0,0.0,0.0,0.0,0.0,0.0,0.0,0.0,0.0,0.0,0.0,0.0,0.0,0.0,0.0,0.0,-1.2505,-1.2432,-1.2432,-1.2371,-1.2305,-1.2305,-1.2305,-1.2305,0.0,0.0,-1.2305,-1.2305,-1.1465,-1.0783,-1.0783,-0.9135,-0.7544,0.0,0.0,-0.6038,-0.5364,-0.6275,-0.7753,0.0,0.0,0.0,0.0,0.0,0.0,0.0,0.0,0.0,-2.0526,-2.0846,-2.1365,-2.2261,-2.2823,-2.3078,-2.3078,-2.3078,-2.3872,-2.5398,-2.5398,-2.6162,-2.7625,-2.7625,-2.7625,-2.7625,-2.7625,0.0,0.0,-2.7625,-2.7625,-2.7625,-2.7625,-2.7625,-2.766,-2.8286,-2.8511,-2.8606,0.0,0.0,0.0,0.0,0.0,0.0,0.0,-2.651,-2.6229,-2.5508,-2.4673,-2.3502,-2.1884,-2.0079,-1.7982,-1.5492,0.0,0.0,0.0,0.0,0.0,0.0,0.0,0.0,0.0,0.0,0.0,0.0,0.0,0.0,0.0,0.0,0.0,0.0,0.0,0.0,0.0,0.0,0.0,0.0,0.0,0.0,0.0,0.0,0.0,0.0,0.0,0.0,0.0,0.0,0.0,0.0,0.0,0.0,0.0,0.0,-1.2979,-1.2815,-1.2815,-1.2525,-1.2305,-1.2305,-1.2305,-1.2305,0.0,-1.2305,-1.2305,-1.2305,-1.1465,-1.0783,-1.0783,-0.9135,-0.7783,-0.7783,0.0,0.0,-0.6451,-0.7558,0.0,0.0,0.0,0.0,0.0,0.0,0.0,0.0,0.0,0.0,-2.0526,-2.1428,-2.2261,-2.3078,-2.3078,-2.3078,-2.3078,-2.3078,-2.3872,-2.5398,-2.5398,-2.6162,-2.7625,-2.7625,-2.7625,-2.7625,0.0,0.0,0.0,-2.7625,-2.7625,-2.7625,-2.7625,-2.7625,-2.766,-2.8286,-2.8511,-2.8685,0.0,0.0,0.0,0.0,0.0,0.0,0.0,-2.5819,-2.4603,-2.3884,-2.2554,-2.14,-2.0533,-1.9297,-1.812,-1.6996,0.0,0.0,0.0,0.0,0.0,0.0,0.0,0.0,0.0,0.0,0.0,0.0,0.0,0.0,0.0,0.0,0.0,0.0,0.0,0.0,0.0,0.0,0.0,0.0,0.0,0.0,0.0,0.0,0.0,0.0,0.0,0.0,0.0,0.0,0.0,0.0,0.0,0.0,0.0,0.0,0.0,0.0,-1.3066,-1.2993,-1.2926,-1.2926,-1.2766,-1.2605,-1.2605,-1.2445,-1.2305,-1.2305,-1.2077,-1.162,-1.0938,-0.9739,-0.8618,-0.7936,-0.6949,0.0,0.0,0.0,0.0,0.0,0.0,0.0,0.0,0.0,0.0,0.0,0.0,0.0,-2.0526,-2.1428,-2.2261,-2.3078,-2.3078,-2.3078,-2.3078,-2.3662,-2.4394,-2.5398,-2.5906,-2.6654,-2.7625,-2.7625,-2.7625,0.0,0.0,0.0,0.0,-2.7625,-2.7625,-2.7625,-2.8042,-2.8238,-2.8319,-2.9361,-2.9717,-2.9848,0.0,0.0,0.0,0.0,0.0,0.0,0.0,-2.4788,-2.3454,-2.2874,-2.1342,-2.0322,-2.0191,-1.8556,-1.7442,-1.7133,0.0,0.0,0.0,0.0,0.0,0.0,0.0,0.0,0.0,0.0,0.0,0.0,0.0,0.0,0.0,0.0,0.0,0.0,0.0,0.0,0.0,0.0,0.0,0.0,0.0,0.0,-2.7347,0.0,0.0,0.0,0.0,0.0,0.0,0.0,0.0,0.0,0.0,0.0,0.0,0.0,-1.5101,-1.4058,0.0,-1.3293,-1.3213,-1.3213,-1.3066,0.0,-1.2919,-1.2779,-1.2645,-1.2645,-1.2552,-1.2159,-1.1169,-1.01,-0.9034,-0.8035,-0.7089,0.0,0.0,0.0,0.0,0.0,0.0,0.0,0.0,0.0,0.0,0.0,0.0,0.0,-2.059,-2.1741,-2.2567,-2.3065,-2.3078,-2.3258,-2.3543,-2.406,-2.4794,-2.5837,-2.6283,-2.6878,-2.7625,-2.7625,-2.7625,0.0,0.0,0.0,0.0,-2.786,-2.7959,-2.7993,-2.8591,-2.8826,-2.8966,-2.9935,-3.0293,-3.0393,0.0,0.0,0.0,0.0,0.0,0.0,0.0,0.0,0.0,0.0,-2.1029,-2.0132,-2.0532,-1.7971,-1.6277,0.0,0.0,0.0,0.0,0.0,0.0,0.0,0.0,0.0,0.0,0.0,0.0,-0.3852,-0.4828,-0.5269,-0.524,0.0,0.0,0.0,0.0,0.0,0.0,0.0,0.0,0.0,0.0,0.0,0.0,0.0,0.0,0.0,0.0,0.0,0.0,0.0,0.0,0.0,0.0,0.0,0.0,0.0,0.0,0.0,0.0,-1.348,-1.3273,-1.3273,0.0,0.0,-1.324,-1.3227,0.0,-1.3213,-1.2979,-1.2466,-1.1295,-1.0266,-0.9163,-0.8066,-0.7252,0.0,0.0,0.0,0.0,0.0,0.0,0.0,0.0,0.0,0.0,0.0,0.0,0.0,-2.059,-2.2187,-2.3078,-2.3078,-2.3138,-2.3531,-2.4292,-2.4408,-2.5119,-2.651,-2.6563,-2.693,-2.7625,-2.7625,-2.7625,0.0,0.0,0.0,0.0,-2.8238,-2.8511,-2.8559,-2.9225,-2.9451,-2.954,-3.0123,-3.0335,-3.0435,0.0,0.0,0.0,0.0,0.0,0.0,0.0,0.0,0.0,0.0,0.0,-2.0481,-2.0068,-1.7952,0.0,0.0,0.0,0.0,0.0,0.0,0.0,0.0,0.0,0.0,0.0,0.0,0.0,-0.6271,-0.6486,-0.6665,-0.663,-0.6851,0.0,0.0,0.0,0.0,0.0,0.0,0.0,0.0,0.0,0.0,0.0,0.0,0.0,0.0,-2.4181,-2.4036,0.0,0.0,0.0,0.0,0.0,0.0,0.0,0.0,-1.5545,-1.4398,-1.4085,0.0,-1.3881,-1.3881,-1.3707,-1.354,0.0,-1.3367,-1.3213,-1.3213,0.0,-1.2529,-1.0589,-1.0023,-0.9219,-0.7293,-0.684,-0.7163,-0.8497,0.0,0.0,0.0,0.0,0.0,0.0,0.0,0.0,0.0,0.0,-2.059,-2.059,-2.2187,-2.3078,-2.3078,-2.3708,-2.4118,-2.4292,-2.5398,-2.6176,-2.651,-2.7086,-2.7408,-2.7625,-2.7625,-2.7625,0.0,0.0,0.0,-2.7675,-2.8238,-2.8511,-2.8606,-2.9673,-3.0081,-3.0166,-3.0757,-3.0975,-3.1015,0.0,0.0,0.0,0.0,0.0,0.0,0.0,0.0,0.0,0.0,0.0,0.0,0.0,0.0,0.0,0.0,0.0,0.0,0.0,0.0,0.0,0.0,0.0,0.0,0.0,0.0,0.0,0.0,0.0,-0.7139,0.0,0.0,0.0,0.0,0.0,0.0,0.0,0.0,0.0,0.0,-2.1779,0.0,0.0,0.0,0.0,0.0,-2.3604,-2.3514,0.0,-2.1745,-2.0827,-2.0275,0.0,0.0,0.0,0.0,-1.6846,-1.5553,-1.5553,-1.4824,-1.4088,-1.4088,-1.3968,-1.3848,-1.3848,0.0,0.0,0.0,0.0,-1.2743,-1.0505,-1.05,-0.993,-0.7217,-0.7777,0.0,0.0,0.0,0.0,0.0,0.0,0.0,0.0,0.0,0.0,0.0,0.0,-2.0782,-2.1175,-2.2445,-2.3078,-2.3078,-2.453,-2.5121,-2.4794,-2.6242,-2.7118,-2.7451,-2.8181,-2.8502,-2.8502,-2.8502,-2.8502,0.0,0.0,0.0,-2.9042,-2.9943,-3.032,-3.0412,-3.1368,-3.1541,-3.1282,-3.1601,-3.1478,-3.1241,0.0,0.0,0.0,0.0,0.0,0.0,0.0,0.0,0.0,0.0,0.0,0.0,0.0,0.0,0.0,0.0,0.0,0.0,0.0,0.0,0.0,0.0,0.0,0.0,0.0,0.0,0.0,0.0,0.0,0.0,0.0,0.0,-0.7361,0.0,0.0,0.0,0.0,0.0,0.0,0.0,-2.1574,0.0,0.0,0.0,0.0,0.0,0.0,0.0,0.0,-2.2218,-2.1873,-2.1669,-2.0857,0.0,0.0,0.0,0.0,0.0,-1.6772,-1.547,-1.4088,-1.4088,-1.4088,-1.4088,-1.4088,0.0,0.0,0.0,0.0,0.0,0.0,-1.1416,0.0,0.0,0.0,0.0,0.0,0.0,0.0,0.0,0.0,0.0,0.0,0.0,0.0,0.0,0.0,-2.1088,-2.1996,-2.2825,-2.3362,-2.3558,-2.5477,-2.6299,-2.5841,-2.7152,-2.8111,-2.8757,-2.931,-2.9579,-2.9579,-2.9579,-2.9687,-2.9765,0.0,0.0,-3.0864,-3.2022,-3.2496,-3.2541,-3.316,-3.3017,-3.2459,-3.2459,-3.2133,-3.1771,0.0,0.0,0.0,0.0,0.0,0.0,0.0,0.0,0.0,0.0,0.0,0.0,0.0,0.0,0.0,0.0,0.0,0.0,0.0,0.0,0.0,0.0,0.0,0.0,0.0,0.0,0.0,0.0,0.0,0.0,-0.8755,-0.8755,-0.8299,0.0,0.0,0.0,-1.1828,-1.5321,-1.6851,-1.7106,-1.9501,0.0,0.0,0.0,0.0,0.0,0.0,0.0,0.0,-2.1659,-2.1105,-2.0789,-2.0644,0.0,0.0,0.0,0.0,0.0,-1.458,-1.4334,-1.4088,-1.4088,-1.4088,-1.4088,-1.4088,0.0,0.0,0.0,0.0,0.0,0.0,-1.2093,-1.1753,0.0,0.0,0.0,0.0,0.0,0.0,0.0,0.0,0.0,0.0,0.0,0.0,0.0,0.0,-2.1536,-2.2531,-2.3392,-2.4427,-2.5608,-2.6598,-2.7351,-2.7939,-2.8822,-2.9307,-2.943,-2.9535,-2.9579,-2.9579,-2.9579,-2.991,-3.0474,0.0,-3.0898,-3.1486,-3.2207,-3.2496,-3.2541,-3.316,-3.3339,-3.3237,-3.3237,-3.3464,-3.3856,0.0,0.0,0.0,0.0,0.0,0.0,0.0,0.0,0.0,0.0,0.0,0.0,0.0,0.0,0.0,0.0,0.0,0.0,0.0,0.0,0.0,0.0,0.0,0.0,0.0,0.0,0.0,0.0,0.0,-1.0116,-1.039,-1.039,-1.0232,-0.9875,0.0,0.0,-1.2952,-1.6624,-1.819,-1.8369,0.0,0.0,0.0,0.0,0.0,0.0,0.0,0.0,0.0,0.0,-2.1094,-2.0889,-2.0644,0.0,0.0,0.0,0.0,0.0,-1.5137,-1.4573,-1.4088,-1.4088,-1.4088,-1.4088,-1.4088,0.0,0.0,0.0,0.0,0.0,0.0,0.0,0.0,0.0,0.0,0.0,0.0,0.0,0.0,0.0,0.0,0.0,0.0,0.0,0.0,0.0,0.0,0.0,-2.3765,-2.424,-2.4975,-2.6056,-2.7162,-2.8155,-2.8901,-3.0066,-3.0447,-3.0088,-3.0447,-3.085,-3.1204,-3.1204,-3.1588,-3.2218,0.0,-3.2951,-3.3257,-3.3898,-3.4158,-3.4203,-3.4459,-3.4353,-3.399,-3.3857,-3.4389,-3.5291,0.0,0.0,0.0,0.0,0.0,0.0,0.0,0.0,0.0,0.0,0.0,0.0,0.0,0.0,0.0,0.0,0.0,0.0,0.0,0.0,0.0,0.0,0.0,0.0,0.0,0.0,-1.0108,-1.1919,-1.1176,-1.1201,-1.1902,-1.1683,-1.1614,0.0,0.0,0.0,-1.416,-1.7632,-1.9039,-1.9314,0.0,0.0,0.0,0.0,0.0,0.0,0.0,0.0,0.0,0.0,0.0,0.0,0.0,0.0,0.0,-1.8957,-1.7827,-1.6683,-1.5628,-1.4734,-1.4088,-1.4088,0.0,-1.4088,-1.4088,0.0,0.0,0.0,0.0,0.0,0.0,0.0,0.0,0.0,0.0,0.0,0.0,0.0,0.0,0.0,0.0,0.0,0.0,0.0,0.0,0.0,0.0,0.0,-2.4931,-2.519,-2.5729,-2.6778,-2.8002,-2.9103,-2.9871,-3.0952,-3.127,-3.0746,-3.1285,-3.191,-3.2586,-3.2586,-3.3039,-3.3836,-3.4382,-3.4688,-3.4894,-3.5362,-3.5622,-3.5622,-3.5622,-3.5338,-3.4959,-3.5031,-3.5647,-3.6506,0.0,0.0,0.0,0.0,0.0,0.0,0.0,0.0,0.0,0.0,0.0,0.0,0.0,0.0,0.0,0.0,0.0,0.0,0.0,0.0,0.0,0.0,0.0,0.0,0.0,-1.4006,-1.4019,-1.3121,-1.4128,-1.4163,-1.3275,-1.2278,-1.191,-1.192,0.0,0.0,-1.4064,-1.6727,-1.787,-1.8048,-2.0486,0.0,0.0,0.0,0.0,0.0,0.0,0.0,0.0,0.0,0.0,0.0,0.0,0.0,-1.8877,-1.7747,-1.6683,-1.5538,-1.4496,-1.4166,-1.4088,-1.4088,-1.4088,0.0,-1.4088,-1.4088,0.0,-1.4088,0.0,0.0,0.0,0.0,0.0,0.0,0.0,0.0,0.0,0.0,0.0,0.0,0.0,0.0,0.0,0.0,0.0,0.0,0.0,0.0,-2.5469,-2.6311,-2.737,-2.8724,-2.9667,-3.0511,-3.1334,-3.1452,-3.1452,-3.1407,-3.1452,-3.191,-3.2586,-3.2586,-3.3287,-3.4528,-3.4576,-3.4941,-3.5515,-3.5577,-3.5622,-3.5622,-3.5622,-3.5864,-3.6353,-3.7309,-3.7698,-3.7855,0.0,0.0,0.0,0.0,0.0,0.0,0.0,0.0,0.0,0.0,0.0,0.0,0.0,0.0,0.0,0.0,0.0,0.0,0.0,0.0,0.0,0.0,0.0,-1.4798,-1.4839,-1.3624,-1.3525,-1.4833,-1.5305,-1.5265,-1.4892,-1.4512,0.0,0.0,0.0,0.0,-1.6351,-1.8118,-1.9222,-2.0124,-2.1765,-2.2403,0.0,0.0,0.0,0.0,0.0,0.0,0.0,0.0,-2.2295,-2.1934,0.0,0.0,-1.9944,-1.7895,-1.7009,-1.6281,-1.458,-1.4088,-1.4088,-1.4088,-1.4088,0.0,0.0,-1.4088,-1.3822,-1.2832,-1.3457,0.0,0.0,0.0,0.0,0.0,0.0,0.0,0.0,0.0,0.0,0.0,0.0,0.0,0.0,0.0,0.0,0.0,0.0,0.0,-2.6138,-2.6972,-2.7889,-2.8989,-2.9827,-3.0703,-3.1482,-3.1482,-3.1739,-3.216,-3.216,-3.2532,-3.3251,-3.3633,-3.435,-3.5207,-3.5207,-3.5362,-3.5622,-3.5985,-3.6097,-3.6139,-3.6481,-3.6904,-3.7379,-3.7755,-3.8099,-3.8433,0.0,0.0,0.0,0.0,0.0,0.0,0.0,0.0,0.0,0.0,0.0,0.0,0.0,0.0,0.0,0.0,0.0,0.0,0.0,0.0,0.0,0.0,0.0,-1.5832,-1.5832,-1.3998,-1.3897,-1.5832,-1.5832,-1.5832,-1.5832,0.0,0.0,0.0,0.0,0.0,0.0,-1.9579,-2.0576,-2.1382,-2.2589,-2.3135,0.0,0.0,0.0,0.0,0.0,0.0,0.0,0.0,-2.2627,0.0,0.0,0.0,0.0,0.0,-1.7425,-1.6854,-1.4657,-1.4088,-1.4088,-1.4088,0.0,0.0,-1.4088,-1.4088,-1.3815,-1.2747,-1.3372,0.0,0.0,0.0,0.0,0.0,0.0,0.0,0.0,0.0,0.0,0.0,0.0,0.0,0.0,0.0,0.0,0.0,0.0,0.0,0.0,-2.767,-2.8492,-2.938,-3.0269,-3.097,-3.1482,-3.1739,-3.212,-3.2602,-3.3039,-3.3479,-3.3937,-3.4382,-3.4958,-3.5622,-3.5622,-3.5622,-3.5667,-3.6182,-3.6498,-3.6684,-3.721,-3.7614,-3.7911,-3.8099,-3.8382,-3.8707,0.0,0.0,0.0,0.0,0.0,0.0,0.0,0.0,0.0,0.0,0.0,0.0,0.0,0.0,0.0,0.0,0.0,0.0,0.0,0.0,0.0,0.0,0.0,-1.5832,-1.5832,-1.5832,-1.5832,-1.5832,-1.5832,-1.5832,-1.5832,-1.7131,0.0,0.0,0.0,0.0,0.0,0.0,-2.1293,-2.1391,-2.2589,-2.3135,-2.3222,0.0,0.0,0.0,0.0,0.0,0.0,0.0,-2.2861,0.0,0.0,0.0,0.0,0.0,-1.7714,-1.6854,-1.4741,-1.4088,-1.4088,0.0,0.0,0.0,-1.4088,-1.4088,-1.4088,-1.4088,0.0,0.0,0.0,0.0,0.0,0.0,0.0,0.0,0.0,0.0,0.0,0.0,0.0,0.0,0.0,0.0,0.0,0.0,0.0,0.0,0.0,-2.8556,-2.938,-3.0269,-3.1087,-3.1482,-3.1539,-3.2231,-3.2602,-3.2641,-3.3987,-3.4576,-3.4576,-3.4624,-3.4988,-3.5622,-3.5622,-3.5622,-3.5667,-3.6182,-3.6724,-3.7248,-3.772,-3.7893,-3.798,-3.8496,-3.8707,-3.8707,0.0,0.0,0.0,0.0,0.0,0.0,0.0,0.0,0.0,0.0,0.0,0.0,0.0,0.0,0.0,0.0,0.0,0.0,0.0,0.0,0.0,0.0,0.0,0.0,0.0,0.0,-1.5832,-1.5832,-1.5832,-1.5832,0.0,0.0,0.0,-1.7692,0.0,0.0,0.0,-2.1123,-2.1756,-2.2589,-2.296,-2.3135,-2.3135,0.0,0.0,0.0,0.0,0.0,0.0,0.0,0.0,0.0,0.0,0.0,0.0,-1.9705,-1.8468,-1.7416,-1.5688,-1.465,0.0,-1.4088,0.0,0.0,0.0,-1.4135,0.0,0.0,0.0,0.0,0.0,0.0,0.0,0.0,0.0,0.0,0.0,0.0,0.0,0.0,0.0,0.0,0.0,0.0,0.0,0.0,0.0,0.0,0.0,-2.9129,-3.0011,-3.0269,-3.1087,-3.1739,-3.2272,-3.2492,-3.3093,-3.4037,-3.4431,-3.4576,-3.464,-3.5098,-3.5407,-3.5622,-3.5622,-3.581,-3.6207,-3.7079,-3.7773,-3.8285,-3.8401,-3.8465,-3.8465,-3.8627,-3.8707,-3.8707,0.0,0.0,0.0,0.0,0.0,0.0,0.0,0.0,0.0,0.0,0.0,0.0,0.0,0.0,0.0,0.0,0.0,0.0,0.0,0.0,0.0,0.0,0.0,0.0,0.0,-1.6574,-1.6749,0.0,0.0,0.0,0.0,0.0,0.0,-1.8503,0.0,-2.0692,0.0,0.0,-2.2403,-2.3135,-2.3135,-2.3378,-2.3827,0.0,0.0,0.0,0.0,0.0,0.0,0.0,0.0,0.0,0.0,0.0,0.0,-2.0384,-1.8998,-1.7638,-1.6118,-1.4894,0.0,-1.4088,-1.4088,-1.4095,-1.4128,0.0,0.0,0.0,0.0,0.0,0.0,0.0,0.0,0.0,0.0,0.0,0.0,0.0,0.0,0.0,0.0,0.0,0.0,0.0,0.0,0.0,0.0,0.0,0.0,-2.9566,-3.045,-3.0777,-3.1219,-3.1853,-3.2586,-3.2841,-3.3547,-3.4576,-3.4894,-3.4988,-3.4988,-3.5424,-3.5622,-3.5622,-3.5827,-3.6316,-3.7041,-3.7649,-3.8216,-3.8707,-3.8707,-3.8707,-3.8707,-3.8707,-3.8707,-3.8707,0.0,0.0,0.0,0.0,0.0,0.0,0.0,0.0,0.0,0.0,0.0,0.0,0.0,0.0,0.0,0.0,0.0,0.0,0.0,0.0,0.0,0.0,0.0,0.0,0.0,0.0,0.0,0.0,0.0,0.0,0.0,0.0,-1.9579,-1.9761,0.0,-2.296,0.0,-2.3135,-2.3135,-2.3144,-2.3164,-2.3867,-2.4877,-2.6031,0.0,0.0,0.0,0.0,0.0,0.0,0.0,0.0,0.0,0.0,-2.2301,-2.0819,-1.9366,-1.7888,-1.6322,0.0,0.0,-1.4088,-1.4088,0.0,-1.4103,0.0,0.0,0.0,0.0,0.0,0.0,0.0,0.0,0.0,0.0,0.0,0.0,0.0,0.0,0.0,0.0,0.0,0.0,0.0,0.0,0.0,0.0,0.0,0.0,-2.995,-3.0718,-3.1467,-3.1582,-3.1951,-3.2695,-3.3339,-3.4037,-3.4688,-3.5316,-3.5622,-3.5622,-3.5622,-3.5622,-3.5694,-3.6249,-3.702,-3.7893,-3.7946,-3.8267,-3.8707,-3.8707,-3.8707,-3.8707,-3.8707,-3.8707,-3.8707,0.0,0.0,0.0,0.0,0.0,0.0,0.0,0.0,0.0,0.0,0.0,0.0,0.0,0.0,0.0,0.0,0.0,0.0,0.0,0.0,0.0,0.0,0.0,0.0,0.0,0.0,0.0,0.0,0.0,0.0,0.0,0.0,0.0,-2.0935,0.0,-2.2208,-2.3135,-2.3135,-2.3135,-2.3154,-2.4092,-2.4574,-2.4943,-2.6089,-2.7096,0.0,0.0,0.0,0.0,0.0,0.0,0.0,-2.4702,-2.3787,-2.2833,-2.2225,-2.094,-1.9407,-1.7946,-1.6482,0.0,0.0,-1.4088,-1.4095,-1.4108,0.0,0.0,0.0,0.0,0.0,0.0,0.0,0.0,0.0,0.0,0.0,0.0,0.0,0.0,0.0,0.0,0.0,0.0,0.0,0.0,0.0,0.0,0.0,-2.995,-3.0777,-3.1351,-3.1482,-3.2064,-3.268,-3.3391,-3.4037,-3.4736,0.0,-3.5515,-3.5622,-3.5622,-3.5622,-3.581,-3.6266,-3.6803,-3.736,-3.7928,-3.8332,-3.8596,-3.8707,-3.8707,-3.8707,-3.8707,-3.8707,-3.8707,-3.8707,0.0,0.0,0.0,0.0,0.0,0.0,0.0,0.0,0.0,0.0,0.0,0.0,0.0,0.0,0.0,0.0,0.0,0.0,0.0,0.0,0.0,0.0,0.0,0.0,0.0,0.0,0.0,0.0,0.0,0.0,0.0,0.0,0.0,-2.1293,0.0,-2.2492,-2.3135,-2.3135,-2.3388,-2.3974,-2.4574,-2.5377,-2.6193,-2.6997,-2.7962,-2.8923,-2.8923,0.0,0.0,0.0,0.0,0.0,0.0,0.0,-2.3844,-2.3527,-2.2094,-2.0336,-1.9484,0.0,0.0,-1.4446,0.0,0.0,0.0,0.0,0.0,0.0,0.0,0.0,0.0,0.0,0.0,0.0,0.0,0.0,0.0,0.0,0.0,0.0,0.0,0.0,0.0,0.0,0.0,0.0,0.0,-2.9827,-3.0269,-3.1087,-3.1482,-3.1482,-3.2216,-3.2949,-3.3582,-3.4284,-3.4941,-3.5622,-3.5622,-3.5739,-3.5968,-3.5968,-3.6291,-3.6803,-3.7323,-3.7808,-3.83,-3.8578,-3.8707,-3.8707,-3.8707,-3.8707,-3.8707,-3.8707,-3.8773,-3.8894,0.0,0.0,0.0,0.0,0.0,0.0,0.0,0.0,0.0,0.0,0.0,0.0,0.0,0.0,0.0,0.0,0.0,0.0,0.0,0.0,0.0,0.0,0.0,0.0,0.0,0.0,0.0,0.0,0.0,0.0,0.0,0.0,0.0,-2.1658,0.0,-2.3222,-2.3387,-2.3367,-2.4012,-2.5134,-2.5304,-2.6261,-2.7766,-2.8207,-2.8952,-2.9792,-2.9792,-2.9792,-2.9651,-2.8737,0.0,0.0,0.0,0.0,-2.504,-2.4619,-2.3038,-2.1133,-2.0652,0.0,-1.6201,-1.4965,-1.4657,0.0,0.0,0.0,0.0,0.0,0.0,0.0,0.0,0.0,0.0,0.0,0.0,0.0,0.0,0.0,0.0,0.0,0.0,0.0,0.0,0.0,0.0,0.0,0.0,-3.0329,-3.0524,-3.1263,-3.1697,-3.1697,-3.2532,-3.3182,-3.3786,-3.4447,-3.5052,-3.5622,-3.5694,-3.6028,-3.6539,-3.6603,-3.6904,-3.7323,-3.772,-3.8216,-3.8707,-3.8707,-3.8707,-3.8707,-3.8707,-3.8707,-3.8707,-3.8707,-3.8855,-3.9099,0.0,0.0,0.0,0.0,0.0,0.0,0.0,0.0,0.0,0.0,0.0,0.0,0.0,0.0,0.0,0.0,0.0,0.0,-1.6585,0.0,0.0,-2.1928,-2.2908,0.0,0.0,0.0,0.0,0.0,0.0,0.0,0.0,0.0,0.0,-2.2862,0.0,0.0,-2.4532,-2.4534,-2.5263,-2.6379,-2.7279,-2.7849,-2.8132,-2.918,-2.9683,-2.9792,-2.9792,-2.9792,-2.9779,-2.9639,-2.9512,0.0,0.0,0.0,-2.6109,-2.5059,-2.3836,-2.2399,0.0,0.0,-1.7147,0.0,-1.6854,-1.6609,0.0,0.0,0.0,0.0,0.0,0.0,0.0,0.0,0.0,0.0,0.0,0.0,0.0,0.0,0.0,0.0,0.0,0.0,0.0,0.0,0.0,0.0,-3.0147,-3.0584,-3.1278,-3.2048,-3.2437,-3.2437,-3.3684,-3.4382,-3.4479,-3.5144,-3.5515,-3.5622,-3.6054,-3.6563,-3.7114,-3.7488,-3.7755,-3.779,-3.7859,-3.8216,-3.8707,-3.8707,-3.8707,-3.8707,-3.8707,-3.8707,-3.8707,-3.8707,-3.8855,-3.9099,0.0,0.0,0.0,0.0,0.0,0.0,0.0,0.0,0.0,0.0,0.0,0.0,0.0,0.0,0.0,-1.6735,-1.7363,-1.8119,-1.8966,-2.0101,-2.1281,-2.2496,-2.3149,-2.3749,0.0,0.0,0.0,0.0,0.0,0.0,0.0,-2.3714,-2.3714,0.0,0.0,0.0,0.0,0.0,-2.6351,-2.7478,-2.7937,-2.8484,-2.913,-2.9639,-2.9792,-2.9792,-2.9792,-2.9792,-2.9792,-2.9792,-2.9792,-2.9829,-2.982,0.0,0.0,0.0,-2.5942,0.0,-2.0894,-1.9215,-1.8069,0.0,-1.7342,-1.7172,0.0,0.0,0.0,0.0,0.0,0.0,0.0,0.0,0.0,0.0,0.0,0.0,0.0,0.0,0.0,0.0,0.0,0.0,0.0,0.0,0.0,0.0,-3.1087,-3.1736,-3.212,-3.2788,-3.3145,-3.3145,-3.4087,-3.4576,-3.4576,-3.5582,-3.6207,-3.6481,-3.6724,-3.7097,-3.7614,-3.779,-3.7893,-3.7911,-3.8216,-3.8465,-3.8707,-3.8707,-3.8707,-3.8707,-3.8707,-3.8707,-3.8719,-3.8855,-3.9117,-3.9408,0.0,0.0,0.0,0.0,0.0,0.0,0.0,0.0,0.0,0.0,0.0,0.0,0.0,0.0,0.0,0.0,-1.8304,-1.9537,-2.0917,-2.1387,-2.2108,-2.3338,-2.3347,-2.3799,-2.4662,0.0,0.0,0.0,0.0,0.0,-2.4135,-2.4935,-2.4798,0.0,-2.4882,0.0,0.0,0.0,0.0,-2.8546,-2.8499,-2.9015,-2.9792,-2.9792,-2.9792,-2.9792,-2.9792,-2.9792,-2.9792,-2.9792,-2.9792,-2.9792,-2.9792,-2.9792,0.0,0.0,0.0,0.0,0.0,0.0,-1.9562,-1.8674,-1.8292,-1.806,0.0,0.0,0.0,0.0,0.0,0.0,0.0,0.0,0.0,0.0,0.0,0.0,0.0,0.0,0.0,0.0,0.0,0.0,0.0,0.0,0.0,0.0,-3.1946,-3.2695,-3.2841,-3.3495,-3.3836,-3.3836,-3.4479,-3.4925,-3.5048,-3.6071,-3.6865,-3.736,-3.736,-3.7614,-3.8099,-3.8099,-3.8099,-3.815,-3.8546,-3.8707,-3.8707,-3.8792,-3.8803,-3.8803,-3.8902,-3.8931,-3.8942,-3.9171,-3.9438,-3.9775,0.0,0.0,0.0,0.0,0.0,0.0,0.0,0.0,0.0,0.0,0.0,0.0,0.0,-1.9081,-1.9201,-1.9418,-1.953,-2.0128,-2.1556,-2.2877,-2.4105,-2.5489,-2.5499,0.0,-2.5664,-2.5254,0.0,0.0,0.0,0.0,-2.7071,-2.6613,-2.6389,-2.6318,-2.64,-2.6953,-2.7924,0.0,0.0,0.0,0.0,-2.9767,0.0,0.0,-2.9792,0.0,0.0,-2.9792,-2.9792,-2.9792,-2.9792,-2.9792,-2.9792,-2.9792,-2.9624,0.0,0.0,0.0,0.0,-2.3349,0.0,-2.18,0.0,0.0,0.0,0.0,0.0,0.0,0.0,0.0,0.0,0.0,0.0,0.0,0.0,0.0,0.0,0.0,0.0,0.0,0.0,0.0,0.0,0.0,0.0,0.0,-3.2532,-3.2895,-3.3479,-3.4186,-3.4528,-3.4528,-3.5207,-3.581,-3.6291,-3.6865,-3.7396,-3.7859,-3.7859,-3.815,-3.8658,-3.8658,-3.8658,-3.8658,-3.8707,-3.8707,-3.8719,-3.8971,-3.9072,-3.9099,-3.9432,-3.9552,-3.9552,-3.9576,-3.9775,-4.0081,0.0,0.0,0.0,0.0,0.0,0.0,0.0,0.0,0.0,0.0,0.0,0.0,0.0,-2.0264,-2.0456,-1.9622,-2.1219,-2.2791,-2.418,-2.4723,-2.5227,-2.5635,-2.5742,-2.5742,-2.5742,-2.6315,0.0,0.0,0.0,-2.7083,-2.7285,-2.7439,-2.7522,-2.7522,-2.7522,-2.7763,-2.8176,-2.8858,0.0,0.0,0.0,0.0,0.0,0.0,0.0,0.0,0.0,0.0,0.0,-2.9808,-2.9758,-2.9819,-2.9796,-2.977,-2.9611,-2.8426,0.0,0.0,0.0,0.0,0.0,-2.3075,-2.2253,-2.1364,0.0,0.0,0.0,0.0,0.0,0.0,0.0,0.0,0.0,0.0,0.0,0.0,0.0,0.0,0.0,0.0,0.0,0.0,0.0,0.0,0.0,0.0,0.0,-3.3987,-3.4235,-3.4894,-3.5253,-3.5253,-3.5793,-3.6522,-3.7342,-3.7542,-3.7911,-3.8415,-3.8415,-3.8496,-3.8707,-3.8707,-3.8707,-3.8707,-3.8707,-3.8707,-3.8719,-3.8999,-3.9099,-3.9133,-3.9481,-3.9599,-3.9622,-3.984,-4.0002,-4.012,0.0,0.0,0.0,0.0,0.0,0.0,0.0,0.0,0.0,0.0,0.0,0.0,0.0,0.0,-2.197,-2.1053,-2.2619,-2.4125,-2.4925,-2.5479,-2.5742,-2.5742,-2.5742,-2.5917,-2.6294,-2.6971,0.0,0.0,0.0,0.0,0.0,-2.8862,-2.8858,-2.8688,-2.8688,-2.8688,0.0,0.0,0.0,-2.9792,0.0,0.0,-2.9792,0.0,0.0,0.0,0.0,0.0,0.0,0.0,-3.062,-3.1461,-3.0193,0.0,0.0,0.0,0.0,0.0,-2.6376,0.0,0.0,0.0,0.0,-2.2403,-2.2103,0.0,0.0,0.0,0.0,0.0,0.0,0.0,0.0,0.0,0.0,0.0,0.0,0.0,0.0,0.0,0.0,0.0,0.0,0.0,0.0,0.0,0.0,0.0,-3.4941,-3.5362,-3.5694,-3.5854,-3.6545,-3.723,-3.7893,-3.8065,-3.835,-3.8707,-3.8707,-3.8707,-3.8707,-3.8707,-3.8707,-3.8707,-3.8707,-3.8707,-3.8719,-3.909,-3.9264,-3.9314,-3.9738,-3.9905,-3.9944,-4.0157,-4.0232,-4.025,0.0,0.0,0.0,0.0,0.0,0.0,0.0,0.0,0.0,0.0,0.0,0.0,0.0,0.0,0.0,-2.3767,-2.3721,-2.3721,-2.3721,-2.4975,-2.5742,-2.5742,-2.5742,-2.6294,-2.7589,-2.7127,-2.828,0.0,0.0,0.0,0.0,0.0,-3.0319,-2.9792,-2.9792,-2.9792,-2.9792,0.0,-2.9792,-2.9792,0.0,-2.9804,-2.9804,0.0,0.0,0.0,-2.9804,-2.9886,0.0,-2.9987,0.0,0.0,0.0,0.0,0.0,0.0,0.0,0.0,0.0,0.0,0.0,0.0,0.0,0.0,-2.2328,0.0,0.0,0.0,0.0,0.0,0.0,0.0,0.0,0.0,0.0,0.0,0.0,0.0,0.0,0.0,0.0,0.0,0.0,0.0,0.0,0.0,-3.4235,-3.4894,-3.5577,-3.5622,-3.5854,-3.6416,-3.7379,-3.7893,-3.7928,-3.8433,-3.8707,-3.8707,-3.8707,-3.8707,-3.8707,-3.8707,-3.8689,-3.8689,-3.8719,-3.8738,-3.8762,-3.9352,-3.9599,-3.9668,-4.0266,-4.0489,-4.0489,-4.0489,-4.0489,-4.0489,0.0,0.0,0.0,0.0,0.0,0.0,0.0,0.0,0.0,0.0,0.0,0.0,0.0,0.0,0.0,-2.5111,-2.512,-2.512,-2.512,-2.5489,-2.5742,-2.5742,-2.6572,-2.722,-2.7589,-2.9181,-3.0345,0.0,0.0,0.0,0.0,0.0,0.0,0.0,-2.9792,-2.9792,-2.9792,-2.9792,0.0,0.0,-2.9792,-3.02,0.0,0.0,0.0,0.0,0.0,-3.1616,-3.3886,0.0,-3.4651,-3.4825,0.0,0.0,0.0,0.0,0.0,0.0,-2.8568,0.0,0.0,0.0,0.0,0.0,0.0,0.0,0.0,0.0,0.0,0.0,0.0,0.0,0.0,0.0,0.0,0.0,0.0,0.0,0.0,0.0,0.0,0.0,0.0,0.0,0.0,0.0,-3.4941,-3.5407,-3.5577,-3.5985,-3.6416,-3.696,-3.7578,-3.8099,-3.8465,-3.8627,-3.8707,-3.8707,-3.8707,-3.8707,-3.8707,-3.8894,-3.8999,-3.8999,-3.9249,-3.9352,-3.9352,-3.9529,-3.9735,-4.0002,-4.0372,-4.0489,-4.0489,-4.0489,-4.0489,-4.0489,0.0,0.0,0.0,0.0,0.0,0.0,0.0,0.0,0.0,0.0,0.0,0.0,0.0,0.0,0.0,-2.5625,-2.5742,-2.5742,-2.5742,-2.5742,-2.5927,-2.6476,-2.722,-2.8038,-2.9039,-3.0287,-3.1273,-3.1965,0.0,0.0,0.0,0.0,0.0,0.0,0.0,0.0,0.0,0.0,0.0,0.0,-3.02,0.0,0.0,-3.1007,-3.0996,0.0,0.0,0.0,-3.5509,-3.553,-3.5483,0.0,0.0,0.0,0.0,0.0,0.0,0.0,0.0,0.0,0.0,0.0,0.0,0.0,-2.5276,-2.4815,-2.4696,0.0,0.0,0.0,0.0,0.0,0.0,0.0,0.0,0.0,0.0,0.0,0.0,0.0,0.0,0.0,0.0,-3.3987,-3.4576,-3.4576,-3.5207,-3.5694,-3.5941,-3.6626,-3.7173,-3.747,-3.7964,-3.8382,-3.8707,-3.8707,-3.8707,-3.8707,-3.8707,-3.8707,-3.8707,-3.8855,-3.8999,-3.9125,-3.9289,-3.9552,-3.9797,-3.9797,-3.9922,-4.012,-4.0389,-4.0489,-4.0489,-4.0489,-4.0489,-4.0489,0.0,0.0,0.0,0.0,0.0,0.0,0.0,0.0,0.0,0.0,0.0,0.0,0.0,0.0,0.0,0.0,-2.5742,-2.5742,-2.5742,-2.583,-2.639,-2.7589,-2.7861,-2.9039,-3.1122,-3.0858,-3.149,-3.3081,0.0,0.0,0.0,0.0,0.0,0.0,0.0,0.0,0.0,0.0,0.0,-3.0047,-3.0855,-3.1292,0.0,0.0,-3.2695,-3.318,-3.4896,-3.5521,-3.5532,-3.5525,-3.551,0.0,0.0,0.0,0.0,0.0,-3.2033,0.0,0.0,0.0,0.0,0.0,0.0,0.0,-2.6008,-2.6039,-2.6616,0.0,0.0,0.0,0.0,0.0,0.0,0.0,0.0,0.0,0.0,0.0,0.0,0.0,0.0,0.0,-3.3633,-3.4333,-3.4736,-3.4736,-3.5345,-3.5941,-3.6457,-3.7379,-3.7893,-3.7893,-3.8415,-3.8707,-3.8707,-3.8719,-3.8732,-3.8732,-3.8792,-3.8792,-3.8792,-3.8851,-3.898,-3.9212,-3.9238,-3.958,-4.0139,-4.0139,-4.0139,-4.0158,-4.0425,-4.0489,-4.0489,-4.0489,-4.0489,-4.0489,-2.4228,0.0,0.0,0.0,0.0,0.0,0.0,0.0,0.0,0.0,0.0,0.0,0.0,0.0,0.0,0.0,-2.5742,-2.5742,-2.5742,-2.6658,-2.7315,-2.7589,-2.9498,-3.0676,-3.1223,-3.2129,-3.2784,-3.3081,0.0,0.0,0.0,0.0,0.0,0.0,0.0,0.0,0.0,0.0,0.0,-3.0971,-3.1126,0.0,-3.2348,-3.2528,-3.355,-3.4946,-3.5338,-3.5502,-3.5481,-3.5499,-3.5499,-3.5517,0.0,0.0,0.0,-3.282,0.0,0.0,0.0,0.0,0.0,0.0,0.0,0.0,-2.8336,-2.8322,-2.8451,0.0,-2.8451,0.0,0.0,0.0,0.0,0.0,0.0,0.0,0.0,0.0,0.0,0.0,0.0,0.0,-3.4382,-3.5005,-3.5407,-3.5407,-3.5924,-3.6498,-3.7038,-3.7578,-3.7893,-3.7893,-3.8415,-3.8707,-3.8707,-3.8923,-3.9008,-3.9027,-3.9301,-3.9408,-3.9432,-3.9687,-3.9859,-3.9922,-4.0138,-4.03,-4.0406,-4.0406,-4.0406,-4.0441,-4.0473,-4.0489,-4.0489,-4.0489,-4.0489,-4.0489,-2.4658,0.0,0.0,0.0,0.0,0.0,0.0,0.0,0.0,0.0,0.0,0.0,0.0,0.0,0.0,0.0,0.0,0.0,0.0,0.0,-2.7861,-2.8495,-3.0226,-3.15,-3.214,-3.2797,-3.3081,-3.3081,0.0,0.0,0.0,0.0,0.0,0.0,0.0,0.0,0.0,0.0,-3.101,-3.194,-3.194,0.0,-3.3369,-3.3841,-3.4623,-3.5504,-3.5504,-3.5504,-3.5469,-3.551,-3.5502,0.0,0.0,-3.5502,-3.5213,0.0,-3.3973,-3.4199,0.0,0.0,0.0,-2.9561,0.0,0.0,0.0,-2.9317,-2.9628,-2.9628,-2.9628,-2.9766,-3.0147,0.0,0.0,0.0,0.0,0.0,0.0,0.0,0.0,0.0,0.0,0.0,-3.5052,-3.5407,-3.5694,-3.5985,-3.6706,-3.7268,-3.7542,-3.8032,-3.836,-3.8487,-3.877,-3.898,-3.9154,-3.9282,-3.9339,-3.9339,-3.9529,-3.9599,-3.9599,-3.9775,-3.9943,-4.0101,-4.0232,-4.0372,-4.0489,-4.0489,-4.0489,-4.0489,-4.0489,-4.0489,-4.0489,-4.0489,-4.0489,-4.0489,-2.5,0.0,0.0,0.0,0.0,0.0,0.0,0.0,0.0,0.0,0.0,0.0,0.0,0.0,0.0,0.0,0.0,0.0,0.0,0.0,0.0,-2.9681,-3.0956,-3.2052,-3.3081,-3.3081,-3.3081,-3.3081,0.0,0.0,0.0,0.0,0.0,0.0,0.0,0.0,0.0,0.0,0.0,-3.263,0.0,-3.324,-3.3841,-3.5056,-3.5504,-3.5504,-3.5504,-3.5504,-3.5499,-3.5473,-3.5489,-3.5504,-3.5504,-3.5504,0.0,0.0,0.0,0.0,0.0,0.0,0.0,0.0,0.0,-3.1161,0.0,0.0,0.0,-3.0524,-3.0524,0.0,0.0,0.0,0.0,0.0,0.0,0.0,0.0,0.0,0.0,0.0,0.0,0.0,-3.5694,-3.5739,-3.5985,-3.6522,-3.7379,-3.7962,-3.8111,-3.8535,-3.8913,-3.9205,-3.9205,-3.9314,-3.9599,-3.9668,-3.9709,-3.9709,-3.9757,-3.9778,-3.9778,-3.9778,-3.9924,-4.0177,-4.0177,-4.0304,-4.0489,-4.0489,-4.0489,-4.0489,-4.0489,-4.0489,-4.0489,-4.0489,-4.0489,-4.0489,-2.5059,-2.543,0.0,0.0,0.0,0.0,0.0,0.0,0.0,0.0,0.0,0.0,0.0,0.0,0.0,0.0,0.0,0.0,-2.74,0.0,0.0,0.0,-3.2239,-3.2982,-3.3081,-3.3081,-3.3081,-3.3081,0.0,0.0,0.0,0.0,0.0,0.0,-3.5467,0.0,0.0,0.0,-3.2502,0.0,-3.3512,-3.3405,0.0,-3.4777,-3.5504,-3.5504,-3.5504,-3.5504,-3.5519,0.0,-3.5484,-3.5504,0.0,-3.5504,-3.5504,-3.5359,0.0,0.0,0.0,0.0,0.0,0.0,-3.1351,0.0,0.0,0.0,-3.1351,-3.1351,0.0,0.0,0.0,0.0,0.0,0.0,0.0,0.0,-3.3547,-3.3989,0.0,-3.5222,-3.5431,0.0,0.0,-3.6291,-3.6522,-3.7076,-3.7614,-3.819,-3.8943,-3.9017,-3.9205,-3.9529,-3.9534,-3.9576,-3.9599,-3.9901,-4.0042,-4.0061,-4.0285,-4.0406,-4.0406,-4.0406,-4.0422,-4.0457,-4.0457,-4.0473,-4.0489,-4.0489,-4.0489,-4.0489,-4.0489,-4.0489,-4.0489,-4.0489,-4.0489,-4.0489,-2.5459,-2.5605,0.0,0.0,0.0,0.0,0.0,0.0,0.0,0.0,0.0,0.0,0.0,0.0,0.0,0.0,0.0,-2.7861,0.0,0.0,0.0,0.0,0.0,0.0,-3.3081,-3.3081,-3.3398,-3.4037,-3.4511,0.0,0.0,0.0,0.0,0.0,-3.636,0.0,-3.4681,0.0,-3.3717,0.0,0.0,0.0,0.0,-3.37,-3.4491,-3.5504,-3.5504,-3.5504,-3.5504,0.0,-3.5504,0.0,0.0,0.0,0.0,0.0,0.0,0.0,0.0,0.0,0.0,0.0,0.0,0.0,-3.1482,0.0,-3.1482,0.0,0.0,0.0,0.0,0.0,0.0,0.0,-3.4088,0.0,0.0,0.0,-3.5357,0.0,0.0,0.0,0.0,0.0,0.0,0.0,-3.8083,-3.8579,-3.9072,-3.9099,-3.9339,-3.988,-3.9901,-3.9944,-4.012,-4.0267,-4.0339,-4.0339,-4.0457,-4.0489,-4.0489,-4.0489,-4.0489,-4.0489,-4.0489,-4.0489,-4.0489,-4.0489,-4.0489,-4.0489,-4.0489,-4.0489,-4.0489,-4.0489,-4.0489,-4.0489,-2.6197,0.0,0.0,0.0,0.0,0.0,0.0,0.0,0.0,0.0,0.0,0.0,-2.5742,-2.5742,0.0,0.0,-2.7861,-2.8588,0.0,0.0,-3.1677,0.0,0.0,0.0,0.0,0.0,-3.3953,-3.4664,0.0,0.0,0.0,0.0,0.0,0.0,0.0,-3.6531,-3.6291,0.0,0.0,-3.5056,-3.4593,-3.4425,-3.4295,-3.3024,-3.3811,-3.5504,-3.5504,-3.5504,-3.5504,-3.5504,-3.5504,0.0,-3.5504,0.0,0.0,0.0,0.0,0.0,-3.3799,0.0,0.0,0.0,0.0,0.0,0.0,0.0,0.0,0.0,0.0,0.0,0.0,0.0,0.0,0.0,0.0,-3.5554,0.0,0.0,0.0,0.0,0.0,0.0,0.0,0.0,0.0,-3.7893,-3.8382,-3.8833,-3.9099,-3.9186,-3.9486,-4.0081,-4.0177,-4.0285,-4.0489,-4.0489,-4.0489,-4.0489,-4.0489,-4.0489,-4.0489,-4.0489,-4.0489,-4.0489,-4.0489,-4.0489,-4.0489,-4.0489,-4.0489,-4.0489,-4.0489,-4.0489,-4.0489,-4.0489,-4.0489,-4.0489,-2.7494,-2.6572,0.0,0.0,0.0,0.0,0.0,0.0,0.0,0.0,0.0,0.0,0.0,0.0,0.0,0.0,0.0,-2.9852,-3.1033,0.0,-3.3068,0.0,0.0,-3.3081,0.0,0.0,0.0,0.0,0.0,0.0,0.0,0.0,0.0,0.0,0.0,-3.7433,-3.6028,-3.6291,-3.5499,-3.4133,-3.5056,-3.5474,-3.5225,0.0,-3.3776,-3.5504,-3.5504,0.0,0.0,-3.5504,-3.5504,0.0,0.0,0.0,0.0,0.0,0.0,0.0,0.0,0.0,0.0,-3.1646,0.0,0.0,0.0,0.0,-3.1682,0.0,0.0,0.0,0.0,0.0,0.0,0.0,0.0,0.0,0.0,0.0,0.0,0.0,0.0,0.0,0.0,-3.7614,-3.7893,-3.7893,-3.8382,-3.8833,-3.9099,-3.9414,-3.9754,-4.0081,-4.0356,-4.0489,-4.0489,-4.0489,-4.0489,-4.0489,-4.0489,-4.0489,-4.0489,-4.0489,-4.0489,-4.0489,-4.0489,-4.0489,-4.0489,-4.0489,-4.0489,-4.0489,-4.0489,-4.0489,-4.0489,-4.0489,-4.0489,-4.0489,0.0,0.0,0.0,0.0,0.0,0.0,0.0,-2.5742,0.0,0.0,0.0,0.0,0.0,-2.6945,-2.7767,0.0,0.0,-3.1134,-3.2339,-3.2884,0.0,0.0,0.0,-3.3081,0.0,0.0,0.0,0.0,0.0,0.0,0.0,0.0,0.0,0.0,0.0,-3.787,0.0,0.0,0.0,0.0,0.0,-3.5504,-3.5394,0.0,0.0,-3.5504,-3.5504,-3.5504,0.0,-3.5504,-3.5504,-3.5504,-3.5504,-3.5504,-3.5415,-3.4966,-3.4666,0.0,0.0,0.0,-3.2362,-3.1704,0.0,0.0,0.0,0.0,0.0,0.0,0.0,0.0,0.0,0.0,0.0,0.0,0.0,0.0,0.0,0.0,0.0,0.0,0.0,0.0,0.0,0.0,0.0,-3.8433,-3.8596,-3.8833,-3.9099,-3.9414,-3.9754,-4.0081,-4.0356,-4.0489,-4.0489,-4.0489,-4.0489,-4.0489,-4.0489,-4.0489,-4.0489,-4.0489,-4.0489,-4.0489,-4.0489,-4.0489,-4.0489,-4.0489,-4.0489,-4.0489,-4.0489,-4.0489,-4.0489,-4.0489,-4.0489,-4.0489,-3.0045,0.0,0.0,0.0,0.0,0.0,0.0,0.0,0.0,0.0,-2.703,0.0,-2.8132,0.0,-2.9039,0.0,-3.1223,-3.1777,-3.2982,-3.3081,0.0,-3.3081,-3.3471,0.0,0.0,0.0,0.0,0.0,0.0,-3.8708,0.0,0.0,0.0,0.0,0.0,-3.825,-3.7388,0.0,-3.631,0.0,0.0,-3.5504,0.0,0.0,-3.5504,-3.5504,0.0,-3.5504,-3.5504,-3.5504,-3.5504,-3.5504,-3.5504,-3.5504,-3.537,-3.4681,-3.4307,-3.3888,-3.2811,-3.2347,0.0,-3.1586,-3.1482,0.0,-3.1482,0.0,0.0,0.0,0.0,0.0,0.0,0.0,0.0,0.0,0.0,0.0,0.0,-3.7248,0.0,0.0,0.0,0.0,0.0,0.0,-3.8707,-3.8707,-3.8707,-3.8792,0.0,0.0,-3.969,-3.9922,-4.0302,-4.0489,-4.0489,-4.0489,-4.0489,-4.0489,-4.0489,-4.0489,-4.0489,-4.0489,-4.0489,-4.0489,-4.0489,-4.0489,-4.0489,-4.0489,-4.0489,-4.0489,-4.0489,-4.0489,-4.0489,-4.0489,-4.0489,-4.0489,0.0,0.0,0.0,0.0,-2.9498,0.0,0.0,0.0,-2.9407,0.0,-2.9407,-2.9407,-2.9498,-2.9498,-2.9954,-3.1223,-3.1311,-3.1777,-3.2982,-3.3081,0.0,0.0,-3.4191,-3.4746,-3.4746,0.0,0.0,0.0,0.0,0.0,0.0,0.0,0.0,0.0,-3.9424,0.0,-3.7403,-3.7428,-3.6652,-3.5504,-3.5504,-3.5504,-3.5504,-3.5504,-3.5504,-3.5504,-3.5504,-3.5504,-3.5504,-3.5504,-3.5504,-3.5504,-3.5504,-3.5489,-3.5325,-3.4637,-3.3963,-3.3305,-3.2647,-3.2018,-3.1482,-3.1482,0.0,0.0,0.0,0.0,-3.1992,0.0,0.0,0.0,0.0,0.0,0.0,0.0,0.0,0.0,0.0,0.0,0.0,0.0,0.0,0.0,0.0,-3.8707,-3.8707,-3.8707,-3.8719,-3.8719,0.0,0.0,-3.9599,-3.9599,-4.0175,-4.0489,-4.0489,-4.0489,-4.0489,-4.0489,-4.0489,-4.0489,-4.0489,-4.0489,-4.0489,-4.0489,-4.0489,-4.0489,-4.0489,-4.0489,-4.0489,-4.0489,-4.0489,-4.0489,-4.0489,-4.0489,-4.0489,-4.0489,-3.2612,-3.2339,-3.2152,0.0,-3.0598,-2.9407,0.0,0.0,0.0,0.0,-2.9407,-2.9761,-3.0676,-3.0765,-3.1223,-3.2513,-3.2612,0.0,0.0,0.0,0.0,-3.4275,-3.4594,-3.5047,-3.5814,-3.7112,0.0,-3.7829,0.0,0.0,-3.9424,0.0,0.0,0.0,0.0,0.0,-3.7403,-3.7428,-3.6652,-3.5504,-3.5504,-3.5504,0.0,0.0,-3.5504,-3.5504,-3.5504,-3.5504,-3.5504,-3.5504,-3.5504,-3.5504,-3.5504,-3.516,-3.4607,-3.3948,-3.3275,-3.2617,-3.1958,-3.1601,-3.1482,-3.1482,-3.191,-3.2327,0.0,0.0,0.0,0.0,0.0,0.0,0.0,0.0,0.0,0.0,0.0,0.0,0.0,0.0,0.0,-3.8676,0.0,0.0,-3.8707,-3.8707,-3.8707,-3.8707,-3.8865,0.0,0.0,0.0,0.0,-3.9599,-3.9983,-4.0304,-4.0489,-4.0489,-4.0489,-4.0489,-4.0489,-4.0489,-4.0489,-4.0489,-4.0489,-4.0489,-4.0489,-4.0489,-4.0489,-4.0489,-4.0489,-4.0489,-4.0489,-4.0489,-4.0489,-4.0489,-4.0489,-4.0489,-3.3081,0.0,0.0,-3.3081,0.0,0.0,-3.1057,0.0,0.0,-3.1057,-3.1057,0.0,-3.1965,-3.2052,-3.2326,-3.3068,-3.3081,0.0,-3.3081,0.0,0.0,-3.4664,-3.5129,-3.5828,-3.6852,-3.7979,0.0,-3.8472,0.0,0.0,-3.9424,0.0,0.0,0.0,0.0,-3.8396,-3.7388,-3.6798,-3.6155,-3.5504,-3.5504,0.0,0.0,-3.5504,-3.5504,-3.5504,-3.5504,-3.5504,-3.5504,-3.5504,-3.5504,-3.5504,-3.5504,-3.504,-3.4352,-3.3694,-3.3036,-3.2362,-3.1661,-3.1754,-3.1951,-3.1951,-3.2532,-3.3039,-3.3039,-3.3339,-3.3786,0.0,0.0,0.0,0.0,0.0,0.0,0.0,0.0,0.0,0.0,0.0,0.0,0.0,-3.8707,-3.8707,-3.8707,-3.8707,-3.8707,-3.8707,-3.8844,0.0,0.0,0.0,0.0,-3.9599,-4.0043,-4.0356,-4.0489,-4.0489,-4.0489,-4.0489,-4.0489,-4.0489,-4.0489,-4.0489,-4.0489,-4.0489,-4.0372,-4.0389,-4.0489,-4.0372,-4.0389,-4.0489,-4.0489,-4.0489,-4.0489,-4.0489,-4.0489,-4.0489,0.0,0.0,0.0,0.0,0.0,0.0,0.0,-3.3081,0.0,-3.3081,0.0,-3.3081,-3.3081,-3.3081,-3.3081,-3.3081,0.0,-3.3081,-3.3081,-3.324,-3.3784,-3.4815,-3.5908,-3.693,-3.7994,-3.8943,-3.9424,0.0,0.0,0.0,0.0,0.0,0.0,0.0,0.0,0.0,0.0,-3.6008,-3.5504,-3.5504,-3.5504,-3.5504,-3.5504,-3.5504,-3.5504,-3.5504,-3.5504,-3.5504,-3.5504,-3.5504,-3.5504,-3.5489,-3.54,-3.4906,-3.4218,-3.3559,-3.2901,-3.2258,-3.1805,-3.212,-3.2641,-3.2695,-3.3251,-3.3735,-3.3735,-3.3786,-3.4037,-3.4592,-3.4736,-3.4894,0.0,0.0,0.0,0.0,0.0,0.0,0.0,0.0,0.0,0.0,0.0,0.0,-3.8707,-3.8707,-3.8707,-3.8707,0.0,0.0,0.0,0.0,0.0,-3.9534,-4.0082,-4.037,-4.037,0.0,-4.0489,-4.0457,-4.0457,-4.0457,-4.0457,-4.0406,-4.0406,-4.0422,-4.0195,-4.025,-4.0489,-4.025,-4.0304,-4.0489,-4.0489,-4.0489,-4.0489,-4.0489,-4.0489,-4.0489,0.0,0.0,0.0,0.0,0.0,-3.3081,-3.3081,-3.3081,-3.3081,-3.3081,-3.3081,-3.3081,-3.3081,-3.3081,-3.3081,-3.3081,-3.3081,0.0,0.0,0.0,0.0,-3.5894,-3.6944,-3.7994,-3.9104,-3.9265,-3.9424,0.0,0.0,0.0,0.0,0.0,0.0,0.0,0.0,0.0,-3.6631,-3.5839,0.0,-3.5504,-3.5504,-3.5504,-3.5504,-3.5504,-3.5504,-3.5504,-3.5504,-3.5504,-3.5504,-3.5504,-3.5504,-3.54,-3.4831,-3.4203,-3.3529,-3.2886,-3.2213,-3.179,-3.2247,-3.2477,-3.2749,-3.3287,-3.3937,-3.4431,-3.4431,-3.4847,-3.527,-3.5407,-3.5407,-3.547,-3.5577,0.0,0.0,0.0,0.0,0.0,0.0,0.0,0.0,0.0,0.0,-3.8707,0.0,-3.8707,-3.8707,0.0,0.0,0.0,0.0,0.0,0.0,0.0,-3.9557,0.0,0.0,0.0,-4.0389,-4.0158,-4.0158,-4.0158,-4.0158,-3.9882,-3.9903,-4.0158,-4.012,-4.025,-4.0489,-4.0457,-4.0457,-4.0489,-4.0489,-4.0489,-4.0489,-4.0489,-4.0489,-4.0489,0.0,0.0,0.0,0.0,0.0,0.0,0.0,-3.3484,0.0,-3.3081,-3.3081,-3.3081,-3.3081,-3.3081,-3.3081,-3.3081,-3.3081,-3.3313,-3.3869,-3.4428,-3.5373,-3.6944,-3.751,0.0,-3.9352,-3.9424,-3.9424,-3.9424,0.0,0.0,0.0,0.0,0.0,0.0,0.0,-3.6873,0.0,0.0,0.0,-3.5504,-3.5504,-3.5504,-3.5504,-3.5504,-3.5504,-3.5504,-3.5504,-3.5504,-3.5504,-3.5504,-3.5504,-3.5385,-3.4696,-3.4023,-3.3365,-3.2706,-3.2324,-3.2176,-3.2477,-3.3093,-3.3735,-3.4037,-3.464,-3.5098,-3.5098,-3.5362,-3.5622,-3.5622,-3.5622,-3.5711,-3.5985,-3.6028,0.0,0.0,0.0,0.0,0.0,0.0,0.0,0.0,0.0,0.0,0.0,0.0,0.0,0.0,0.0,0.0,0.0,0.0,0.0,0.0,0.0,0.0,0.0,0.0,0.0,-3.984,-3.984,-3.984,-3.9838,-3.9668,-3.969,-3.9819,-3.9645,-3.9757,-4.0043,-4.0043,-4.0138,-4.0285,-4.0285,-4.0372,-4.0489,-4.0489,-4.0489,-4.0489,0.0,-3.5061,0.0,0.0,-3.4884,0.0,-3.4897,-3.4262,-3.3628,-3.3154,-3.3081,-3.3081,-3.3081,-3.3081,-3.3081,-3.3081,-3.3313,-3.3797,-3.4664,-3.5142,-3.6094,-3.7753,-3.7994,-3.8546,-3.9352,-3.9424,-3.9424,0.0,0.0,0.0,0.0,0.0,0.0,0.0,0.0,0.0,0.0,0.0,-3.5659,-3.5504,-3.5674,-3.5659,-3.5504,-3.5504,-3.5504,-3.5504,-3.5504,-3.5504,-3.5504,-3.5668,-3.5619,-3.5355,-3.4532,-3.4012,-3.3548,-3.2764,-3.2686,-3.2841,-3.2986,-3.3786,-3.4624,-3.4783,-3.5207,-3.5622,-3.5622,-3.5622,-3.5622,-3.5622,-3.5622,-3.5783,-3.6308,-3.6139,0.0,0.0,0.0,0.0,0.0,0.0,0.0,0.0,0.0,0.0,-3.8707,0.0,0.0,0.0,0.0,0.0,-3.8707,0.0,0.0,0.0,0.0,-3.9481,-3.9427,0.0,-3.9576,-3.9486,-3.9486,-3.9486,-3.9486,-3.9432,-3.9432,-3.9481,-3.9212,-3.9314,-3.9709,-3.9709,-3.9901,-4.0177,-4.0177,-4.0302,-4.0489,-4.0489,-4.0489,-4.0489,0.0,0.0,0.0,0.0,0.0,0.0,-3.6053,-3.5974,-3.5265,-3.3313,-3.3081,-3.3081,-3.3081,-3.3081,-3.3081,-3.3081,-3.3953,-3.4594,-3.4664,-3.6489,-3.7601,-3.7753,-3.8708,-3.9265,-3.9424,-3.9424,-3.9424,0.0,0.0,0.0,0.0,0.0,0.0,0.0,0.0,0.0,0.0,-3.6185,-3.6125,-3.5534,-3.62,-3.6125,-3.5504,-3.5504,-3.5504,-3.5504,-3.5504,-3.5504,-3.5619,-3.6275,-3.6054,-3.528,-3.3993,-3.397,-3.4149,-3.2956,-3.3049,-3.3633,-3.4235,-3.4479,-3.4736,-3.5362,-3.556,-3.5622,-3.5622,-3.5622,-3.5622,-3.5622,-3.5622,-3.5783,-3.6308,-3.6764,-3.721,0.0,0.0,0.0,0.0,0.0,-3.8627,-3.8707,0.0,0.0,0.0,-3.8707,0.0,0.0,-3.8707,0.0,0.0,0.0,0.0,-3.875,0.0,-3.9027,-3.8792,-3.9327,-3.9457,-3.9152,-3.9152,-3.9152,-3.9152,-3.8884,-3.8913,-3.9152,-3.9107,-3.9462,-4.0042,-4.0042,-4.0213,-4.0473,-4.0473,-4.0473,-4.0489,-4.0489,-4.0489,-4.0489,0.0,0.0,0.0,0.0,0.0,0.0,0.0,-3.6604,-3.5894,-3.5034,-3.4952,-3.4952,-3.4952,-3.4952,-3.4952,-3.4952,-3.5346,-3.5908,-3.6489,-3.7357,-3.8069,-3.8708,-3.9177,-3.9424,-3.9424,-3.902,-3.8796,0.0,0.0,0.0,0.0,0.0,0.0,0.0,0.0,-3.6436,-3.6155,-3.5999,-3.6014,-3.6172,-3.6459,-3.6436,-3.6155,-3.6155,-3.5859,-3.5589,-3.603,-3.6153,-3.629,-3.704,-3.6489,-3.5416,-3.4953,-3.4689,-3.4376,-3.3467,-3.3684,-3.4284,-3.4528,-3.4894,-3.5253,-3.5515,-3.5622,-3.5622,-3.5622,-3.5622,-3.5622,-3.5622,-3.5622,-3.5854,-3.6724,-3.6803,-3.7097,0.0,0.0,0.0,0.0,0.0,0.0,-3.8707,0.0,-3.8707,0.0,0.0,0.0,0.0,0.0,0.0,0.0,0.0,0.0,-3.8707,0.0,-3.8803,-3.8707,-3.896,-3.898,-3.8855,-3.8855,-3.8855,-3.8873,-3.8732,-3.8762,-3.8855,-3.8855,-3.9008,-3.9261,-3.9261,-3.9427,-3.9652,-3.9652,-3.9905,-4.025,-4.025,-4.0356,-4.0489,-3.8308,0.0,-3.8546,0.0,-3.813,-3.7405,-3.8144,-3.7648,-3.709,-3.6906,-3.6878,-3.6704,-3.6263,-3.6198,-3.6129,-3.5963,-3.6184,-3.6654,-3.7207,-3.7504,-3.8047,-3.8755,-3.8826,0.0,-3.8826,-3.8347,-3.8108,-3.8108,-3.8108,0.0,0.0,0.0,0.0,0.0,-3.7261,-3.6925,-3.6949,-3.6637,-3.6661,-3.7003,-3.7212,-3.7138,-3.6954,-3.6963,-3.6633,-3.6275,-3.6751,-3.6963,-3.7084,-3.7847,-3.7125,-3.5843,-3.5744,-3.5321,-3.4755,-3.4097,-3.4382,-3.4894,-3.4894,-3.5253,-3.5622,-3.5622,-3.5622,-3.5622,-3.5622,-3.5622,-3.5622,-3.5622,-3.5622,-3.5924,-3.6981,-3.6882,-3.7097,-3.8465,0.0,0.0,0.0,-3.8707,0.0,0.0,-3.8707,-3.8707,-3.8707,-3.8707,0.0,0.0,0.0,0.0,0.0,0.0,0.0,0.0,0.0,0.0,-3.8707,-3.8707,-3.8707,-3.8707,-3.8707,-3.8707,-3.8707,-3.8707,-3.8707,-3.8707,-3.8707,-3.8732,-3.8833,-3.8833,-3.899,-3.9238,-3.9238,-3.9552,-3.9943,-3.9943,-4.0139,-4.0411,-3.9352,-3.9352,-3.9352,-3.9424,-3.9352,-3.9337,-3.9352,-3.9337,-3.9098,-3.8482,-3.8392,-3.7798,-3.6378,-3.6198,-3.5977,-3.5333,-3.6254,-3.6531,-3.5942,-3.6851,-3.7434,0.0,0.0,-3.7434,-3.7434,-3.7419,-3.7419,-3.7419,0.0,0.0,-3.7564,0.0,-3.8138,-3.8757,-3.807,-3.7801,-3.7824,-3.8531,-3.8438,-3.7867,-3.8581,-3.8421,-3.7814,-3.7792,-3.7764,-3.7764,-3.7806,-3.7806,-3.7921,-3.8635,-3.79,-3.6561,-3.5911,-3.5655,-3.5448,-3.479,-3.5052,-3.5577,-3.5577,-3.5577,-3.5622,-3.5622,-3.5622,-3.5622,-3.5622,-3.5622,-3.5622,-3.5622,-3.5622,-3.5924,-3.6981,-3.7173,-3.7524,-3.8546,0.0,0.0,0.0,0.0,0.0,-3.8707,-3.8707,-3.8707,-3.8707,-3.8707,0.0,0.0,0.0,0.0,0.0,0.0,0.0,-3.8707,-3.8707,0.0,-3.8707,-3.8707,-3.8707,-3.8707,-3.8707,-3.8707,-3.8707,-3.8707,-3.8707,-3.8707,-3.8707,-3.8855,-3.9099,-3.9099,-3.9289,-3.9599,-3.9599,-3.9599,-3.9599,-3.9599,-3.9819,-4.0215,-3.8048,-3.8048,-3.8048,-3.8048,-3.8048,-3.8048,-3.8048,-3.8048,-3.7973,-3.7749,-3.7719,-3.757,-3.7082,-3.704,-3.6952,0.0,-3.7031,-3.7113,0.0,-3.7198,-3.7404,-3.7404,-3.7404,-3.7404,-3.7404,-3.7,-3.6776,-3.6776,0.0,0.0,0.0,-3.8232,-3.8649,-3.8858,-3.864,-3.8565,-3.8515,-3.8264,-3.8297,-3.8537,-3.882,-3.8774,-3.8539,-3.8558,-3.8231,-3.7887,-3.8355,-3.8532,-3.8688,-3.9418,-3.8757,-3.7451,-3.7253,-3.6484,-3.5572,-3.5321,-3.5407,-3.5622,-3.5622,-3.5622,-3.5622,-3.5622,-3.5622,-3.5622,-3.5622,-3.5622,-3.5694,-3.6054,-3.6139,-3.644,-3.7506,-3.7685,-3.7877,-3.8596,-3.8707,0.0,0.0,0.0,-3.8707,-3.8707,-3.8707,-3.8707,-3.8707,-3.8707,0.0,0.0,0.0,0.0,0.0,0.0,0.0,0.0,-3.8707,0.0,-3.8707,-3.8707,-3.8707,-3.8707,-3.8707,-3.8707,-3.8707,-3.8707,-3.8707,-3.8707,-3.8707,-3.8732,-3.8815,-3.8815,-3.8902,-3.8998,-3.8998,-3.9082,-3.9364,-4.0193,-4.0653,-4.1074,-3.7404,-3.7404,-3.7404,-3.7404,-3.7404,-3.7404,-3.7404,-3.7404,-3.733,-3.709,-3.706,-3.6971,-3.6716,-3.6701,0.0,-3.7045,-3.706,-3.6956,-3.6701,-3.6701,-3.6701,-3.6701,-3.6701,-3.6701,-3.6701,-3.6597,0.0,-3.6516,-3.7128,-3.767,-3.8106,-3.8954,-3.9362,-3.9362,-3.9362,-3.9362,-3.9345,-3.8858,-3.8959,-3.9362,-3.9362,-3.9362,-3.9362,-3.9362,-3.9043,-3.869,-3.9194,-3.9324,-3.9428,-3.9935,-3.9292,-3.8261,-3.799,-3.706,-3.5994,-3.5707,-3.5622,-3.5622,-3.5622,-3.5622,-3.5622,-3.5622,-3.5622,-3.5622,-3.5622,-3.5739,-3.5985,-3.6333,-3.658,-3.6943,-3.7755,-3.7893,-3.8065,-3.8627,-3.8707,-3.8707,-3.8707,0.0,-3.8707,0.0,0.0,0.0,0.0,-3.8707,-3.8707,0.0,0.0,0.0,0.0,0.0,0.0,-3.8707,-3.8707,0.0,-3.8707,-3.8707,-3.8707,-3.8707,-3.8707,-3.8707,-3.8707,-3.8707,-3.8707,-3.8707,-3.8707,-3.8707,-3.8707,-3.8707,-3.8707,-3.8726,-3.9165,-3.9425,-3.9712,-4.0922,-4.1548,-4.1933,-3.727,-3.7338,0.0,0.0,-3.7285,0.0,-3.7285,-3.7285,-3.7075,-3.6492,-3.6417,-3.6178,-3.5564,-3.5504,-3.5744,-3.6372,0.0,0.0,0.0,-3.5504,-3.5504,-3.5504,-3.5504,-3.5504,-3.5554,-3.6275,-3.66,-3.6661,-3.8188,-3.8905,-3.8892,-3.9704,-4.007,-4.007,-4.007,-4.007,-4.007,-4.007,-4.007,-4.007,-4.007,-4.007,-4.007,-4.007,-4.007,-4.007,-4.007,-4.007,-4.007,-4.007,-3.9597,-3.887,-3.8142,-3.7381,-3.662,-3.5859,-3.5622,-3.5622,-3.5622,-3.5622,-3.5622,-3.5622,-3.5622,-3.5622,-3.5667,-3.6054,-3.6416,-3.6498,-3.6921,-3.7396,-3.7877,-3.7946,-3.8099,-3.8627,-3.8707,-3.8707,-3.8707,0.0,0.0,0.0,0.0,0.0,0.0,-3.8707,-3.8707,0.0,0.0,0.0,0.0,0.0,-3.8707,-3.8707,-3.8707,-3.8707,-3.8707,-3.8707,-3.8707,-3.8707,-3.8707,-3.8707,-3.8707,-3.8707,-3.8707,-3.8707,-3.8707,-3.8707,-3.8707,-3.8762,-3.8781,-3.8927,-4.0048,-4.0495,-4.067,-4.1795,-4.2424,-4.283,0.0,0.0,-3.6624,-3.6069,-3.5953,-3.5953,-3.5953,-3.5953,-3.5908,-3.5759,-3.5744,-3.5684,-3.5519,-3.5504,-3.5564,-3.5729,-3.5744,-3.5669,-3.5519,-3.5504,-3.5504,-3.5504,-3.5504,-3.5782,-3.6337,-3.6492,-3.6904,-3.7515,-3.8472,-3.8902,-3.8892,-3.9704,-4.007,-4.007,-4.007,-4.007,-4.007,-4.007,-4.007,-4.007,-4.007,-4.007,-4.007,-4.007,-4.007,-4.007,-4.007,-4.007,-4.007,-4.007,-3.9597,-3.887,-3.8142,-3.7381,-3.662,-3.5859,-3.5622,-3.5622,-3.5622,-3.5622,-3.5622,-3.5622,-3.5622,-3.5694,-3.6097,-3.6291,-3.6603,-3.7379,-3.7649,-3.7877,-3.8415,-3.8496,-3.8546,-3.8676,-3.8707,-3.8707,-3.8707,-3.8707,0.0,0.0,-3.8707,-3.8707,-3.8707,-3.8707,-3.8707,0.0,0.0,0.0,0.0,-3.8707,-3.8707,-3.8707,-3.8707,-3.8707,-3.8707,-3.8707,-3.8707,-3.8707,-3.8707,-3.8707,-3.8707,-3.8707,-3.8707,-3.8707,-3.8707,-3.8707,-3.8762,-3.935,-3.9785,-4.0095,-4.0961,-4.148,-4.1838,-4.3038,-4.3512,-4.3768,-3.6538,-3.6585,-3.6508,-3.6054,-3.6305,-3.643,-3.607,-3.6305,-3.6538,-3.6538,-3.6243,-3.6006,-3.6006,-3.6006,-3.6006,-3.6006,-3.5668,-3.5504,-3.5504,-3.5504,-3.5504,-3.5504,-3.5831,-3.6165,-3.66,-3.7291,-3.806,-3.8832,-3.9255,-3.9458,-3.9478,-3.9882,-4.007,-4.007,-4.007,-4.007,-4.007,-4.007,-4.007,-4.007,-4.007,-4.007,-4.007,-4.007,-4.007,-4.007,-4.007,-4.007,-4.007,-4.007,-3.9817,-3.936,-3.8633,-3.7889,-3.7144,-3.6383,-3.5893,-3.5622,-3.5622,-3.5622,-3.5622,-3.5622,-3.5766,-3.6054,-3.6333,-3.6764,-3.723,-3.779,-3.8099,-3.8332,-3.8658,-3.8707,-3.8707,-3.8707,-3.8707,-3.8707,-3.8707,-3.8707,0.0,-3.8707,-3.8707,-3.8707,-3.8707,-3.8707,-3.8707,-3.8707,-3.8707,0.0,-3.8707,-3.8707,-3.8707,-3.8707,-3.8707,-3.8707,-3.8707,-3.8707,-3.8707,-3.8707,-3.8707,-3.8707,-3.8707,-3.8707,-3.8909,-3.9239,-3.9239,-3.9547,-4.0059,-4.0503,-4.0867,-4.1285,-4.2266,-4.2759,-4.3076,-4.4248,-4.4691,-4.4767,-3.769,-3.7322,-3.6904,-3.6783,-3.7338,-3.7573,-3.6919,-3.7338,-3.7822,-3.7822,-3.7219,-3.6783,-3.6783,-3.6783,-3.6783,-3.6783,-3.618,-3.5861,-3.5861,-3.5861,-3.5861,-3.5861,-3.6461,-3.6843,-3.6948,-3.8342,-3.9437,-4.007,-4.007,-4.007,-4.007,-4.007,-4.007,-4.007,-4.007,-4.007,-4.007,-4.007,-4.007,-4.007,-4.007,-4.007,-4.007,-4.007,-4.007,-4.007,-4.007,-4.007,-4.007,-4.007,-4.007,-3.9952,-3.9225,-3.8565,-3.7922,-3.7161,-3.64,-3.5774,-3.5656,-3.5622,-3.5622,-3.5694,-3.6054,-3.6457,-3.6603,-3.7268,-3.7928,-3.8013,-3.8382,-3.8707,-3.8707,-3.8707,-3.8707,-3.8707,-3.8707,-3.8707,-3.8707,0.0,-3.8762,-3.8872,-3.8891,-3.8927,-3.9056,-3.9074,-3.9074,-3.9074,-3.9074,-3.9074,-3.9074,-3.9074,-3.9074,-3.9074,-3.8836,-3.8707,-3.8707,-3.8817,-3.8891,-3.8891,-3.9001,-3.9074,-3.9074,-3.9074,-3.9441,-4.0084,-4.0084,-4.0646,-4.1605,-4.1716,-4.2029,-4.2479,-4.3643,-4.4111,-4.4267,-4.5244,-4.5586,-4.5586,-3.7921,-3.8189,-3.8342,-3.7748,-3.769,-3.7764,-3.7632,-3.769,-3.7822,-3.7822,-3.769,-3.7632,-3.7632,-3.7632,-3.7632,-3.7632,-3.7531,-3.7472,-3.7472,-3.7472,-3.7472,-3.7472,-3.7573,-3.7905,-3.8509,-3.9437,-3.9952,-4.007,-4.007,-4.007,-4.007,-4.007,-4.007,-4.007,-4.007,-4.007,-4.007,-4.007,-4.007,-4.007,-4.007,-4.007,-4.007,-4.007,-4.007,-4.007,-4.007,-4.007,-4.007,-4.007,-4.007,-3.9952,-3.9225,-3.892,-3.8684,-3.7956,-3.7195,-3.6451,-3.5791,-3.5622,-3.5694,-3.6182,-3.6333,-3.6603,-3.7452,-3.779,-3.8013,-3.8465,-3.8627,-3.8707,-3.8707,-3.8707,-3.8707,-3.8707,-3.8707,-3.8707,-3.8707,0.0,-3.8946,-3.9625,-3.9698,-3.9974,-4.0671,-4.0744,-4.0744,-4.0744,-4.0744,-4.0744,-4.0744,-4.0744,-4.0744,-4.0744,-3.9423,-3.8707,-3.8707,-3.9368,-3.9698,-3.9717,-4.0414,-4.0744,-4.0744,-4.0744,-4.0818,-4.0928,-4.0928,-4.1182,-4.1642,-4.2331,-4.3006,-4.3702,-4.4582,-4.5072,-4.5358,-4.5528,-4.5586,-4.5586,-3.8995,-3.8978,-3.8799,-3.8469,-3.8761,-3.8887,-3.8469,-3.8761,-3.9049,-3.9049,-3.8652,-3.8414,-3.8414,-3.8414,-3.8414,-3.8414,-3.8761,-3.9049,-3.9049,-3.8262,-3.7822,-3.7822,-3.8189,-3.8745,-3.9542,-3.9901,-4.007,-4.007,-4.007,-4.007,-4.007,-4.007,-4.007,-4.007,-4.007,-4.007,-4.007,-4.007,-4.007,-4.007,-4.007,-4.007,-4.007,-4.007,-4.007,-4.007,-4.007,-4.007,-4.007,-4.007,-4.007,-4.002,-3.9681,-3.9309,-3.9018,-3.8944,-3.7916,-3.6695,-3.6146,-3.6011,-3.6182,-3.6684,-3.702,-3.7342,-3.779,-3.8132,-3.8382,-3.8658,-3.8707,-3.8836,-3.9276,-3.935,-3.9496,-3.9937,-3.9992,0.0,0.0,-3.9992,-4.0139,-4.0506,-4.0561,-4.0689,-4.1075,-4.1111,-4.1111,-4.1111,-4.1111,-4.1111,-4.1111,-4.1111,-4.1111,-4.1111,-4.0396,-3.9992,-3.9992,-4.0359,-4.0561,-4.0561,-4.0928,-4.1111,-4.1111,-4.1111,-4.135,-4.1754,-4.1754,-4.2304,-4.3238,-4.3632,-4.4194,-4.4844,-4.5208,-4.5457,-4.5586,-4.5586,-4.5586,-4.5586,-3.9952,-3.961,-3.9193,-3.9193,-3.9662,-3.9901,-3.9262,-3.9714,-4.007,-4.007,-3.9542,-3.9193,-3.9193,-3.9193,-3.9193,-3.9193,-3.9714,-4.007,-4.007,-3.8995,-3.8318,-3.8318,-3.887,-3.9489,-4.007,-4.007,-4.007,-4.007,-4.007,-4.007,-4.007,-4.007,-4.007,-4.007,-4.007,-4.007,-4.007,-4.007,-4.007,-4.007,-4.007,-4.007,-4.007,-4.007,-4.007,-4.007,-4.007,-4.0187,-4.0285,-4.0154,-4.0303,-4.0466,-4.0336,-3.9993,-3.9753,-4.0145,-3.9047,-3.7634,-3.7228,-3.7143,-3.7248,-3.7798,-3.8187,-3.8487,-3.8608,-3.898,-3.9258,-3.9258,-3.9258,-3.946,-4.0065,-4.0175,-4.0377,-4.102,0.0,0.0,0.0,-4.1111,-4.1185,-4.1368,-4.1387,-4.146,-4.1644,-4.1662,-4.1662,-4.1662,-4.1662,-4.1662,-4.1662,-4.1662,-4.1662,-4.1662,-4.1313,-4.1111,-4.1111,-4.1295,-4.1387,-4.1387,-4.1589,-4.1662,-4.1662,-4.1662,-4.1992,-4.258,-4.2643,-4.3397,-4.4624,-4.4682,-4.5074,-4.5586,-4.5586,-4.5586,-4.5586,-4.5586,-4.5586,-4.5586,-4.007,-4.007,-4.002,-4.002,-4.007,-4.007,-4.002,-4.007,-4.007,-4.007,-4.007,-4.002,-4.002,-4.002,-4.002,-4.002,-4.007,-4.007,-4.007,-4.002,-3.9901,-3.9901,-3.9952,-4.002,-4.007,-4.007,-4.007,-4.007,-4.007,-4.007,-4.007,-4.007,-4.007,-4.007,-4.007,-4.007,-4.007,-4.007,-4.007,-4.007,-4.007,-4.007,-4.007,-4.007,-4.007,-4.007,-4.007,-4.0412,-4.0758,-4.0285,-4.0814,-4.1578,-4.0995,-4.1188,-4.1594,-4.1637,-4.1078,-4.0247,-3.9585,-3.9372,-3.9491,-3.993,-4.0095,-4.0256,-4.076,-4.0895,-4.0928,-4.0928,-4.0928,-4.0946,-4.102,-4.102,-4.1038,-4.1111,0.0,0.0,-4.1111,-4.1111,-4.1387,-4.2121,-4.2213,-4.2506,-4.324,-4.3314,-4.3314,-4.3314,-4.3314,-4.3314,-4.3314,-4.3314,-4.3314,-4.3314,-4.1882,-4.1111,-4.1111,-4.1846,-4.2213,-4.2213,-4.2965,-4.3314,-4.3314,-4.3314,-4.3351,-4.3422,-4.3743,-4.4148,-4.4606,-4.4943,-4.5282,-4.5586,-4.5586,-4.5586,-4.5586,-4.5586,-4.5586,-4.5586,-4.007,-4.007,-4.007,-4.007,-4.007,-4.007,-4.007,-4.007,-4.007,-4.007,-4.007,-4.007,-4.007,-4.007,-4.007,-4.007,-4.007,-4.007,-4.007,-4.007,-4.007,-4.007,-4.007,-4.007,-4.007,-4.007,-4.007,-4.007,-4.007,-4.007,-4.007,-4.007,-4.007,-4.007,-4.007,-4.007,-4.007,-4.007,-4.007,-4.007,-4.007,-4.007,-4.0155,-4.0459,-4.0666,-4.0798,-4.1035,-4.1463,-4.1771,-4.1293,-4.1464,-4.175,-4.1534,-4.1621,-4.1895,-4.2262,-4.2402,-4.2377,-4.2068,-4.107,-4.0165,-4.065,-4.0823,-4.0857,-4.106,-4.1111,-4.1111,-4.1111,-4.1111,-4.1258,-4.1754,-4.1846,-4.2011,-4.2506,0.0,-4.2598,-4.2598,-4.2598,-4.2772,-4.3272,-4.317,-4.3232,-4.3767,-4.3612,-4.3497,-4.3497,-4.3497,-4.3497,-4.3497,-4.3497,-4.3497,-4.3497,-4.291,-4.2598,-4.2598,-4.2892,-4.3039,-4.3039,-4.3332,-4.3497,-4.3497,-4.3497,-4.3612,-4.3836,-4.3955,-4.4346,-4.4919,-4.5052,-4.5302,-4.5586,-4.5586,-4.5586,-4.5586,-4.5586,-4.5586,-4.5586,-4.007,-4.007,-4.007,-4.007,-4.007,-4.007,-4.007,-4.007,-4.007,-4.007,-4.007,-4.007,-4.007,-4.007,-4.007,-4.007,-4.007,-4.007,-4.007,-4.007,-4.007,-4.007,-4.007,-4.007,-4.007,-4.007,-4.007,-4.007,-4.007,-4.007,-4.007,-4.007,-4.007,-4.007,-4.007,-4.007,-4.0121,-4.0285,-4.0329,-4.0388,-4.0542,-4.0642,-4.0676,-4.1047,-4.1265,-4.1434,-4.1706,-4.2092,-4.2424,-4.1966,-4.2062,-4.2306,-4.2162,-4.2185,-4.2404,-4.2846,-4.3214,-4.3497,-4.3497,-4.2428,-4.1377,-4.1779,-4.1864,-4.1864,-4.1864,-4.1864,-4.1864,-4.1864,-4.1864,-4.2029,-4.258,-4.2671,-4.2855,-4.3406,-4.3497,-4.3548,-4.3646,-4.3646,-4.3772,-4.4165,-4.3974,-4.3931,-4.4165,-4.3974,-4.3855,-4.3855,-4.3855,-4.3791,-4.3679,-4.3582,-4.3497,-4.3497,-4.3497,-4.3497,-4.3497,-4.3497,-4.3497,-4.3497,-4.3497,-4.3497,-4.3479,-4.3597,-4.3772,-4.3998,-4.4243,-4.4638,-4.5096,-4.5222,-4.54,-4.5586,-4.5586,-4.5586,-4.5586,-4.5586,-4.5586,-4.5586,-4.007,-4.007,-4.007,-4.007,-4.007,-4.007,-4.007,-4.007,-4.007,-4.007,-4.007,-4.007,-4.007,-4.007,-4.007,-4.007,-4.007,-4.007,-4.007,-4.007,-4.007,-4.007,-4.007,-4.007,-4.007,-4.007,-4.007,-4.007,-4.007,-4.007,-4.007,-4.007,-4.007,-4.007,-4.007,-4.0121,-4.0154,-4.0671,-4.0876,-4.0934,-4.1556,-4.1793,-4.1793,-4.1793,-4.1825,-4.1801,-4.1801,-4.2192,-4.2616,-4.2038,-4.2562,-4.341,-4.2864,-4.305,-4.3497,-4.3497,-4.3497,-4.3497,-4.3497,-4.3497,-4.3497,-4.3497,-4.3497,-4.3497,-4.3497,-4.3497,-4.3497,-4.3497,-4.3497,-4.3497,-4.3497,-4.3497,-4.3497,-4.3497,-4.3479,-4.3612,-4.3955,-4.3998,-4.4146,-4.4553,-4.4606,-4.458,-4.4606,-4.4606,-4.458,-4.458,-4.458,-4.4419,-4.4046,-4.3693,-4.3532,-4.3532,-4.3532,-4.3532,-4.3532,-4.3479,-4.3497,-4.3497,-4.3497,-4.3479,-4.3513,-4.3849,-4.3998,-4.4058,-4.4762,-4.5096,-4.5118,-4.5457,-4.5586,-4.5586,-4.5586,-4.5586,-4.5586,-4.5586,-4.5586,-4.5586,-4.007,-4.007,-4.007,-4.007,-4.007,-4.007,-4.007,-4.007,-4.007,-4.007,-4.007,-4.007,-4.007,-4.007,-4.007,-4.007,-4.007,-4.007,-4.007,-4.007,-4.007,-4.007,-4.007,-4.007,-4.007,-4.007,-4.007,-4.007,-4.007,-4.007,-4.007,-4.007,-4.007,-4.007,-4.007,-4.0336,-4.0685,-4.0822,-4.1121,-4.1533,-4.1717,-4.1796,-4.185,-4.2286,-4.245,-4.2486,-4.285,-4.3123,-4.325,-4.3069,-4.3232,-4.3479,-4.3286,-4.3375,-4.3497,-4.3497,-4.3497,-4.3497,-4.3497,-4.3497,-4.3497,-4.3497,-4.3497,-4.3497,-4.3497,-4.3497,-4.3497,-4.3497,-4.3497,-4.3497,-4.3497,-4.3497,-4.3497,-4.3497,-4.3693,-4.3881,-4.3986,-4.4233,-4.4553,-4.4919,-4.4732,-4.4682,-4.4919,-4.4751,-4.458,-4.458,-4.458,-4.4553,-4.4419,-4.4337,-4.428,-4.428,-4.428,-4.428,-4.428,-4.3758,-4.3497,-4.3497,-4.3497,-4.3612,-4.3849,-4.3955,-4.4271,-4.4762,-4.4988,-4.5222,-4.5476,-4.5568,-4.5586,-4.5586,-4.5586,-4.5586,-4.5586,-4.5586,-4.5586,-4.5586,-4.007,-4.007,-4.007,-4.007,-4.007,-4.007,-4.007,-4.007,-4.007,-4.007,-4.007,-4.007,-4.007,-4.007,-4.007,-4.007,-4.007,-4.007,-4.007,-4.007,-4.007,-4.007,-4.007,-4.007,-4.007,-4.007,-4.007,-4.007,-4.007,-4.007,-4.007,-4.007,-4.007,-4.0121,-4.0336,-4.0625,-4.0949,-4.1429,-4.1825,-4.2178,-4.2395,-4.2477,-4.2514,-4.2878,-4.3023,-4.3059,-4.3387,-4.3497,-4.3497,-4.3497,-4.3497,-4.3497,-4.3497,-4.3497,-4.3497,-4.3497,-4.3497,-4.3497,-4.3497,-4.3497,-4.3497,-4.3497,-4.3497,-4.3497,-4.3497,-4.3497,-4.3497,-4.3497,-4.3497,-4.3497,-4.3497,-4.3597,-4.3693,-4.3693,-4.3986,-4.429,-4.4428,-4.4638,-4.4919,-4.5243,-4.5118,-4.5074,-4.5282,-4.5118,-4.4988,-4.4988,-4.4872,-4.48,-4.48,-4.4657,-4.458,-4.458,-4.458,-4.458,-4.458,-4.4154,-4.3931,-4.3931,-4.3791,-4.3899,-4.4233,-4.4354,-4.4688,-4.5096,-4.5243,-4.5419,-4.5586,-4.5586,-4.5586,-4.5586,-4.5586,-4.5586,-4.5586,-4.5586,-4.5586,-4.5586,-4.007,-4.007,-4.007,-4.007,-4.007,-4.007,-4.007,-4.007,-4.007,-4.007,-4.007,-4.007,-4.007,-4.007,-4.007,-4.007,-4.007,-4.007,-4.007,-4.007,-4.007,-4.007,-4.007,-4.007,-4.007,-4.007,-4.007,-4.007,-4.007,-4.007,-4.007,-4.007,-4.007,-4.0121,-4.0655,-4.0949,-4.1041,-4.2203,-4.275,-4.2826,-4.3286,-4.3497,-4.3497,-4.3497,-4.3497,-4.3497,-4.3497,-4.3497,-4.3497,-4.3497,-4.3497,-4.3497,-4.3497,-4.3497,-4.3497,-4.3497,-4.3497,-4.3497,-4.3497,-4.3497,-4.3497,-4.3497,-4.3497,-4.3497,-4.3497,-4.3497,-4.3497,-4.3497,-4.3497,-4.3532,-4.3548,-4.3804,-4.3998,-4.4046,-4.4392,-4.4732,-4.5052,-4.5137,-4.5243,-4.5568,-4.5586,-4.5586,-4.5586,-4.5586,-4.5586,-4.5586,-4.5322,-4.514,-4.514,-4.4872,-4.4682,-4.4682,-4.4682,-4.4682,-4.4682,-4.4657,-4.4631,-4.4599,-4.4233,-4.4261,-4.4676,-4.4966,-4.5118,-4.5161,-4.5476,-4.5586,-4.5586,-4.5586,-4.5586,-4.5586,-4.5586,-4.5586,-4.5586,-4.5586,-4.5586,-4.5586,-4.007,-4.007,-4.007,-4.007,-4.007,-4.007,-4.007,-4.007,-4.007,-4.007,-4.007,-4.007,-4.007,-4.007,-4.007,-4.007,-4.007,-4.007,-4.007,-4.007,-4.007,-4.007,-4.007,-4.007,-4.007,-4.007,-4.007,-4.007,-4.007,-4.007,-4.007,-4.007,-4.007,-4.0121,-4.0655,-4.1178,-4.1664,-4.2382,-4.2939,-4.3339,-4.3444,-4.3497,-4.3497,-4.3497,-4.3497,-4.3497,-4.3497,-4.3497,-4.3497,-4.3497,-4.3497,-4.3497,-4.3497,-4.3497,-4.3497,-4.3497,-4.3497,-4.3497,-4.3497,-4.3497,-4.3497,-4.3497,-4.3497,-4.3497,-4.3497,-4.3497,-4.3497,-4.3497,-4.3497,-4.3563,-4.3849,-4.3955,-4.4087,-4.4419,-4.4757,-4.503,-4.5096,-4.5322,-4.5513,-4.5586,-4.5586,-4.5586,-4.5586,-4.5586,-4.5586,-4.5586,-4.5531,-4.5495,-4.5495,-4.5419,-4.5381,-4.5381,-4.5381,-4.5381,-4.5381,-4.5118,-4.4872,-4.458,-4.4501,-4.4657,-4.4988,-4.5074,-4.5243,-4.5495,-4.5568,-4.5586,-4.5586,-4.5586,-4.5586,-4.5586,-4.5586,-4.5586,-4.5586,-4.5586,-4.5586,-4.5586,-4.007,-4.007,-4.007,-4.007,-4.007,-4.007,-4.007,-4.007,-4.007,-4.007,-4.007,-4.007,-4.007,-4.007,-4.007,-4.007,-4.007,-4.007,-4.007,-4.007,-4.007,-4.007,-4.007,-4.007,-4.007,-4.007,-4.007,-4.007,-4.007,-4.007,-4.007,-4.007,-4.0254,-4.0497,-4.1105,-4.1664,-4.2262,-4.2846,-4.325,-4.3497,-4.3497,-4.3497,-4.3497,-4.3497,-4.3497,-4.3497,-4.3497,-4.3497,-4.3497,-4.3497,-4.3497,-4.3497,-4.3497,-4.3497,-4.3497,-4.3497,-4.3497,-4.3497,-4.3497,-4.3497,-4.3497,-4.3497,-4.3497,-4.3497,-4.3497,-4.3497,-4.3548,-4.3693,-4.3758,-4.3868,-4.4223,-4.4428,-4.4587,-4.4806,-4.5118,-4.5342,-4.5342,-4.5495,-4.5586,-4.5586,-4.5586,-4.5586,-4.5586,-4.5586,-4.5586,-4.5586,-4.5586,-4.5586,-4.5586,-4.5586,-4.5586,-4.5586,-4.5586,-4.5586,-4.5586,-4.5419,-4.5243,-4.5074,-4.4919,-4.5011,-4.5342,-4.5342,-4.5438,-4.5586,-4.5586,-4.5586,-4.5586,-4.5586,-4.5586,-4.5586,-4.5586,-4.5586,-4.5586,-4.5586,-4.5586,-4.5586,-4.007,-4.007,-4.007,-4.007,-4.007,-4.007,-4.007,-4.007,-4.007,-4.007,-4.007,-4.007,-4.007,-4.007,-4.007,-4.007,-4.007,-4.007,-4.007,-4.007,-4.007,-4.007,-4.007,-4.007,-4.007,-4.007,-4.007,-4.007,-4.007,-4.007,-4.007,-4.007,-4.0368,-4.0949,-4.1534,-4.2121,-4.275,-4.325,-4.3497,-4.3497,-4.3497,-4.3497,-4.3497,-4.3497,-4.3497,-4.3497,-4.3497,-4.3497,-4.3497,-4.3497,-4.3497,-4.3497,-4.3497,-4.3497,-4.3497,-4.3497,-4.3497,-4.3497,-4.3497,-4.3497,-4.3497,-4.3497,-4.3497,-4.3513,-4.3563,-4.3597,-4.3679,-4.3924,-4.4058,-4.4233,-4.4606,-4.4919,-4.5118,-4.518,-4.5419,-4.5586,-4.5586,-4.5586,-4.5586,-4.5586,-4.5586,-4.5586,-4.5586,-4.5586,-4.5586,-4.5586,-4.5586,-4.5586,-4.5586,-4.5586,-4.5586,-4.5586,-4.5586,-4.5586,-4.5586,-4.5586,-4.5586,-4.5586,-4.5322,-4.5322,-4.5586,-4.5586,-4.5586,-4.5586,-4.5586,-4.5586,-4.5586,-4.5586,-4.5586,-4.5586,-4.5586,-4.5586,-4.5586,-4.5586,-4.5586,-4.5586,-4.007,-4.007,-4.007,-4.007,-4.007,-4.007,-4.007,-4.007,-4.007,-4.007,-4.007,-4.007,-4.007,-4.007,-4.007,-4.007,-4.007,-4.007,-4.007,-4.007,-4.007,-4.007,-4.007,-4.007,-4.007,-4.007,-4.007,-4.007,-4.007,-4.007,-4.007,-4.007,-4.0368,-4.0949,-4.1534,-4.2121,-4.275,-4.325,-4.3497,-4.3497,-4.3497,-4.3497,-4.3497,-4.3497,-4.3497,-4.3497,-4.3497,-4.3497,-4.3497,-4.3497,-4.3497,-4.3497,-4.3497,-4.3497,-4.3497,-4.3497,-4.3497,-4.3497,-4.3497,-4.3497,-4.3497,-4.3497,-4.3497,-4.3563,-4.3881,-4.3924,-4.3955,-4.3986,-4.428,-4.4631,-4.4966,-4.5074,-4.5201,-4.5495,-4.5568,-4.5586,-4.5586,-4.5586,-4.5586,-4.5586,-4.5586,-4.5586,-4.5586,-4.5586,-4.5586,-4.5586,-4.5586,-4.5586,-4.5586,-4.5586,-4.5586,-4.5586,-4.5586,-4.5586,-4.5586,-4.5586,-4.5586,-4.5586,-4.5568,-4.5568,-4.5586,-4.5586,-4.5586,-4.5586,-4.5586,-4.5586,-4.5586,-4.5586,-4.5586,-4.5586,-4.5586,-4.5586,-4.5586,-4.5586,-4.5586,-4.5586,-3.8937,-3.887,-3.8988,-3.9394,-3.9478,-3.9597,-4.002,-4.007,-4.007,-4.007,-4.007,-4.007,-4.007,-4.007,-4.007,-4.007,-4.007,-4.007,-4.007,-4.007,-4.007,-4.007,-4.007,-4.007,-4.007,-4.007,-4.007,-4.007,-4.007,-4.007,-4.007,-4.007,-4.0546,-4.1402,-4.1664,-4.2306,-4.3178,-4.341,-4.3497,-4.3497,-4.3497,-4.3497,-4.3497,-4.3497,-4.3497,-4.3497,-4.3497,-4.3497,-4.3497,-4.3497,-4.3497,-4.3497,-4.3497,-4.3497,-4.3497,-4.3497,-4.3497,-4.3548,-4.3726,-4.3772,-4.3836,-4.4065,-4.4125,-4.4136,-4.4308,-4.4482,-4.4612,-4.4612,-4.4757,-4.4966,-4.5322,-4.5381,-4.5419,-4.5568,-4.5586,-4.5586,-4.5586,-4.5586,-4.5586,-4.5586,-4.5586,-4.5586,-4.5586,-4.5586,-4.5586,-4.5586,-4.5586,-4.5586,-4.5586,-4.5586,-4.5586,-4.5586,-4.5586,-4.5586,-4.5586,-4.5586,-4.5586,-4.5586,-4.5586,-4.5586,-4.5586,-4.5586,-4.5586,-4.5586,-4.5586,-4.5586,-4.5586,-4.5586,-4.5586,-4.5586,-4.5586,-4.5586,-4.5586,-4.5586,-4.5586,-4.5586]}]]